<?xml version="1.0" encoding="UTF-8" standalone="no" ?>
<gpx xmlns="http://www.topografix.com/GPX/1/1" xmlns:xsi="http://www.w3.org/2001/XMLSchema-instance" xsi:schemaLocation="http://www.topografix.com/GPX/1/1 http://www.topografix.com/GPX/1/1/gpx.xsd" version="1.1" creator="VisuGPX - https://www.visugpx.com">
  <metadata>
    <name>Bonhomme 7</name>
    <desc><![CDATA[Parcours noir]]></desc>
  </metadata>
  <trk>
    <name><![CDATA[Les Balcons d'Orbey - N°7]]></name>
    <desc><![CDATA[Parcours noir]]></desc>
    <trkseg>
      <trkpt lat="48.13353" lon="7.0946">
        <ele>1093.1999511719</ele>
        <time>2012-07-15T08:02:57.000Z</time>
      </trkpt>
      <trkpt lat="48.13353" lon="7.09458">
        <ele>1093.1999511719</ele>
        <time>2012-07-15T08:02:58.000Z</time>
      </trkpt>
      <trkpt lat="48.13357" lon="7.09441">
        <ele>1093.8000488281</ele>
        <time>2012-07-15T08:03:04.000Z</time>
      </trkpt>
      <trkpt lat="48.13362" lon="7.09408">
        <ele>1094</ele>
        <time>2012-07-15T08:03:11.000Z</time>
      </trkpt>
      <trkpt lat="48.1336" lon="7.09375">
        <ele>1095.8000488281</ele>
        <time>2012-07-15T08:03:18.000Z</time>
      </trkpt>
      <trkpt lat="48.13359" lon="7.09341">
        <ele>1096.1999511719</ele>
        <time>2012-07-15T08:03:24.000Z</time>
      </trkpt>
      <trkpt lat="48.13368" lon="7.09296">
        <ele>1095.8000488281</ele>
        <time>2012-07-15T08:03:32.000Z</time>
      </trkpt>
      <trkpt lat="48.13369" lon="7.09289">
        <ele>1095.5999755859</ele>
        <time>2012-07-15T08:03:35.000Z</time>
      </trkpt>
      <trkpt lat="48.13369" lon="7.09289">
        <ele>1095.5999755859</ele>
        <time>2012-07-15T08:03:37.000Z</time>
      </trkpt>
      <trkpt lat="48.13362" lon="7.09274">
        <ele>1095.4000244141</ele>
        <time>2012-07-15T08:03:42.000Z</time>
      </trkpt>
      <trkpt lat="48.13354" lon="7.09265">
        <ele>1095.1999511719</ele>
        <time>2012-07-15T08:03:44.000Z</time>
      </trkpt>
      <trkpt lat="48.13321" lon="7.09233">
        <ele>1093.8000488281</ele>
        <time>2012-07-15T08:03:50.000Z</time>
      </trkpt>
      <trkpt lat="48.13283" lon="7.09218">
        <ele>1092.1999511719</ele>
        <time>2012-07-15T08:03:55.000Z</time>
      </trkpt>
      <trkpt lat="48.13216" lon="7.0921">
        <ele>1090</ele>
        <time>2012-07-15T08:04:03.000Z</time>
      </trkpt>
      <trkpt lat="48.13133" lon="7.09193">
        <ele>1087.8000488281</ele>
        <time>2012-07-15T08:04:13.000Z</time>
      </trkpt>
      <trkpt lat="48.13064" lon="7.0918">
        <ele>1085.5999755859</ele>
        <time>2012-07-15T08:04:21.000Z</time>
      </trkpt>
      <trkpt lat="48.1299" lon="7.09167">
        <ele>1084.4000244141</ele>
        <time>2012-07-15T08:04:29.000Z</time>
      </trkpt>
      <trkpt lat="48.12944" lon="7.09174">
        <ele>1082.5999755859</ele>
        <time>2012-07-15T08:04:34.000Z</time>
      </trkpt>
      <trkpt lat="48.129" lon="7.09204">
        <ele>1080</ele>
        <time>2012-07-15T08:04:39.000Z</time>
      </trkpt>
      <trkpt lat="48.12857" lon="7.09252">
        <ele>1076.8000488281</ele>
        <time>2012-07-15T08:04:44.000Z</time>
      </trkpt>
      <trkpt lat="48.12824" lon="7.09297">
        <ele>1075</ele>
        <time>2012-07-15T08:04:48.000Z</time>
      </trkpt>
      <trkpt lat="48.12772" lon="7.09358">
        <ele>1071.1999511719</ele>
        <time>2012-07-15T08:04:54.000Z</time>
      </trkpt>
      <trkpt lat="48.12723" lon="7.0941">
        <ele>1066.1999511719</ele>
        <time>2012-07-15T08:05:00.000Z</time>
      </trkpt>
      <trkpt lat="48.12681" lon="7.09448">
        <ele>1061.8000488281</ele>
        <time>2012-07-15T08:05:05.000Z</time>
      </trkpt>
      <trkpt lat="48.12619" lon="7.09502">
        <ele>1056.1999511719</ele>
        <time>2012-07-15T08:05:12.000Z</time>
      </trkpt>
      <trkpt lat="48.12571" lon="7.09567">
        <ele>1052.5999755859</ele>
        <time>2012-07-15T08:05:18.000Z</time>
      </trkpt>
      <trkpt lat="48.12513" lon="7.09655">
        <ele>1047</ele>
        <time>2012-07-15T08:05:25.000Z</time>
      </trkpt>
      <trkpt lat="48.12486" lon="7.09716">
        <ele>1044.4000244141</ele>
        <time>2012-07-15T08:05:29.000Z</time>
      </trkpt>
      <trkpt lat="48.12451" lon="7.09765">
        <ele>1040.1999511719</ele>
        <time>2012-07-15T08:05:33.000Z</time>
      </trkpt>
      <trkpt lat="48.1244" lon="7.09775">
        <ele>1039</ele>
        <time>2012-07-15T08:05:34.000Z</time>
      </trkpt>
      <trkpt lat="48.12396" lon="7.09809">
        <ele>1034.8000488281</ele>
        <time>2012-07-15T08:05:38.000Z</time>
      </trkpt>
      <trkpt lat="48.1237" lon="7.09844">
        <ele>1031.1999511719</ele>
        <time>2012-07-15T08:05:41.000Z</time>
      </trkpt>
      <trkpt lat="48.12359" lon="7.09894">
        <ele>1028</ele>
        <time>2012-07-15T08:05:44.000Z</time>
      </trkpt>
      <trkpt lat="48.12351" lon="7.09943">
        <ele>1024.1999511719</ele>
        <time>2012-07-15T08:05:47.000Z</time>
      </trkpt>
      <trkpt lat="48.12327" lon="7.09988">
        <ele>1018.5999755859</ele>
        <time>2012-07-15T08:05:51.000Z</time>
      </trkpt>
      <trkpt lat="48.12311" lon="7.09992">
        <ele>1015.5999755859</ele>
        <time>2012-07-15T08:05:53.000Z</time>
      </trkpt>
      <trkpt lat="48.12296" lon="7.09974">
        <ele>1012</ele>
        <time>2012-07-15T08:05:56.000Z</time>
      </trkpt>
      <trkpt lat="48.12293" lon="7.09966">
        <ele>1011.200012207</ele>
        <time>2012-07-15T08:05:57.000Z</time>
      </trkpt>
      <trkpt lat="48.12284" lon="7.09927">
        <ele>1010.5999755859</ele>
        <time>2012-07-15T08:06:03.000Z</time>
      </trkpt>
      <trkpt lat="48.12277" lon="7.09896">
        <ele>1011.799987793</ele>
        <time>2012-07-15T08:06:09.000Z</time>
      </trkpt>
      <trkpt lat="48.12271" lon="7.09872">
        <ele>1013.200012207</ele>
        <time>2012-07-15T08:06:14.000Z</time>
      </trkpt>
      <trkpt lat="48.12264" lon="7.09851">
        <ele>1015</ele>
        <time>2012-07-15T08:06:19.000Z</time>
      </trkpt>
      <trkpt lat="48.12249" lon="7.0982">
        <ele>1016.4000244141</ele>
        <time>2012-07-15T08:06:26.000Z</time>
      </trkpt>
      <trkpt lat="48.12224" lon="7.09795">
        <ele>1016.5999755859</ele>
        <time>2012-07-15T08:06:33.000Z</time>
      </trkpt>
      <trkpt lat="48.12205" lon="7.09793">
        <ele>1016.4000244141</ele>
        <time>2012-07-15T08:06:38.000Z</time>
      </trkpt>
      <trkpt lat="48.12186" lon="7.09805">
        <ele>1016.4000244141</ele>
        <time>2012-07-15T08:06:43.000Z</time>
      </trkpt>
      <trkpt lat="48.1216" lon="7.09834">
        <ele>1016</ele>
        <time>2012-07-15T08:06:49.000Z</time>
      </trkpt>
      <trkpt lat="48.12155" lon="7.09854">
        <ele>1015.799987793</ele>
        <time>2012-07-15T08:06:52.000Z</time>
      </trkpt>
      <trkpt lat="48.12148" lon="7.09882">
        <ele>1015.799987793</ele>
        <time>2012-07-15T08:06:56.000Z</time>
      </trkpt>
      <trkpt lat="48.12128" lon="7.0991">
        <ele>1015.799987793</ele>
        <time>2012-07-15T08:07:01.000Z</time>
      </trkpt>
      <trkpt lat="48.12118" lon="7.09944">
        <ele>1015.4000244141</ele>
        <time>2012-07-15T08:07:06.000Z</time>
      </trkpt>
      <trkpt lat="48.12116" lon="7.0998">
        <ele>1015.4000244141</ele>
        <time>2012-07-15T08:07:11.000Z</time>
      </trkpt>
      <trkpt lat="48.12117" lon="7.10033">
        <ele>1015</ele>
        <time>2012-07-15T08:07:18.000Z</time>
      </trkpt>
      <trkpt lat="48.12115" lon="7.10089">
        <ele>1014.200012207</ele>
        <time>2012-07-15T08:07:25.000Z</time>
      </trkpt>
      <trkpt lat="48.12113" lon="7.10136">
        <ele>1014</ele>
        <time>2012-07-15T08:07:31.000Z</time>
      </trkpt>
      <trkpt lat="48.12101" lon="7.1016">
        <ele>1013.5999755859</ele>
        <time>2012-07-15T08:07:35.000Z</time>
      </trkpt>
      <trkpt lat="48.12092" lon="7.10169">
        <ele>1013.4000244141</ele>
        <time>2012-07-15T08:07:37.000Z</time>
      </trkpt>
      <trkpt lat="48.12076" lon="7.10206">
        <ele>1013</ele>
        <time>2012-07-15T08:07:43.000Z</time>
      </trkpt>
      <trkpt lat="48.12074" lon="7.10244">
        <ele>1013</ele>
        <time>2012-07-15T08:07:48.000Z</time>
      </trkpt>
      <trkpt lat="48.12075" lon="7.10252">
        <ele>1013</ele>
        <time>2012-07-15T08:07:49.000Z</time>
      </trkpt>
      <trkpt lat="48.1209" lon="7.10314">
        <ele>1011.4000244141</ele>
        <time>2012-07-15T08:07:57.000Z</time>
      </trkpt>
      <trkpt lat="48.12094" lon="7.10329">
        <ele>1011.4000244141</ele>
        <time>2012-07-15T08:07:59.000Z</time>
      </trkpt>
      <trkpt lat="48.12107" lon="7.10397">
        <ele>1010.799987793</ele>
        <time>2012-07-15T08:08:08.000Z</time>
      </trkpt>
      <trkpt lat="48.12119" lon="7.10448">
        <ele>1010.5999755859</ele>
        <time>2012-07-15T08:08:15.000Z</time>
      </trkpt>
      <trkpt lat="48.12134" lon="7.10517">
        <ele>1011.4000244141</ele>
        <time>2012-07-15T08:08:24.000Z</time>
      </trkpt>
      <trkpt lat="48.12135" lon="7.10565">
        <ele>1011.4000244141</ele>
        <time>2012-07-15T08:08:30.000Z</time>
      </trkpt>
      <trkpt lat="48.12121" lon="7.10626">
        <ele>1010.4000244141</ele>
        <time>2012-07-15T08:08:37.000Z</time>
      </trkpt>
      <trkpt lat="48.12103" lon="7.10656">
        <ele>1009.799987793</ele>
        <time>2012-07-15T08:08:42.000Z</time>
      </trkpt>
      <trkpt lat="48.12084" lon="7.10678">
        <ele>1009.200012207</ele>
        <time>2012-07-15T08:08:47.000Z</time>
      </trkpt>
      <trkpt lat="48.12056" lon="7.10694">
        <ele>1009.200012207</ele>
        <time>2012-07-15T08:08:53.000Z</time>
      </trkpt>
      <trkpt lat="48.12046" lon="7.10691">
        <ele>1009</ele>
        <time>2012-07-15T08:08:55.000Z</time>
      </trkpt>
      <trkpt lat="48.12014" lon="7.1067">
        <ele>1008.5999755859</ele>
        <time>2012-07-15T08:09:01.000Z</time>
      </trkpt>
      <trkpt lat="48.11994" lon="7.10651">
        <ele>1008</ele>
        <time>2012-07-15T08:09:05.000Z</time>
      </trkpt>
      <trkpt lat="48.11954" lon="7.10624">
        <ele>1007.799987793</ele>
        <time>2012-07-15T08:09:13.000Z</time>
      </trkpt>
      <trkpt lat="48.11944" lon="7.10619">
        <ele>1007.5999755859</ele>
        <time>2012-07-15T08:09:15.000Z</time>
      </trkpt>
      <trkpt lat="48.11899" lon="7.10591">
        <ele>1007</ele>
        <time>2012-07-15T08:09:24.000Z</time>
      </trkpt>
      <trkpt lat="48.11883" lon="7.10572">
        <ele>1007.200012207</ele>
        <time>2012-07-15T08:09:28.000Z</time>
      </trkpt>
      <trkpt lat="48.11866" lon="7.10551">
        <ele>1008</ele>
        <time>2012-07-15T08:09:34.000Z</time>
      </trkpt>
      <trkpt lat="48.11857" lon="7.10541">
        <ele>1009.4000244141</ele>
        <time>2012-07-15T08:09:39.000Z</time>
      </trkpt>
      <trkpt lat="48.11849" lon="7.10526">
        <ele>1010.5999755859</ele>
        <time>2012-07-15T08:09:44.000Z</time>
      </trkpt>
      <trkpt lat="48.1184" lon="7.10507">
        <ele>1012.4000244141</ele>
        <time>2012-07-15T08:09:51.000Z</time>
      </trkpt>
      <trkpt lat="48.11832" lon="7.10494">
        <ele>1013.4000244141</ele>
        <time>2012-07-15T08:09:56.000Z</time>
      </trkpt>
      <trkpt lat="48.1182" lon="7.1047">
        <ele>1015.200012207</ele>
        <time>2012-07-15T08:10:04.000Z</time>
      </trkpt>
      <trkpt lat="48.11809" lon="7.10444">
        <ele>1016.5999755859</ele>
        <time>2012-07-15T08:10:12.000Z</time>
      </trkpt>
      <trkpt lat="48.118" lon="7.1042">
        <ele>1017.5999755859</ele>
        <time>2012-07-15T08:10:19.000Z</time>
      </trkpt>
      <trkpt lat="48.11794" lon="7.10398">
        <ele>1018.4000244141</ele>
        <time>2012-07-15T08:10:25.000Z</time>
      </trkpt>
      <trkpt lat="48.11784" lon="7.10369">
        <ele>1020.200012207</ele>
        <time>2012-07-15T08:10:34.000Z</time>
      </trkpt>
      <trkpt lat="48.11775" lon="7.10334">
        <ele>1021.200012207</ele>
        <time>2012-07-15T08:10:44.000Z</time>
      </trkpt>
      <trkpt lat="48.11764" lon="7.10303">
        <ele>1022.200012207</ele>
        <time>2012-07-15T08:10:53.000Z</time>
      </trkpt>
      <trkpt lat="48.11759" lon="7.10281">
        <ele>1022.200012207</ele>
        <time>2012-07-15T08:10:58.000Z</time>
      </trkpt>
      <trkpt lat="48.11746" lon="7.10244">
        <ele>1023.200012207</ele>
        <time>2012-07-15T08:11:07.000Z</time>
      </trkpt>
      <trkpt lat="48.11737" lon="7.10211">
        <ele>1024.8000488281</ele>
        <time>2012-07-15T08:11:16.000Z</time>
      </trkpt>
      <trkpt lat="48.11728" lon="7.10176">
        <ele>1026.5999755859</ele>
        <time>2012-07-15T08:11:25.000Z</time>
      </trkpt>
      <trkpt lat="48.11721" lon="7.10141">
        <ele>1028</ele>
        <time>2012-07-15T08:11:34.000Z</time>
      </trkpt>
      <trkpt lat="48.11712" lon="7.10106">
        <ele>1029.5999755859</ele>
        <time>2012-07-15T08:11:43.000Z</time>
      </trkpt>
      <trkpt lat="48.11707" lon="7.10071">
        <ele>1031.4000244141</ele>
        <time>2012-07-15T08:11:52.000Z</time>
      </trkpt>
      <trkpt lat="48.11699" lon="7.10025">
        <ele>1033.1999511719</ele>
        <time>2012-07-15T08:12:04.000Z</time>
      </trkpt>
      <trkpt lat="48.11689" lon="7.09991">
        <ele>1034.5999755859</ele>
        <time>2012-07-15T08:12:13.000Z</time>
      </trkpt>
      <trkpt lat="48.1168" lon="7.09961">
        <ele>1035.8000488281</ele>
        <time>2012-07-15T08:12:21.000Z</time>
      </trkpt>
      <trkpt lat="48.11668" lon="7.09934">
        <ele>1036.5999755859</ele>
        <time>2012-07-15T08:12:29.000Z</time>
      </trkpt>
      <trkpt lat="48.11657" lon="7.0993">
        <ele>1036.4000244141</ele>
        <time>2012-07-15T08:12:34.000Z</time>
      </trkpt>
      <trkpt lat="48.11646" lon="7.0993">
        <ele>1034.8000488281</ele>
        <time>2012-07-15T08:12:39.000Z</time>
      </trkpt>
      <trkpt lat="48.1163" lon="7.09922">
        <ele>1031.8000488281</ele>
        <time>2012-07-15T08:12:45.000Z</time>
      </trkpt>
      <trkpt lat="48.1162" lon="7.09915">
        <ele>1030</ele>
        <time>2012-07-15T08:12:49.000Z</time>
      </trkpt>
      <trkpt lat="48.11601" lon="7.09919">
        <ele>1028.1999511719</ele>
        <time>2012-07-15T08:12:54.000Z</time>
      </trkpt>
      <trkpt lat="48.11592" lon="7.09926">
        <ele>1026.4000244141</ele>
        <time>2012-07-15T08:12:58.000Z</time>
      </trkpt>
      <trkpt lat="48.11581" lon="7.09929">
        <ele>1024</ele>
        <time>2012-07-15T08:13:03.000Z</time>
      </trkpt>
      <trkpt lat="48.11566" lon="7.09934">
        <ele>1021.799987793</ele>
        <time>2012-07-15T08:13:08.000Z</time>
      </trkpt>
      <trkpt lat="48.11562" lon="7.09934">
        <ele>1021.4000244141</ele>
        <time>2012-07-15T08:13:09.000Z</time>
      </trkpt>
      <trkpt lat="48.11544" lon="7.0994">
        <ele>1019.4000244141</ele>
        <time>2012-07-15T08:13:14.000Z</time>
      </trkpt>
      <trkpt lat="48.11529" lon="7.09953">
        <ele>1017.200012207</ele>
        <time>2012-07-15T08:13:19.000Z</time>
      </trkpt>
      <trkpt lat="48.11514" lon="7.09966">
        <ele>1015.799987793</ele>
        <time>2012-07-15T08:13:23.000Z</time>
      </trkpt>
      <trkpt lat="48.11501" lon="7.09976">
        <ele>1013.799987793</ele>
        <time>2012-07-15T08:13:27.000Z</time>
      </trkpt>
      <trkpt lat="48.11494" lon="7.09989">
        <ele>1011.799987793</ele>
        <time>2012-07-15T08:13:31.000Z</time>
      </trkpt>
      <trkpt lat="48.11491" lon="7.1001">
        <ele>1010.4000244141</ele>
        <time>2012-07-15T08:13:35.000Z</time>
      </trkpt>
      <trkpt lat="48.11492" lon="7.10031">
        <ele>1010</ele>
        <time>2012-07-15T08:13:39.000Z</time>
      </trkpt>
      <trkpt lat="48.11493" lon="7.10038">
        <ele>1010</ele>
        <time>2012-07-15T08:13:40.000Z</time>
      </trkpt>
      <trkpt lat="48.11501" lon="7.10069">
        <ele>1009.200012207</ele>
        <time>2012-07-15T08:13:45.000Z</time>
      </trkpt>
      <trkpt lat="48.11509" lon="7.10087">
        <ele>1008.4000244141</ele>
        <time>2012-07-15T08:13:48.000Z</time>
      </trkpt>
      <trkpt lat="48.11518" lon="7.10106">
        <ele>1007.200012207</ele>
        <time>2012-07-15T08:13:51.000Z</time>
      </trkpt>
      <trkpt lat="48.11537" lon="7.10134">
        <ele>1003.4000244141</ele>
        <time>2012-07-15T08:13:56.000Z</time>
      </trkpt>
      <trkpt lat="48.11547" lon="7.1015">
        <ele>1001.200012207</ele>
        <time>2012-07-15T08:13:59.000Z</time>
      </trkpt>
      <trkpt lat="48.11568" lon="7.10176">
        <ele>997.59997558594</ele>
        <time>2012-07-15T08:14:05.000Z</time>
      </trkpt>
      <trkpt lat="48.11583" lon="7.10195">
        <ele>995</ele>
        <time>2012-07-15T08:14:10.000Z</time>
      </trkpt>
      <trkpt lat="48.11598" lon="7.10218">
        <ele>993.59997558594</ele>
        <time>2012-07-15T08:14:15.000Z</time>
      </trkpt>
      <trkpt lat="48.11601" lon="7.10223">
        <ele>993.40002441406</ele>
        <time>2012-07-15T08:14:16.000Z</time>
      </trkpt>
      <trkpt lat="48.11618" lon="7.10246">
        <ele>992</ele>
        <time>2012-07-15T08:14:21.000Z</time>
      </trkpt>
      <trkpt lat="48.11634" lon="7.10271">
        <ele>990.40002441406</ele>
        <time>2012-07-15T08:14:27.000Z</time>
      </trkpt>
      <trkpt lat="48.11645" lon="7.10288">
        <ele>989.79998779297</ele>
        <time>2012-07-15T08:14:31.000Z</time>
      </trkpt>
      <trkpt lat="48.11657" lon="7.10327">
        <ele>987.79998779297</ele>
        <time>2012-07-15T08:14:37.000Z</time>
      </trkpt>
      <trkpt lat="48.11669" lon="7.10361">
        <ele>984.20001220703</ele>
        <time>2012-07-15T08:14:43.000Z</time>
      </trkpt>
      <trkpt lat="48.11681" lon="7.10383">
        <ele>982.40002441406</ele>
        <time>2012-07-15T08:14:48.000Z</time>
      </trkpt>
      <trkpt lat="48.11689" lon="7.10402">
        <ele>980.79998779297</ele>
        <time>2012-07-15T08:14:52.000Z</time>
      </trkpt>
      <trkpt lat="48.11704" lon="7.10443">
        <ele>978.40002441406</ele>
        <time>2012-07-15T08:14:59.000Z</time>
      </trkpt>
      <trkpt lat="48.11717" lon="7.10484">
        <ele>975.40002441406</ele>
        <time>2012-07-15T08:15:06.000Z</time>
      </trkpt>
      <trkpt lat="48.11722" lon="7.10501">
        <ele>973.20001220703</ele>
        <time>2012-07-15T08:15:09.000Z</time>
      </trkpt>
      <trkpt lat="48.11718" lon="7.10508">
        <ele>971.20001220703</ele>
        <time>2012-07-15T08:15:12.000Z</time>
      </trkpt>
      <trkpt lat="48.11716" lon="7.10505">
        <ele>970.59997558594</ele>
        <time>2012-07-15T08:15:13.000Z</time>
      </trkpt>
      <trkpt lat="48.11687" lon="7.10472">
        <ele>968.59997558594</ele>
        <time>2012-07-15T08:15:19.000Z</time>
      </trkpt>
      <trkpt lat="48.11645" lon="7.10429">
        <ele>966.40002441406</ele>
        <time>2012-07-15T08:15:25.000Z</time>
      </trkpt>
      <trkpt lat="48.11603" lon="7.10387">
        <ele>962.79998779297</ele>
        <time>2012-07-15T08:15:30.000Z</time>
      </trkpt>
      <trkpt lat="48.11553" lon="7.10351">
        <ele>959</ele>
        <time>2012-07-15T08:15:35.000Z</time>
      </trkpt>
      <trkpt lat="48.11514" lon="7.10332">
        <ele>956</ele>
        <time>2012-07-15T08:15:39.000Z</time>
      </trkpt>
      <trkpt lat="48.11477" lon="7.10335">
        <ele>954</ele>
        <time>2012-07-15T08:15:43.000Z</time>
      </trkpt>
      <trkpt lat="48.11457" lon="7.10339">
        <ele>953.20001220703</ele>
        <time>2012-07-15T08:15:45.000Z</time>
      </trkpt>
      <trkpt lat="48.1142" lon="7.10327">
        <ele>952.40002441406</ele>
        <time>2012-07-15T08:15:49.000Z</time>
      </trkpt>
      <trkpt lat="48.11413" lon="7.1032">
        <ele>952</ele>
        <time>2012-07-15T08:15:50.000Z</time>
      </trkpt>
      <trkpt lat="48.11361" lon="7.10269">
        <ele>949.40002441406</ele>
        <time>2012-07-15T08:15:57.000Z</time>
      </trkpt>
      <trkpt lat="48.11327" lon="7.10218">
        <ele>948.79998779297</ele>
        <time>2012-07-15T08:16:03.000Z</time>
      </trkpt>
      <trkpt lat="48.11301" lon="7.1017">
        <ele>947.59997558594</ele>
        <time>2012-07-15T08:16:08.000Z</time>
      </trkpt>
      <trkpt lat="48.11286" lon="7.10129">
        <ele>947</ele>
        <time>2012-07-15T08:16:12.000Z</time>
      </trkpt>
      <trkpt lat="48.11269" lon="7.10045">
        <ele>945</ele>
        <time>2012-07-15T08:16:20.000Z</time>
      </trkpt>
      <trkpt lat="48.11266" lon="7.10014">
        <ele>944</ele>
        <time>2012-07-15T08:16:23.000Z</time>
      </trkpt>
      <trkpt lat="48.11251" lon="7.0999">
        <ele>942.20001220703</ele>
        <time>2012-07-15T08:16:27.000Z</time>
      </trkpt>
      <trkpt lat="48.11227" lon="7.09995">
        <ele>941.20001220703</ele>
        <time>2012-07-15T08:16:31.000Z</time>
      </trkpt>
      <trkpt lat="48.11217" lon="7.10013">
        <ele>940.59997558594</ele>
        <time>2012-07-15T08:16:34.000Z</time>
      </trkpt>
      <trkpt lat="48.11217" lon="7.10029">
        <ele>940.20001220703</ele>
        <time>2012-07-15T08:16:36.000Z</time>
      </trkpt>
      <trkpt lat="48.11218" lon="7.10095">
        <ele>941.40002441406</ele>
        <time>2012-07-15T08:16:45.000Z</time>
      </trkpt>
      <trkpt lat="48.11216" lon="7.10102">
        <ele>941.59997558594</ele>
        <time>2012-07-15T08:16:46.000Z</time>
      </trkpt>
      <trkpt lat="48.11201" lon="7.10143">
        <ele>944</ele>
        <time>2012-07-15T08:16:53.000Z</time>
      </trkpt>
      <trkpt lat="48.11198" lon="7.10148">
        <ele>944.59997558594</ele>
        <time>2012-07-15T08:16:54.000Z</time>
      </trkpt>
      <trkpt lat="48.11181" lon="7.10174">
        <ele>946.59997558594</ele>
        <time>2012-07-15T08:17:00.000Z</time>
      </trkpt>
      <trkpt lat="48.11158" lon="7.10201">
        <ele>948.59997558594</ele>
        <time>2012-07-15T08:17:08.000Z</time>
      </trkpt>
      <trkpt lat="48.1115" lon="7.1021">
        <ele>949.59997558594</ele>
        <time>2012-07-15T08:17:12.000Z</time>
      </trkpt>
      <trkpt lat="48.11139" lon="7.10226">
        <ele>951.20001220703</ele>
        <time>2012-07-15T08:17:18.000Z</time>
      </trkpt>
      <trkpt lat="48.11128" lon="7.10237">
        <ele>952.40002441406</ele>
        <time>2012-07-15T08:17:23.000Z</time>
      </trkpt>
      <trkpt lat="48.11118" lon="7.10249">
        <ele>953.40002441406</ele>
        <time>2012-07-15T08:17:29.000Z</time>
      </trkpt>
      <trkpt lat="48.11108" lon="7.10255">
        <ele>954.40002441406</ele>
        <time>2012-07-15T08:17:34.000Z</time>
      </trkpt>
      <trkpt lat="48.11107" lon="7.10256">
        <ele>954.79998779297</ele>
        <time>2012-07-15T08:17:35.000Z</time>
      </trkpt>
      <trkpt lat="48.11096" lon="7.10266">
        <ele>956.59997558594</ele>
        <time>2012-07-15T08:17:40.000Z</time>
      </trkpt>
      <trkpt lat="48.11093" lon="7.10268">
        <ele>957</ele>
        <time>2012-07-15T08:17:41.000Z</time>
      </trkpt>
      <trkpt lat="48.11072" lon="7.10278">
        <ele>958.79998779297</ele>
        <time>2012-07-15T08:17:48.000Z</time>
      </trkpt>
      <trkpt lat="48.11042" lon="7.10283">
        <ele>959.20001220703</ele>
        <time>2012-07-15T08:17:55.000Z</time>
      </trkpt>
      <trkpt lat="48.11016" lon="7.10296">
        <ele>959.40002441406</ele>
        <time>2012-07-15T08:18:02.000Z</time>
      </trkpt>
      <trkpt lat="48.10981" lon="7.10311">
        <ele>959</ele>
        <time>2012-07-15T08:18:10.000Z</time>
      </trkpt>
      <trkpt lat="48.10977" lon="7.10312">
        <ele>959</ele>
        <time>2012-07-15T08:18:11.000Z</time>
      </trkpt>
      <trkpt lat="48.10935" lon="7.10318">
        <ele>959.20001220703</ele>
        <time>2012-07-15T08:18:20.000Z</time>
      </trkpt>
      <trkpt lat="48.10897" lon="7.10325">
        <ele>958</ele>
        <time>2012-07-15T08:18:28.000Z</time>
      </trkpt>
      <trkpt lat="48.10871" lon="7.10331">
        <ele>958.20001220703</ele>
        <time>2012-07-15T08:18:34.000Z</time>
      </trkpt>
      <trkpt lat="48.10834" lon="7.10336">
        <ele>959</ele>
        <time>2012-07-15T08:18:42.000Z</time>
      </trkpt>
      <trkpt lat="48.10806" lon="7.10337">
        <ele>960</ele>
        <time>2012-07-15T08:18:48.000Z</time>
      </trkpt>
      <trkpt lat="48.10787" lon="7.10332">
        <ele>960.59997558594</ele>
        <time>2012-07-15T08:18:52.000Z</time>
      </trkpt>
      <trkpt lat="48.1076" lon="7.1032">
        <ele>961.59997558594</ele>
        <time>2012-07-15T08:18:58.000Z</time>
      </trkpt>
      <trkpt lat="48.10727" lon="7.10322">
        <ele>961.79998779297</ele>
        <time>2012-07-15T08:19:05.000Z</time>
      </trkpt>
      <trkpt lat="48.10693" lon="7.10328">
        <ele>962.40002441406</ele>
        <time>2012-07-15T08:19:13.000Z</time>
      </trkpt>
      <trkpt lat="48.10675" lon="7.1033">
        <ele>962.79998779297</ele>
        <time>2012-07-15T08:19:18.000Z</time>
      </trkpt>
      <trkpt lat="48.10646" lon="7.10324">
        <ele>963.20001220703</ele>
        <time>2012-07-15T08:19:24.000Z</time>
      </trkpt>
      <trkpt lat="48.10618" lon="7.10311">
        <ele>963.79998779297</ele>
        <time>2012-07-15T08:19:30.000Z</time>
      </trkpt>
      <trkpt lat="48.10613" lon="7.10309">
        <ele>963.79998779297</ele>
        <time>2012-07-15T08:19:31.000Z</time>
      </trkpt>
      <trkpt lat="48.10588" lon="7.10311">
        <ele>963.79998779297</ele>
        <time>2012-07-15T08:19:36.000Z</time>
      </trkpt>
      <trkpt lat="48.10576" lon="7.10321">
        <ele>963.79998779297</ele>
        <time>2012-07-15T08:19:39.000Z</time>
      </trkpt>
      <trkpt lat="48.10568" lon="7.10329">
        <ele>963.59997558594</ele>
        <time>2012-07-15T08:19:41.000Z</time>
      </trkpt>
      <trkpt lat="48.10552" lon="7.1034">
        <ele>963.20001220703</ele>
        <time>2012-07-15T08:19:44.000Z</time>
      </trkpt>
      <trkpt lat="48.10515" lon="7.10369">
        <ele>962.40002441406</ele>
        <time>2012-07-15T08:19:50.000Z</time>
      </trkpt>
      <trkpt lat="48.10502" lon="7.1038">
        <ele>962</ele>
        <time>2012-07-15T08:19:52.000Z</time>
      </trkpt>
      <trkpt lat="48.10469" lon="7.10396">
        <ele>960.79998779297</ele>
        <time>2012-07-15T08:19:57.000Z</time>
      </trkpt>
      <trkpt lat="48.10441" lon="7.10408">
        <ele>959.79998779297</ele>
        <time>2012-07-15T08:20:01.000Z</time>
      </trkpt>
      <trkpt lat="48.104" lon="7.10444">
        <ele>958</ele>
        <time>2012-07-15T08:20:07.000Z</time>
      </trkpt>
      <trkpt lat="48.10369" lon="7.10477">
        <ele>956.20001220703</ele>
        <time>2012-07-15T08:20:12.000Z</time>
      </trkpt>
      <trkpt lat="48.10333" lon="7.1052">
        <ele>953.20001220703</ele>
        <time>2012-07-15T08:20:18.000Z</time>
      </trkpt>
      <trkpt lat="48.1029" lon="7.10567">
        <ele>951</ele>
        <time>2012-07-15T08:20:25.000Z</time>
      </trkpt>
      <trkpt lat="48.1026" lon="7.10597">
        <ele>949.40002441406</ele>
        <time>2012-07-15T08:20:30.000Z</time>
      </trkpt>
      <trkpt lat="48.10224" lon="7.1064">
        <ele>947.59997558594</ele>
        <time>2012-07-15T08:20:37.000Z</time>
      </trkpt>
      <trkpt lat="48.10194" lon="7.10676">
        <ele>947.20001220703</ele>
        <time>2012-07-15T08:20:43.000Z</time>
      </trkpt>
      <trkpt lat="48.10171" lon="7.10696">
        <ele>946.79998779297</ele>
        <time>2012-07-15T08:20:47.000Z</time>
      </trkpt>
      <trkpt lat="48.10144" lon="7.10733">
        <ele>946.59997558594</ele>
        <time>2012-07-15T08:20:53.000Z</time>
      </trkpt>
      <trkpt lat="48.1011" lon="7.10784">
        <ele>946.40002441406</ele>
        <time>2012-07-15T08:21:01.000Z</time>
      </trkpt>
      <trkpt lat="48.10081" lon="7.10825">
        <ele>944.79998779297</ele>
        <time>2012-07-15T08:21:07.000Z</time>
      </trkpt>
      <trkpt lat="48.10076" lon="7.10834">
        <ele>944</ele>
        <time>2012-07-15T08:21:08.000Z</time>
      </trkpt>
      <trkpt lat="48.10067" lon="7.10886">
        <ele>939.20001220703</ele>
        <time>2012-07-15T08:21:12.000Z</time>
      </trkpt>
      <trkpt lat="48.10065" lon="7.10952">
        <ele>934.59997558594</ele>
        <time>2012-07-15T08:21:16.000Z</time>
      </trkpt>
      <trkpt lat="48.10065" lon="7.10969">
        <ele>933</ele>
        <time>2012-07-15T08:21:17.000Z</time>
      </trkpt>
      <trkpt lat="48.10081" lon="7.11034">
        <ele>927</ele>
        <time>2012-07-15T08:21:21.000Z</time>
      </trkpt>
      <trkpt lat="48.10116" lon="7.11122">
        <ele>918.20001220703</ele>
        <time>2012-07-15T08:21:27.000Z</time>
      </trkpt>
      <trkpt lat="48.10155" lon="7.1121">
        <ele>906.20001220703</ele>
        <time>2012-07-15T08:21:33.000Z</time>
      </trkpt>
      <trkpt lat="48.10175" lon="7.11264">
        <ele>897.40002441406</ele>
        <time>2012-07-15T08:21:37.000Z</time>
      </trkpt>
      <trkpt lat="48.10178" lon="7.11274">
        <ele>895.20001220703</ele>
        <time>2012-07-15T08:21:38.000Z</time>
      </trkpt>
      <trkpt lat="48.1018" lon="7.11287">
        <ele>891.59997558594</ele>
        <time>2012-07-15T08:21:41.000Z</time>
      </trkpt>
      <trkpt lat="48.10177" lon="7.11285">
        <ele>887.59997558594</ele>
        <time>2012-07-15T08:21:45.000Z</time>
      </trkpt>
      <trkpt lat="48.10176" lon="7.11283">
        <ele>887.20001220703</ele>
        <time>2012-07-15T08:21:47.000Z</time>
      </trkpt>
      <trkpt lat="48.1017" lon="7.11281">
        <ele>887.40002441406</ele>
        <time>2012-07-15T08:21:51.000Z</time>
      </trkpt>
      <trkpt lat="48.10156" lon="7.11283">
        <ele>888.20001220703</ele>
        <time>2012-07-15T08:21:58.000Z</time>
      </trkpt>
      <trkpt lat="48.10134" lon="7.11282">
        <ele>889.20001220703</ele>
        <time>2012-07-15T08:22:05.000Z</time>
      </trkpt>
      <trkpt lat="48.1011" lon="7.11279">
        <ele>890.79998779297</ele>
        <time>2012-07-15T08:22:13.000Z</time>
      </trkpt>
      <trkpt lat="48.10085" lon="7.11278">
        <ele>892.59997558594</ele>
        <time>2012-07-15T08:22:21.000Z</time>
      </trkpt>
      <trkpt lat="48.10063" lon="7.11275">
        <ele>893.40002441406</ele>
        <time>2012-07-15T08:22:27.000Z</time>
      </trkpt>
      <trkpt lat="48.10031" lon="7.11265">
        <ele>893.20001220703</ele>
        <time>2012-07-15T08:22:33.000Z</time>
      </trkpt>
      <trkpt lat="48.0999" lon="7.11255">
        <ele>891.59997558594</ele>
        <time>2012-07-15T08:22:40.000Z</time>
      </trkpt>
      <trkpt lat="48.09958" lon="7.11241">
        <ele>890.40002441406</ele>
        <time>2012-07-15T08:22:45.000Z</time>
      </trkpt>
      <trkpt lat="48.09938" lon="7.11224">
        <ele>889.40002441406</ele>
        <time>2012-07-15T08:22:49.000Z</time>
      </trkpt>
      <trkpt lat="48.09906" lon="7.11204">
        <ele>887.40002441406</ele>
        <time>2012-07-15T08:22:55.000Z</time>
      </trkpt>
      <trkpt lat="48.09873" lon="7.11192">
        <ele>886.59997558594</ele>
        <time>2012-07-15T08:23:01.000Z</time>
      </trkpt>
      <trkpt lat="48.09856" lon="7.11186">
        <ele>887.20001220703</ele>
        <time>2012-07-15T08:23:06.000Z</time>
      </trkpt>
      <trkpt lat="48.0984" lon="7.11173">
        <ele>888.59997558594</ele>
        <time>2012-07-15T08:23:12.000Z</time>
      </trkpt>
      <trkpt lat="48.09829" lon="7.1115">
        <ele>890.20001220703</ele>
        <time>2012-07-15T08:23:19.000Z</time>
      </trkpt>
      <trkpt lat="48.09813" lon="7.11137">
        <ele>892</ele>
        <time>2012-07-15T08:23:26.000Z</time>
      </trkpt>
      <trkpt lat="48.09791" lon="7.11136">
        <ele>894.40002441406</ele>
        <time>2012-07-15T08:23:35.000Z</time>
      </trkpt>
      <trkpt lat="48.09769" lon="7.11138">
        <ele>896.79998779297</ele>
        <time>2012-07-15T08:23:45.000Z</time>
      </trkpt>
      <trkpt lat="48.09754" lon="7.11144">
        <ele>898.79998779297</ele>
        <time>2012-07-15T08:23:53.000Z</time>
      </trkpt>
      <trkpt lat="48.09737" lon="7.11145">
        <ele>901.40002441406</ele>
        <time>2012-07-15T08:24:01.000Z</time>
      </trkpt>
      <trkpt lat="48.0972" lon="7.11146">
        <ele>903</ele>
        <time>2012-07-15T08:24:09.000Z</time>
      </trkpt>
      <trkpt lat="48.09704" lon="7.11149">
        <ele>904.59997558594</ele>
        <time>2012-07-15T08:24:17.000Z</time>
      </trkpt>
      <trkpt lat="48.09681" lon="7.11155">
        <ele>906.40002441406</ele>
        <time>2012-07-15T08:24:26.000Z</time>
      </trkpt>
      <trkpt lat="48.09655" lon="7.11158">
        <ele>907.40002441406</ele>
        <time>2012-07-15T08:24:35.000Z</time>
      </trkpt>
      <trkpt lat="48.09617" lon="7.11157">
        <ele>908</ele>
        <time>2012-07-15T08:24:46.000Z</time>
      </trkpt>
      <trkpt lat="48.09584" lon="7.11153">
        <ele>908.20001220703</ele>
        <time>2012-07-15T08:24:54.000Z</time>
      </trkpt>
      <trkpt lat="48.09544" lon="7.11149">
        <ele>908.20001220703</ele>
        <time>2012-07-15T08:25:03.000Z</time>
      </trkpt>
      <trkpt lat="48.09501" lon="7.11152">
        <ele>908.20001220703</ele>
        <time>2012-07-15T08:25:12.000Z</time>
      </trkpt>
      <trkpt lat="48.09467" lon="7.11159">
        <ele>908.20001220703</ele>
        <time>2012-07-15T08:25:20.000Z</time>
      </trkpt>
      <trkpt lat="48.09439" lon="7.1116">
        <ele>908.40002441406</ele>
        <time>2012-07-15T08:25:28.000Z</time>
      </trkpt>
      <trkpt lat="48.09413" lon="7.11164">
        <ele>909</ele>
        <time>2012-07-15T08:25:36.000Z</time>
      </trkpt>
      <trkpt lat="48.09389" lon="7.1116">
        <ele>910.20001220703</ele>
        <time>2012-07-15T08:25:44.000Z</time>
      </trkpt>
      <trkpt lat="48.09369" lon="7.11142">
        <ele>913.20001220703</ele>
        <time>2012-07-15T08:25:54.000Z</time>
      </trkpt>
      <trkpt lat="48.09353" lon="7.11129">
        <ele>915</ele>
        <time>2012-07-15T08:26:02.000Z</time>
      </trkpt>
      <trkpt lat="48.09338" lon="7.11125">
        <ele>915.79998779297</ele>
        <time>2012-07-15T08:26:08.000Z</time>
      </trkpt>
      <trkpt lat="48.09325" lon="7.11125">
        <ele>917.20001220703</ele>
        <time>2012-07-15T08:26:15.000Z</time>
      </trkpt>
      <trkpt lat="48.09316" lon="7.11131">
        <ele>918.40002441406</ele>
        <time>2012-07-15T08:26:21.000Z</time>
      </trkpt>
      <trkpt lat="48.09298" lon="7.11131">
        <ele>920.79998779297</ele>
        <time>2012-07-15T08:26:31.000Z</time>
      </trkpt>
      <trkpt lat="48.09286" lon="7.11126">
        <ele>922.59997558594</ele>
        <time>2012-07-15T08:26:39.000Z</time>
      </trkpt>
      <trkpt lat="48.09284" lon="7.11126">
        <ele>923</ele>
        <time>2012-07-15T08:26:41.000Z</time>
      </trkpt>
      <trkpt lat="48.09278" lon="7.11123">
        <ele>924</ele>
        <time>2012-07-15T08:26:46.000Z</time>
      </trkpt>
      <trkpt lat="48.09263" lon="7.11123">
        <ele>926</ele>
        <time>2012-07-15T08:26:55.000Z</time>
      </trkpt>
      <trkpt lat="48.09251" lon="7.11128">
        <ele>928</ele>
        <time>2012-07-15T08:27:03.000Z</time>
      </trkpt>
      <trkpt lat="48.0924" lon="7.11142">
        <ele>929.40002441406</ele>
        <time>2012-07-15T08:27:12.000Z</time>
      </trkpt>
      <trkpt lat="48.09233" lon="7.11151">
        <ele>930</ele>
        <time>2012-07-15T08:27:18.000Z</time>
      </trkpt>
      <trkpt lat="48.09224" lon="7.11163">
        <ele>930.20001220703</ele>
        <time>2012-07-15T08:27:24.000Z</time>
      </trkpt>
      <trkpt lat="48.0921" lon="7.11178">
        <ele>930.20001220703</ele>
        <time>2012-07-15T08:27:32.000Z</time>
      </trkpt>
      <trkpt lat="48.09196" lon="7.11196">
        <ele>931.40002441406</ele>
        <time>2012-07-15T08:27:41.000Z</time>
      </trkpt>
      <trkpt lat="48.09184" lon="7.11205">
        <ele>932.40002441406</ele>
        <time>2012-07-15T08:27:48.000Z</time>
      </trkpt>
      <trkpt lat="48.09172" lon="7.11217">
        <ele>934</ele>
        <time>2012-07-15T08:27:56.000Z</time>
      </trkpt>
      <trkpt lat="48.0916" lon="7.11226">
        <ele>934.79998779297</ele>
        <time>2012-07-15T08:28:02.000Z</time>
      </trkpt>
      <trkpt lat="48.09148" lon="7.11233">
        <ele>936.20001220703</ele>
        <time>2012-07-15T08:28:09.000Z</time>
      </trkpt>
      <trkpt lat="48.09135" lon="7.11235">
        <ele>937</ele>
        <time>2012-07-15T08:28:15.000Z</time>
      </trkpt>
      <trkpt lat="48.09121" lon="7.11227">
        <ele>937.79998779297</ele>
        <time>2012-07-15T08:28:23.000Z</time>
      </trkpt>
      <trkpt lat="48.0911" lon="7.11218">
        <ele>938.59997558594</ele>
        <time>2012-07-15T08:28:29.000Z</time>
      </trkpt>
      <trkpt lat="48.091" lon="7.11219">
        <ele>939.40002441406</ele>
        <time>2012-07-15T08:28:33.000Z</time>
      </trkpt>
      <trkpt lat="48.09081" lon="7.11223">
        <ele>939.40002441406</ele>
        <time>2012-07-15T08:28:39.000Z</time>
      </trkpt>
      <trkpt lat="48.09064" lon="7.11214">
        <ele>939.20001220703</ele>
        <time>2012-07-15T08:28:43.000Z</time>
      </trkpt>
      <trkpt lat="48.09058" lon="7.11204">
        <ele>938.40002441406</ele>
        <time>2012-07-15T08:28:45.000Z</time>
      </trkpt>
      <trkpt lat="48.09041" lon="7.11178">
        <ele>936.59997558594</ele>
        <time>2012-07-15T08:28:51.000Z</time>
      </trkpt>
      <trkpt lat="48.09016" lon="7.11131">
        <ele>935.79998779297</ele>
        <time>2012-07-15T08:29:00.000Z</time>
      </trkpt>
      <trkpt lat="48.09002" lon="7.11107">
        <ele>934.59997558594</ele>
        <time>2012-07-15T08:29:05.000Z</time>
      </trkpt>
      <trkpt lat="48.08995" lon="7.11096">
        <ele>934</ele>
        <time>2012-07-15T08:29:07.000Z</time>
      </trkpt>
      <trkpt lat="48.08977" lon="7.11065">
        <ele>931.20001220703</ele>
        <time>2012-07-15T08:29:12.000Z</time>
      </trkpt>
      <trkpt lat="48.08969" lon="7.11053">
        <ele>930</ele>
        <time>2012-07-15T08:29:14.000Z</time>
      </trkpt>
      <trkpt lat="48.08946" lon="7.11025">
        <ele>928.20001220703</ele>
        <time>2012-07-15T08:29:19.000Z</time>
      </trkpt>
      <trkpt lat="48.08911" lon="7.11">
        <ele>925</ele>
        <time>2012-07-15T08:29:26.000Z</time>
      </trkpt>
      <trkpt lat="48.0889" lon="7.10969">
        <ele>922.79998779297</ele>
        <time>2012-07-15T08:29:31.000Z</time>
      </trkpt>
      <trkpt lat="48.08888" lon="7.10963">
        <ele>922.40002441406</ele>
        <time>2012-07-15T08:29:32.000Z</time>
      </trkpt>
      <trkpt lat="48.08868" lon="7.10917">
        <ele>918.79998779297</ele>
        <time>2012-07-15T08:29:39.000Z</time>
      </trkpt>
      <trkpt lat="48.08856" lon="7.10901">
        <ele>917</ele>
        <time>2012-07-15T08:29:43.000Z</time>
      </trkpt>
      <trkpt lat="48.08849" lon="7.10913">
        <ele>915.20001220703</ele>
        <time>2012-07-15T08:29:46.000Z</time>
      </trkpt>
      <trkpt lat="48.08845" lon="7.10948">
        <ele>912.59997558594</ele>
        <time>2012-07-15T08:29:52.000Z</time>
      </trkpt>
      <trkpt lat="48.08842" lon="7.10961">
        <ele>912.20001220703</ele>
        <time>2012-07-15T08:29:54.000Z</time>
      </trkpt>
      <trkpt lat="48.08844" lon="7.11002">
        <ele>912</ele>
        <time>2012-07-15T08:30:00.000Z</time>
      </trkpt>
      <trkpt lat="48.08845" lon="7.11009">
        <ele>911.79998779297</ele>
        <time>2012-07-15T08:30:01.000Z</time>
      </trkpt>
      <trkpt lat="48.08841" lon="7.11041">
        <ele>911.40002441406</ele>
        <time>2012-07-15T08:30:05.000Z</time>
      </trkpt>
      <trkpt lat="48.08836" lon="7.11058">
        <ele>910.79998779297</ele>
        <time>2012-07-15T08:30:07.000Z</time>
      </trkpt>
      <trkpt lat="48.08833" lon="7.111">
        <ele>909.59997558594</ele>
        <time>2012-07-15T08:30:11.000Z</time>
      </trkpt>
      <trkpt lat="48.08835" lon="7.1111">
        <ele>909</ele>
        <time>2012-07-15T08:30:12.000Z</time>
      </trkpt>
      <trkpt lat="48.08855" lon="7.11172">
        <ele>906</ele>
        <time>2012-07-15T08:30:18.000Z</time>
      </trkpt>
      <trkpt lat="48.08879" lon="7.11203">
        <ele>903.40002441406</ele>
        <time>2012-07-15T08:30:22.000Z</time>
      </trkpt>
      <trkpt lat="48.08905" lon="7.11236">
        <ele>900.59997558594</ele>
        <time>2012-07-15T08:30:26.000Z</time>
      </trkpt>
      <trkpt lat="48.08915" lon="7.1127">
        <ele>898.40002441406</ele>
        <time>2012-07-15T08:30:29.000Z</time>
      </trkpt>
      <trkpt lat="48.08917" lon="7.11296">
        <ele>896.59997558594</ele>
        <time>2012-07-15T08:30:31.000Z</time>
      </trkpt>
      <trkpt lat="48.08915" lon="7.11322">
        <ele>895.59997558594</ele>
        <time>2012-07-15T08:30:33.000Z</time>
      </trkpt>
      <trkpt lat="48.08905" lon="7.11358">
        <ele>893</ele>
        <time>2012-07-15T08:30:36.000Z</time>
      </trkpt>
      <trkpt lat="48.08873" lon="7.11437">
        <ele>887</ele>
        <time>2012-07-15T08:30:42.000Z</time>
      </trkpt>
      <trkpt lat="48.08852" lon="7.11476">
        <ele>883.59997558594</ele>
        <time>2012-07-15T08:30:45.000Z</time>
      </trkpt>
      <trkpt lat="48.08818" lon="7.1154">
        <ele>877.79998779297</ele>
        <time>2012-07-15T08:30:50.000Z</time>
      </trkpt>
      <trkpt lat="48.08798" lon="7.11585">
        <ele>873.40002441406</ele>
        <time>2012-07-15T08:30:54.000Z</time>
      </trkpt>
      <trkpt lat="48.08791" lon="7.11606">
        <ele>870.40002441406</ele>
        <time>2012-07-15T08:30:57.000Z</time>
      </trkpt>
      <trkpt lat="48.08789" lon="7.11608">
        <ele>869.79998779297</ele>
        <time>2012-07-15T08:30:59.000Z</time>
      </trkpt>
      <trkpt lat="48.08791" lon="7.11608">
        <ele>868.59997558594</ele>
        <time>2012-07-15T08:31:02.000Z</time>
      </trkpt>
      <trkpt lat="48.08791" lon="7.11608">
        <ele>868.40002441406</ele>
        <time>2012-07-15T08:31:03.000Z</time>
      </trkpt>
      <trkpt lat="48.08791" lon="7.11629">
        <ele>868.40002441406</ele>
        <time>2012-07-15T08:31:09.000Z</time>
      </trkpt>
      <trkpt lat="48.08793" lon="7.11634">
        <ele>868.40002441406</ele>
        <time>2012-07-15T08:31:10.000Z</time>
      </trkpt>
      <trkpt lat="48.0881" lon="7.11683">
        <ele>868</ele>
        <time>2012-07-15T08:31:18.000Z</time>
      </trkpt>
      <trkpt lat="48.08816" lon="7.11696">
        <ele>867.79998779297</ele>
        <time>2012-07-15T08:31:20.000Z</time>
      </trkpt>
      <trkpt lat="48.08836" lon="7.11716">
        <ele>867.59997558594</ele>
        <time>2012-07-15T08:31:24.000Z</time>
      </trkpt>
      <trkpt lat="48.08889" lon="7.11748">
        <ele>866.59997558594</ele>
        <time>2012-07-15T08:31:33.000Z</time>
      </trkpt>
      <trkpt lat="48.08921" lon="7.11769">
        <ele>865.59997558594</ele>
        <time>2012-07-15T08:31:39.000Z</time>
      </trkpt>
      <trkpt lat="48.08924" lon="7.11773">
        <ele>865.40002441406</ele>
        <time>2012-07-15T08:31:40.000Z</time>
      </trkpt>
      <trkpt lat="48.08919" lon="7.11794">
        <ele>864.40002441406</ele>
        <time>2012-07-15T08:31:44.000Z</time>
      </trkpt>
      <trkpt lat="48.08903" lon="7.1182">
        <ele>862.79998779297</ele>
        <time>2012-07-15T08:31:48.000Z</time>
      </trkpt>
      <trkpt lat="48.08875" lon="7.11842">
        <ele>861</ele>
        <time>2012-07-15T08:31:53.000Z</time>
      </trkpt>
      <trkpt lat="48.08846" lon="7.11869">
        <ele>860.20001220703</ele>
        <time>2012-07-15T08:31:59.000Z</time>
      </trkpt>
      <trkpt lat="48.08818" lon="7.11908">
        <ele>860.40002441406</ele>
        <time>2012-07-15T08:32:06.000Z</time>
      </trkpt>
      <trkpt lat="48.08802" lon="7.1193">
        <ele>860.59997558594</ele>
        <time>2012-07-15T08:32:11.000Z</time>
      </trkpt>
      <trkpt lat="48.08796" lon="7.11945">
        <ele>861</ele>
        <time>2012-07-15T08:32:14.000Z</time>
      </trkpt>
      <trkpt lat="48.08786" lon="7.11967">
        <ele>861.40002441406</ele>
        <time>2012-07-15T08:32:19.000Z</time>
      </trkpt>
      <trkpt lat="48.08782" lon="7.11976">
        <ele>861.79998779297</ele>
        <time>2012-07-15T08:32:21.000Z</time>
      </trkpt>
      <trkpt lat="48.08768" lon="7.12022">
        <ele>863</ele>
        <time>2012-07-15T08:32:29.000Z</time>
      </trkpt>
      <trkpt lat="48.08764" lon="7.12039">
        <ele>863.40002441406</ele>
        <time>2012-07-15T08:32:32.000Z</time>
      </trkpt>
      <trkpt lat="48.0876" lon="7.1207">
        <ele>863.79998779297</ele>
        <time>2012-07-15T08:32:37.000Z</time>
      </trkpt>
      <trkpt lat="48.0876" lon="7.12098">
        <ele>864</ele>
        <time>2012-07-15T08:32:41.000Z</time>
      </trkpt>
      <trkpt lat="48.08765" lon="7.12155">
        <ele>864.20001220703</ele>
        <time>2012-07-15T08:32:49.000Z</time>
      </trkpt>
      <trkpt lat="48.08767" lon="7.12194">
        <ele>863.79998779297</ele>
        <time>2012-07-15T08:32:54.000Z</time>
      </trkpt>
      <trkpt lat="48.08764" lon="7.12254">
        <ele>862.79998779297</ele>
        <time>2012-07-15T08:33:01.000Z</time>
      </trkpt>
      <trkpt lat="48.0876" lon="7.12298">
        <ele>862.20001220703</ele>
        <time>2012-07-15T08:33:06.000Z</time>
      </trkpt>
      <trkpt lat="48.08758" lon="7.12356">
        <ele>861.20001220703</ele>
        <time>2012-07-15T08:33:12.000Z</time>
      </trkpt>
      <trkpt lat="48.08756" lon="7.12385">
        <ele>860.59997558594</ele>
        <time>2012-07-15T08:33:15.000Z</time>
      </trkpt>
      <trkpt lat="48.08749" lon="7.12435">
        <ele>860.40002441406</ele>
        <time>2012-07-15T08:33:21.000Z</time>
      </trkpt>
      <trkpt lat="48.08736" lon="7.12479">
        <ele>861.59997558594</ele>
        <time>2012-07-15T08:33:28.000Z</time>
      </trkpt>
      <trkpt lat="48.08723" lon="7.12514">
        <ele>863.40002441406</ele>
        <time>2012-07-15T08:33:35.000Z</time>
      </trkpt>
      <trkpt lat="48.08705" lon="7.12562">
        <ele>865.40002441406</ele>
        <time>2012-07-15T08:33:45.000Z</time>
      </trkpt>
      <trkpt lat="48.08691" lon="7.12599">
        <ele>866.20001220703</ele>
        <time>2012-07-15T08:33:53.000Z</time>
      </trkpt>
      <trkpt lat="48.08684" lon="7.12618">
        <ele>866.40002441406</ele>
        <time>2012-07-15T08:33:57.000Z</time>
      </trkpt>
      <trkpt lat="48.0868" lon="7.12629">
        <ele>866.40002441406</ele>
        <time>2012-07-15T08:33:59.000Z</time>
      </trkpt>
      <trkpt lat="48.08661" lon="7.12671">
        <ele>866.40002441406</ele>
        <time>2012-07-15T08:34:07.000Z</time>
      </trkpt>
      <trkpt lat="48.08645" lon="7.12694">
        <ele>866.59997558594</ele>
        <time>2012-07-15T08:34:12.000Z</time>
      </trkpt>
      <trkpt lat="48.08623" lon="7.12739">
        <ele>866.40002441406</ele>
        <time>2012-07-15T08:34:20.000Z</time>
      </trkpt>
      <trkpt lat="48.08615" lon="7.12755">
        <ele>866.20001220703</ele>
        <time>2012-07-15T08:34:23.000Z</time>
      </trkpt>
      <trkpt lat="48.08589" lon="7.12792">
        <ele>866.40002441406</ele>
        <time>2012-07-15T08:34:31.000Z</time>
      </trkpt>
      <trkpt lat="48.0857" lon="7.12809">
        <ele>866.40002441406</ele>
        <time>2012-07-15T08:34:36.000Z</time>
      </trkpt>
      <trkpt lat="48.08543" lon="7.12826">
        <ele>866.20001220703</ele>
        <time>2012-07-15T08:34:43.000Z</time>
      </trkpt>
      <trkpt lat="48.08539" lon="7.12828">
        <ele>866.20001220703</ele>
        <time>2012-07-15T08:34:44.000Z</time>
      </trkpt>
      <trkpt lat="48.08518" lon="7.12833">
        <ele>866.40002441406</ele>
        <time>2012-07-15T08:34:49.000Z</time>
      </trkpt>
      <trkpt lat="48.08504" lon="7.12832">
        <ele>866.59997558594</ele>
        <time>2012-07-15T08:34:52.000Z</time>
      </trkpt>
      <trkpt lat="48.08473" lon="7.12833">
        <ele>867.20001220703</ele>
        <time>2012-07-15T08:34:59.000Z</time>
      </trkpt>
      <trkpt lat="48.08441" lon="7.12835">
        <ele>867.59997558594</ele>
        <time>2012-07-15T08:35:07.000Z</time>
      </trkpt>
      <trkpt lat="48.08415" lon="7.12833">
        <ele>868</ele>
        <time>2012-07-15T08:35:13.000Z</time>
      </trkpt>
      <trkpt lat="48.08393" lon="7.12827">
        <ele>868.59997558594</ele>
        <time>2012-07-15T08:35:19.000Z</time>
      </trkpt>
      <trkpt lat="48.08377" lon="7.12823">
        <ele>869.40002441406</ele>
        <time>2012-07-15T08:35:24.000Z</time>
      </trkpt>
      <trkpt lat="48.08357" lon="7.12823">
        <ele>871</ele>
        <time>2012-07-15T08:35:31.000Z</time>
      </trkpt>
      <trkpt lat="48.08335" lon="7.12825">
        <ele>873</ele>
        <time>2012-07-15T08:35:39.000Z</time>
      </trkpt>
      <trkpt lat="48.08309" lon="7.12837">
        <ele>874.59997558594</ele>
        <time>2012-07-15T08:35:47.000Z</time>
      </trkpt>
      <trkpt lat="48.08305" lon="7.12839">
        <ele>874.59997558594</ele>
        <time>2012-07-15T08:35:48.000Z</time>
      </trkpt>
      <trkpt lat="48.08286" lon="7.12865">
        <ele>874.40002441406</ele>
        <time>2012-07-15T08:35:53.000Z</time>
      </trkpt>
      <trkpt lat="48.08277" lon="7.12909">
        <ele>873.20001220703</ele>
        <time>2012-07-15T08:35:58.000Z</time>
      </trkpt>
      <trkpt lat="48.08277" lon="7.12928">
        <ele>872.79998779297</ele>
        <time>2012-07-15T08:36:00.000Z</time>
      </trkpt>
      <trkpt lat="48.08283" lon="7.13008">
        <ele>871.59997558594</ele>
        <time>2012-07-15T08:36:09.000Z</time>
      </trkpt>
      <trkpt lat="48.08285" lon="7.13041">
        <ele>870.40002441406</ele>
        <time>2012-07-15T08:36:12.000Z</time>
      </trkpt>
      <trkpt lat="48.083" lon="7.13084">
        <ele>868.20001220703</ele>
        <time>2012-07-15T08:36:16.000Z</time>
      </trkpt>
      <trkpt lat="48.08307" lon="7.13091">
        <ele>867.40002441406</ele>
        <time>2012-07-15T08:36:17.000Z</time>
      </trkpt>
      <trkpt lat="48.08345" lon="7.13133">
        <ele>863</ele>
        <time>2012-07-15T08:36:22.000Z</time>
      </trkpt>
      <trkpt lat="48.08369" lon="7.1318">
        <ele>860.79998779297</ele>
        <time>2012-07-15T08:36:26.000Z</time>
      </trkpt>
      <trkpt lat="48.08396" lon="7.13235">
        <ele>859</ele>
        <time>2012-07-15T08:36:31.000Z</time>
      </trkpt>
      <trkpt lat="48.08426" lon="7.13295">
        <ele>857.20001220703</ele>
        <time>2012-07-15T08:36:37.000Z</time>
      </trkpt>
      <trkpt lat="48.0845" lon="7.13341">
        <ele>855.59997558594</ele>
        <time>2012-07-15T08:36:42.000Z</time>
      </trkpt>
      <trkpt lat="48.08468" lon="7.13391">
        <ele>854.40002441406</ele>
        <time>2012-07-15T08:36:47.000Z</time>
      </trkpt>
      <trkpt lat="48.08489" lon="7.13455">
        <ele>854.40002441406</ele>
        <time>2012-07-15T08:36:54.000Z</time>
      </trkpt>
      <trkpt lat="48.08494" lon="7.13472">
        <ele>854.40002441406</ele>
        <time>2012-07-15T08:36:56.000Z</time>
      </trkpt>
      <trkpt lat="48.08515" lon="7.13515">
        <ele>854.40002441406</ele>
        <time>2012-07-15T08:37:02.000Z</time>
      </trkpt>
      <trkpt lat="48.08537" lon="7.13553">
        <ele>854.59997558594</ele>
        <time>2012-07-15T08:37:08.000Z</time>
      </trkpt>
      <trkpt lat="48.08558" lon="7.13583">
        <ele>854.59997558594</ele>
        <time>2012-07-15T08:37:13.000Z</time>
      </trkpt>
      <trkpt lat="48.08571" lon="7.13599">
        <ele>854.59997558594</ele>
        <time>2012-07-15T08:37:16.000Z</time>
      </trkpt>
      <trkpt lat="48.08578" lon="7.13611">
        <ele>854.59997558594</ele>
        <time>2012-07-15T08:37:18.000Z</time>
      </trkpt>
      <trkpt lat="48.08589" lon="7.13638">
        <ele>854.59997558594</ele>
        <time>2012-07-15T08:37:22.000Z</time>
      </trkpt>
      <trkpt lat="48.08599" lon="7.13656">
        <ele>854.79998779297</ele>
        <time>2012-07-15T08:37:25.000Z</time>
      </trkpt>
      <trkpt lat="48.08628" lon="7.13687">
        <ele>855.40002441406</ele>
        <time>2012-07-15T08:37:32.000Z</time>
      </trkpt>
      <trkpt lat="48.08632" lon="7.13691">
        <ele>855.40002441406</ele>
        <time>2012-07-15T08:37:33.000Z</time>
      </trkpt>
      <trkpt lat="48.08653" lon="7.13725">
        <ele>855.59997558594</ele>
        <time>2012-07-15T08:37:39.000Z</time>
      </trkpt>
      <trkpt lat="48.08656" lon="7.13731">
        <ele>855.59997558594</ele>
        <time>2012-07-15T08:37:40.000Z</time>
      </trkpt>
      <trkpt lat="48.08665" lon="7.13748">
        <ele>855.59997558594</ele>
        <time>2012-07-15T08:37:43.000Z</time>
      </trkpt>
      <trkpt lat="48.0869" lon="7.13774">
        <ele>855.40002441406</ele>
        <time>2012-07-15T08:37:49.000Z</time>
      </trkpt>
      <trkpt lat="48.0871" lon="7.13799">
        <ele>855.20001220703</ele>
        <time>2012-07-15T08:37:54.000Z</time>
      </trkpt>
      <trkpt lat="48.08733" lon="7.13828">
        <ele>855.20001220703</ele>
        <time>2012-07-15T08:38:00.000Z</time>
      </trkpt>
      <trkpt lat="48.08743" lon="7.13847">
        <ele>855.59997558594</ele>
        <time>2012-07-15T08:38:03.000Z</time>
      </trkpt>
      <trkpt lat="48.08755" lon="7.13871">
        <ele>855.79998779297</ele>
        <time>2012-07-15T08:38:07.000Z</time>
      </trkpt>
      <trkpt lat="48.08764" lon="7.13881">
        <ele>855.79998779297</ele>
        <time>2012-07-15T08:38:09.000Z</time>
      </trkpt>
      <trkpt lat="48.08794" lon="7.13929">
        <ele>855.79998779297</ele>
        <time>2012-07-15T08:38:17.000Z</time>
      </trkpt>
      <trkpt lat="48.088" lon="7.13942">
        <ele>855.79998779297</ele>
        <time>2012-07-15T08:38:19.000Z</time>
      </trkpt>
      <trkpt lat="48.08807" lon="7.13962">
        <ele>855.79998779297</ele>
        <time>2012-07-15T08:38:22.000Z</time>
      </trkpt>
      <trkpt lat="48.08811" lon="7.13976">
        <ele>855.79998779297</ele>
        <time>2012-07-15T08:38:24.000Z</time>
      </trkpt>
      <trkpt lat="48.08814" lon="7.1399">
        <ele>855.59997558594</ele>
        <time>2012-07-15T08:38:26.000Z</time>
      </trkpt>
      <trkpt lat="48.08819" lon="7.14028">
        <ele>855.40002441406</ele>
        <time>2012-07-15T08:38:31.000Z</time>
      </trkpt>
      <trkpt lat="48.08824" lon="7.14045">
        <ele>855.40002441406</ele>
        <time>2012-07-15T08:38:33.000Z</time>
      </trkpt>
      <trkpt lat="48.08831" lon="7.14072">
        <ele>855</ele>
        <time>2012-07-15T08:38:36.000Z</time>
      </trkpt>
      <trkpt lat="48.0883" lon="7.14127">
        <ele>853.20001220703</ele>
        <time>2012-07-15T08:38:41.000Z</time>
      </trkpt>
      <trkpt lat="48.08821" lon="7.14185">
        <ele>851.20001220703</ele>
        <time>2012-07-15T08:38:46.000Z</time>
      </trkpt>
      <trkpt lat="48.08818" lon="7.14197">
        <ele>850.79998779297</ele>
        <time>2012-07-15T08:38:47.000Z</time>
      </trkpt>
      <trkpt lat="48.08792" lon="7.14281">
        <ele>846.59997558594</ele>
        <time>2012-07-15T08:38:54.000Z</time>
      </trkpt>
      <trkpt lat="48.08782" lon="7.14317">
        <ele>844.59997558594</ele>
        <time>2012-07-15T08:38:57.000Z</time>
      </trkpt>
      <trkpt lat="48.08751" lon="7.14389">
        <ele>840.79998779297</ele>
        <time>2012-07-15T08:39:03.000Z</time>
      </trkpt>
      <trkpt lat="48.08746" lon="7.14401">
        <ele>840</ele>
        <time>2012-07-15T08:39:04.000Z</time>
      </trkpt>
      <trkpt lat="48.08707" lon="7.14468">
        <ele>835</ele>
        <time>2012-07-15T08:39:10.000Z</time>
      </trkpt>
      <trkpt lat="48.08677" lon="7.14526">
        <ele>830.79998779297</ele>
        <time>2012-07-15T08:39:15.000Z</time>
      </trkpt>
      <trkpt lat="48.08655" lon="7.14574">
        <ele>828.20001220703</ele>
        <time>2012-07-15T08:39:19.000Z</time>
      </trkpt>
      <trkpt lat="48.08649" lon="7.14606">
        <ele>825.79998779297</ele>
        <time>2012-07-15T08:39:22.000Z</time>
      </trkpt>
      <trkpt lat="48.08665" lon="7.14625">
        <ele>824.59997558594</ele>
        <time>2012-07-15T08:39:25.000Z</time>
      </trkpt>
      <trkpt lat="48.08683" lon="7.14638">
        <ele>823</ele>
        <time>2012-07-15T08:39:28.000Z</time>
      </trkpt>
      <trkpt lat="48.0873" lon="7.14659">
        <ele>820.20001220703</ele>
        <time>2012-07-15T08:39:35.000Z</time>
      </trkpt>
      <trkpt lat="48.08769" lon="7.14683">
        <ele>817.59997558594</ele>
        <time>2012-07-15T08:39:40.000Z</time>
      </trkpt>
      <trkpt lat="48.08778" lon="7.14688">
        <ele>816.79998779297</ele>
        <time>2012-07-15T08:39:41.000Z</time>
      </trkpt>
      <trkpt lat="48.08806" lon="7.1469">
        <ele>813.79998779297</ele>
        <time>2012-07-15T08:39:45.000Z</time>
      </trkpt>
      <trkpt lat="48.08812" lon="7.14686">
        <ele>813</ele>
        <time>2012-07-15T08:39:46.000Z</time>
      </trkpt>
      <trkpt lat="48.08835" lon="7.14671">
        <ele>811.59997558594</ele>
        <time>2012-07-15T08:39:49.000Z</time>
      </trkpt>
      <trkpt lat="48.0887" lon="7.1465">
        <ele>809</ele>
        <time>2012-07-15T08:39:54.000Z</time>
      </trkpt>
      <trkpt lat="48.0892" lon="7.14621">
        <ele>806.40002441406</ele>
        <time>2012-07-15T08:40:01.000Z</time>
      </trkpt>
      <trkpt lat="48.08966" lon="7.14598">
        <ele>803.59997558594</ele>
        <time>2012-07-15T08:40:08.000Z</time>
      </trkpt>
      <trkpt lat="48.09007" lon="7.14573">
        <ele>801.40002441406</ele>
        <time>2012-07-15T08:40:14.000Z</time>
      </trkpt>
      <trkpt lat="48.09052" lon="7.14547">
        <ele>798.79998779297</ele>
        <time>2012-07-15T08:40:20.000Z</time>
      </trkpt>
      <trkpt lat="48.09087" lon="7.14529">
        <ele>796.20001220703</ele>
        <time>2012-07-15T08:40:25.000Z</time>
      </trkpt>
      <trkpt lat="48.0912" lon="7.14505">
        <ele>794</ele>
        <time>2012-07-15T08:40:30.000Z</time>
      </trkpt>
      <trkpt lat="48.09162" lon="7.14468">
        <ele>791.20001220703</ele>
        <time>2012-07-15T08:40:36.000Z</time>
      </trkpt>
      <trkpt lat="48.09184" lon="7.1445">
        <ele>789.79998779297</ele>
        <time>2012-07-15T08:40:40.000Z</time>
      </trkpt>
      <trkpt lat="48.09192" lon="7.14446">
        <ele>788.40002441406</ele>
        <time>2012-07-15T08:40:43.000Z</time>
      </trkpt>
      <trkpt lat="48.09198" lon="7.14433">
        <ele>787.59997558594</ele>
        <time>2012-07-15T08:40:46.000Z</time>
      </trkpt>
      <trkpt lat="48.09218" lon="7.14402">
        <ele>786.20001220703</ele>
        <time>2012-07-15T08:40:51.000Z</time>
      </trkpt>
      <trkpt lat="48.09241" lon="7.14364">
        <ele>783.40002441406</ele>
        <time>2012-07-15T08:40:55.000Z</time>
      </trkpt>
      <trkpt lat="48.09275" lon="7.14309">
        <ele>778.40002441406</ele>
        <time>2012-07-15T08:41:00.000Z</time>
      </trkpt>
      <trkpt lat="48.09309" lon="7.14276">
        <ele>774.79998779297</ele>
        <time>2012-07-15T08:41:04.000Z</time>
      </trkpt>
      <trkpt lat="48.09317" lon="7.14272">
        <ele>774.79998779297</ele>
        <time>2012-07-15T08:41:05.000Z</time>
      </trkpt>
      <trkpt lat="48.09357" lon="7.14258">
        <ele>772.59997558594</ele>
        <time>2012-07-15T08:41:10.000Z</time>
      </trkpt>
      <trkpt lat="48.09373" lon="7.14257">
        <ele>772</ele>
        <time>2012-07-15T08:41:12.000Z</time>
      </trkpt>
      <trkpt lat="48.0942" lon="7.14263">
        <ele>770.20001220703</ele>
        <time>2012-07-15T08:41:19.000Z</time>
      </trkpt>
      <trkpt lat="48.09432" lon="7.14264">
        <ele>769.79998779297</ele>
        <time>2012-07-15T08:41:21.000Z</time>
      </trkpt>
      <trkpt lat="48.09452" lon="7.14278">
        <ele>769.40002441406</ele>
        <time>2012-07-15T08:41:25.000Z</time>
      </trkpt>
      <trkpt lat="48.09464" lon="7.1428">
        <ele>769.20001220703</ele>
        <time>2012-07-15T08:41:28.000Z</time>
      </trkpt>
      <trkpt lat="48.09484" lon="7.14274">
        <ele>769.40002441406</ele>
        <time>2012-07-15T08:41:33.000Z</time>
      </trkpt>
      <trkpt lat="48.09515" lon="7.14268">
        <ele>770.20001220703</ele>
        <time>2012-07-15T08:41:41.000Z</time>
      </trkpt>
      <trkpt lat="48.09536" lon="7.14277">
        <ele>771</ele>
        <time>2012-07-15T08:41:47.000Z</time>
      </trkpt>
      <trkpt lat="48.09561" lon="7.14287">
        <ele>771.40002441406</ele>
        <time>2012-07-15T08:41:54.000Z</time>
      </trkpt>
      <trkpt lat="48.09579" lon="7.14296">
        <ele>771.59997558594</ele>
        <time>2012-07-15T08:41:59.000Z</time>
      </trkpt>
      <trkpt lat="48.09602" lon="7.14305">
        <ele>772.59997558594</ele>
        <time>2012-07-15T08:42:05.000Z</time>
      </trkpt>
      <trkpt lat="48.09626" lon="7.1431">
        <ele>773.20001220703</ele>
        <time>2012-07-15T08:42:11.000Z</time>
      </trkpt>
      <trkpt lat="48.09651" lon="7.14316">
        <ele>774</ele>
        <time>2012-07-15T08:42:18.000Z</time>
      </trkpt>
      <trkpt lat="48.0967" lon="7.1432">
        <ele>774.79998779297</ele>
        <time>2012-07-15T08:42:24.000Z</time>
      </trkpt>
      <trkpt lat="48.09688" lon="7.14326">
        <ele>775.40002441406</ele>
        <time>2012-07-15T08:42:30.000Z</time>
      </trkpt>
      <trkpt lat="48.09716" lon="7.14336">
        <ele>776.40002441406</ele>
        <time>2012-07-15T08:42:39.000Z</time>
      </trkpt>
      <trkpt lat="48.09735" lon="7.14343">
        <ele>777</ele>
        <time>2012-07-15T08:42:45.000Z</time>
      </trkpt>
      <trkpt lat="48.09758" lon="7.14354">
        <ele>778.20001220703</ele>
        <time>2012-07-15T08:42:53.000Z</time>
      </trkpt>
      <trkpt lat="48.09776" lon="7.14361">
        <ele>779</ele>
        <time>2012-07-15T08:42:59.000Z</time>
      </trkpt>
      <trkpt lat="48.09801" lon="7.14365">
        <ele>779.79998779297</ele>
        <time>2012-07-15T08:43:07.000Z</time>
      </trkpt>
      <trkpt lat="48.09819" lon="7.14367">
        <ele>780.40002441406</ele>
        <time>2012-07-15T08:43:13.000Z</time>
      </trkpt>
      <trkpt lat="48.09843" lon="7.14375">
        <ele>781.20001220703</ele>
        <time>2012-07-15T08:43:21.000Z</time>
      </trkpt>
      <trkpt lat="48.09864" lon="7.14391">
        <ele>781.79998779297</ele>
        <time>2012-07-15T08:43:28.000Z</time>
      </trkpt>
      <trkpt lat="48.09884" lon="7.14405">
        <ele>782.59997558594</ele>
        <time>2012-07-15T08:43:35.000Z</time>
      </trkpt>
      <trkpt lat="48.09905" lon="7.14426">
        <ele>783.79998779297</ele>
        <time>2012-07-15T08:43:44.000Z</time>
      </trkpt>
      <trkpt lat="48.09919" lon="7.14441">
        <ele>784.40002441406</ele>
        <time>2012-07-15T08:43:50.000Z</time>
      </trkpt>
      <trkpt lat="48.09935" lon="7.1447">
        <ele>785</ele>
        <time>2012-07-15T08:43:58.000Z</time>
      </trkpt>
      <trkpt lat="48.09948" lon="7.145">
        <ele>785.40002441406</ele>
        <time>2012-07-15T08:44:06.000Z</time>
      </trkpt>
      <trkpt lat="48.09964" lon="7.14528">
        <ele>786.20001220703</ele>
        <time>2012-07-15T08:44:14.000Z</time>
      </trkpt>
      <trkpt lat="48.09985" lon="7.14557">
        <ele>787</ele>
        <time>2012-07-15T08:44:23.000Z</time>
      </trkpt>
      <trkpt lat="48.10009" lon="7.14586">
        <ele>787.59997558594</ele>
        <time>2012-07-15T08:44:32.000Z</time>
      </trkpt>
      <trkpt lat="48.10027" lon="7.14612">
        <ele>788.40002441406</ele>
        <time>2012-07-15T08:44:40.000Z</time>
      </trkpt>
      <trkpt lat="48.10046" lon="7.14651">
        <ele>789.59997558594</ele>
        <time>2012-07-15T08:44:50.000Z</time>
      </trkpt>
      <trkpt lat="48.10064" lon="7.1468">
        <ele>790.40002441406</ele>
        <time>2012-07-15T08:44:58.000Z</time>
      </trkpt>
      <trkpt lat="48.10079" lon="7.14703">
        <ele>791.40002441406</ele>
        <time>2012-07-15T08:45:05.000Z</time>
      </trkpt>
      <trkpt lat="48.10093" lon="7.14732">
        <ele>792.40002441406</ele>
        <time>2012-07-15T08:45:13.000Z</time>
      </trkpt>
      <trkpt lat="48.10115" lon="7.14772">
        <ele>793.59997558594</ele>
        <time>2012-07-15T08:45:24.000Z</time>
      </trkpt>
      <trkpt lat="48.1013" lon="7.14805">
        <ele>794</ele>
        <time>2012-07-15T08:45:32.000Z</time>
      </trkpt>
      <trkpt lat="48.10145" lon="7.14849">
        <ele>794.79998779297</ele>
        <time>2012-07-15T08:45:42.000Z</time>
      </trkpt>
      <trkpt lat="48.10165" lon="7.14881">
        <ele>795.40002441406</ele>
        <time>2012-07-15T08:45:51.000Z</time>
      </trkpt>
      <trkpt lat="48.10189" lon="7.1491">
        <ele>796.20001220703</ele>
        <time>2012-07-15T08:46:00.000Z</time>
      </trkpt>
      <trkpt lat="48.10209" lon="7.14935">
        <ele>795.79998779297</ele>
        <time>2012-07-15T08:46:06.000Z</time>
      </trkpt>
      <trkpt lat="48.10236" lon="7.14972">
        <ele>795</ele>
        <time>2012-07-15T08:46:13.000Z</time>
      </trkpt>
      <trkpt lat="48.10265" lon="7.15011">
        <ele>793.59997558594</ele>
        <time>2012-07-15T08:46:20.000Z</time>
      </trkpt>
      <trkpt lat="48.10301" lon="7.15054">
        <ele>792.20001220703</ele>
        <time>2012-07-15T08:46:28.000Z</time>
      </trkpt>
      <trkpt lat="48.10336" lon="7.15087">
        <ele>791.20001220703</ele>
        <time>2012-07-15T08:46:35.000Z</time>
      </trkpt>
      <trkpt lat="48.10369" lon="7.15115">
        <ele>790.20001220703</ele>
        <time>2012-07-15T08:46:41.000Z</time>
      </trkpt>
      <trkpt lat="48.10414" lon="7.1515">
        <ele>788</ele>
        <time>2012-07-15T08:46:48.000Z</time>
      </trkpt>
      <trkpt lat="48.10442" lon="7.15167">
        <ele>786.40002441406</ele>
        <time>2012-07-15T08:46:53.000Z</time>
      </trkpt>
      <trkpt lat="48.10474" lon="7.15187">
        <ele>785</ele>
        <time>2012-07-15T08:46:58.000Z</time>
      </trkpt>
      <trkpt lat="48.10504" lon="7.15203">
        <ele>784</ele>
        <time>2012-07-15T08:47:03.000Z</time>
      </trkpt>
      <trkpt lat="48.10525" lon="7.15213">
        <ele>783.40002441406</ele>
        <time>2012-07-15T08:47:06.000Z</time>
      </trkpt>
      <trkpt lat="48.10577" lon="7.15225">
        <ele>781.40002441406</ele>
        <time>2012-07-15T08:47:13.000Z</time>
      </trkpt>
      <trkpt lat="48.10618" lon="7.15236">
        <ele>779.59997558594</ele>
        <time>2012-07-15T08:47:19.000Z</time>
      </trkpt>
      <trkpt lat="48.10625" lon="7.15237">
        <ele>779.20001220703</ele>
        <time>2012-07-15T08:47:20.000Z</time>
      </trkpt>
      <trkpt lat="48.10666" lon="7.15241">
        <ele>777.40002441406</ele>
        <time>2012-07-15T08:47:25.000Z</time>
      </trkpt>
      <trkpt lat="48.1071" lon="7.15257">
        <ele>774.40002441406</ele>
        <time>2012-07-15T08:47:30.000Z</time>
      </trkpt>
      <trkpt lat="48.10727" lon="7.15265">
        <ele>773.20001220703</ele>
        <time>2012-07-15T08:47:32.000Z</time>
      </trkpt>
      <trkpt lat="48.10777" lon="7.15299">
        <ele>769.59997558594</ele>
        <time>2012-07-15T08:47:38.000Z</time>
      </trkpt>
      <trkpt lat="48.10801" lon="7.15317">
        <ele>767.59997558594</ele>
        <time>2012-07-15T08:47:41.000Z</time>
      </trkpt>
      <trkpt lat="48.1085" lon="7.15366">
        <ele>763</ele>
        <time>2012-07-15T08:47:47.000Z</time>
      </trkpt>
      <trkpt lat="48.10877" lon="7.154">
        <ele>760.59997558594</ele>
        <time>2012-07-15T08:47:51.000Z</time>
      </trkpt>
      <trkpt lat="48.10886" lon="7.15412">
        <ele>759</ele>
        <time>2012-07-15T08:47:53.000Z</time>
      </trkpt>
      <trkpt lat="48.10921" lon="7.15467">
        <ele>754.20001220703</ele>
        <time>2012-07-15T08:48:01.000Z</time>
      </trkpt>
      <trkpt lat="48.10925" lon="7.15473">
        <ele>753.79998779297</ele>
        <time>2012-07-15T08:48:02.000Z</time>
      </trkpt>
      <trkpt lat="48.10936" lon="7.15502">
        <ele>752.20001220703</ele>
        <time>2012-07-15T08:48:06.000Z</time>
      </trkpt>
      <trkpt lat="48.10949" lon="7.1553">
        <ele>750.79998779297</ele>
        <time>2012-07-15T08:48:10.000Z</time>
      </trkpt>
      <trkpt lat="48.10967" lon="7.15576">
        <ele>750.20001220703</ele>
        <time>2012-07-15T08:48:18.000Z</time>
      </trkpt>
      <trkpt lat="48.10968" lon="7.15583">
        <ele>750.20001220703</ele>
        <time>2012-07-15T08:48:21.000Z</time>
      </trkpt>
      <trkpt lat="48.10953" lon="7.15581">
        <ele>750.40002441406</ele>
        <time>2012-07-15T08:49:58.000Z</time>
      </trkpt>
      <trkpt lat="48.10967" lon="7.15583">
        <ele>750.59997558594</ele>
        <time>2012-07-15T08:51:30.000Z</time>
      </trkpt>
      <trkpt lat="48.10968" lon="7.15592">
        <ele>751.20001220703</ele>
        <time>2012-07-15T08:51:58.000Z</time>
      </trkpt>
      <trkpt lat="48.10979" lon="7.15615">
        <ele>751.59997558594</ele>
        <time>2012-07-15T08:52:04.000Z</time>
      </trkpt>
      <trkpt lat="48.10979" lon="7.15644">
        <ele>752.40002441406</ele>
        <time>2012-07-15T08:52:09.000Z</time>
      </trkpt>
      <trkpt lat="48.10972" lon="7.15665">
        <ele>752.79998779297</ele>
        <time>2012-07-15T08:52:14.000Z</time>
      </trkpt>
      <trkpt lat="48.10962" lon="7.15689">
        <ele>753.20001220703</ele>
        <time>2012-07-15T08:52:19.000Z</time>
      </trkpt>
      <trkpt lat="48.10956" lon="7.15697">
        <ele>753.20001220703</ele>
        <time>2012-07-15T08:52:21.000Z</time>
      </trkpt>
      <trkpt lat="48.10944" lon="7.15715">
        <ele>753.40002441406</ele>
        <time>2012-07-15T08:52:25.000Z</time>
      </trkpt>
      <trkpt lat="48.10923" lon="7.1575">
        <ele>754.40002441406</ele>
        <time>2012-07-15T08:52:33.000Z</time>
      </trkpt>
      <trkpt lat="48.10904" lon="7.15775">
        <ele>755</ele>
        <time>2012-07-15T08:52:40.000Z</time>
      </trkpt>
      <trkpt lat="48.10893" lon="7.15794">
        <ele>755.59997558594</ele>
        <time>2012-07-15T08:52:45.000Z</time>
      </trkpt>
      <trkpt lat="48.10883" lon="7.15813">
        <ele>756.20001220703</ele>
        <time>2012-07-15T08:52:50.000Z</time>
      </trkpt>
      <trkpt lat="48.10866" lon="7.15842">
        <ele>757</ele>
        <time>2012-07-15T08:52:57.000Z</time>
      </trkpt>
      <trkpt lat="48.10856" lon="7.15861">
        <ele>757.40002441406</ele>
        <time>2012-07-15T08:53:02.000Z</time>
      </trkpt>
      <trkpt lat="48.10837" lon="7.15896">
        <ele>758.20001220703</ele>
        <time>2012-07-15T08:53:11.000Z</time>
      </trkpt>
      <trkpt lat="48.10821" lon="7.15924">
        <ele>759</ele>
        <time>2012-07-15T08:53:18.000Z</time>
      </trkpt>
      <trkpt lat="48.10809" lon="7.1595">
        <ele>759.20001220703</ele>
        <time>2012-07-15T08:53:24.000Z</time>
      </trkpt>
      <trkpt lat="48.10792" lon="7.15984">
        <ele>759.59997558594</ele>
        <time>2012-07-15T08:53:31.000Z</time>
      </trkpt>
      <trkpt lat="48.10783" lon="7.16">
        <ele>759.40002441406</ele>
        <time>2012-07-15T08:53:34.000Z</time>
      </trkpt>
      <trkpt lat="48.10776" lon="7.16011">
        <ele>759</ele>
        <time>2012-07-15T08:53:36.000Z</time>
      </trkpt>
      <trkpt lat="48.10749" lon="7.16035">
        <ele>758.20001220703</ele>
        <time>2012-07-15T08:53:43.000Z</time>
      </trkpt>
      <trkpt lat="48.1074" lon="7.16039">
        <ele>758.20001220703</ele>
        <time>2012-07-15T08:53:45.000Z</time>
      </trkpt>
      <trkpt lat="48.10707" lon="7.16041">
        <ele>757.59997558594</ele>
        <time>2012-07-15T08:53:52.000Z</time>
      </trkpt>
      <trkpt lat="48.10676" lon="7.1604">
        <ele>756.79998779297</ele>
        <time>2012-07-15T08:53:58.000Z</time>
      </trkpt>
      <trkpt lat="48.10638" lon="7.16029">
        <ele>756.20001220703</ele>
        <time>2012-07-15T08:54:05.000Z</time>
      </trkpt>
      <trkpt lat="48.10613" lon="7.16016">
        <ele>755.59997558594</ele>
        <time>2012-07-15T08:54:09.000Z</time>
      </trkpt>
      <trkpt lat="48.10587" lon="7.16">
        <ele>754.59997558594</ele>
        <time>2012-07-15T08:54:13.000Z</time>
      </trkpt>
      <trkpt lat="48.10561" lon="7.1598">
        <ele>752.59997558594</ele>
        <time>2012-07-15T08:54:17.000Z</time>
      </trkpt>
      <trkpt lat="48.10521" lon="7.1595">
        <ele>747.79998779297</ele>
        <time>2012-07-15T08:54:23.000Z</time>
      </trkpt>
      <trkpt lat="48.10513" lon="7.15944">
        <ele>746</ele>
        <time>2012-07-15T08:54:25.000Z</time>
      </trkpt>
      <trkpt lat="48.10498" lon="7.15941">
        <ele>744.20001220703</ele>
        <time>2012-07-15T08:54:29.000Z</time>
      </trkpt>
      <trkpt lat="48.10488" lon="7.15937">
        <ele>744.40002441406</ele>
        <time>2012-07-15T08:54:32.000Z</time>
      </trkpt>
      <trkpt lat="48.10464" lon="7.15912">
        <ele>744.79998779297</ele>
        <time>2012-07-15T08:54:38.000Z</time>
      </trkpt>
      <trkpt lat="48.10441" lon="7.15886">
        <ele>744.20001220703</ele>
        <time>2012-07-15T08:54:44.000Z</time>
      </trkpt>
      <trkpt lat="48.1042" lon="7.15863">
        <ele>744.20001220703</ele>
        <time>2012-07-15T08:54:49.000Z</time>
      </trkpt>
      <trkpt lat="48.10404" lon="7.15847">
        <ele>744.20001220703</ele>
        <time>2012-07-15T08:54:53.000Z</time>
      </trkpt>
      <trkpt lat="48.10373" lon="7.15822">
        <ele>745</ele>
        <time>2012-07-15T08:55:01.000Z</time>
      </trkpt>
      <trkpt lat="48.10344" lon="7.15796">
        <ele>746.40002441406</ele>
        <time>2012-07-15T08:55:10.000Z</time>
      </trkpt>
      <trkpt lat="48.10325" lon="7.15778">
        <ele>747.59997558594</ele>
        <time>2012-07-15T08:55:17.000Z</time>
      </trkpt>
      <trkpt lat="48.10309" lon="7.15761">
        <ele>749.40002441406</ele>
        <time>2012-07-15T08:55:24.000Z</time>
      </trkpt>
      <trkpt lat="48.10291" lon="7.1575">
        <ele>750.20001220703</ele>
        <time>2012-07-15T08:55:31.000Z</time>
      </trkpt>
      <trkpt lat="48.10277" lon="7.15742">
        <ele>750.40002441406</ele>
        <time>2012-07-15T08:55:36.000Z</time>
      </trkpt>
      <trkpt lat="48.10261" lon="7.15732">
        <ele>751</ele>
        <time>2012-07-15T08:55:41.000Z</time>
      </trkpt>
      <trkpt lat="48.10243" lon="7.15722">
        <ele>752</ele>
        <time>2012-07-15T08:55:47.000Z</time>
      </trkpt>
      <trkpt lat="48.10225" lon="7.15714">
        <ele>754</ele>
        <time>2012-07-15T08:55:55.000Z</time>
      </trkpt>
      <trkpt lat="48.10211" lon="7.15708">
        <ele>755.59997558594</ele>
        <time>2012-07-15T08:56:01.000Z</time>
      </trkpt>
      <trkpt lat="48.10193" lon="7.15705">
        <ele>757.20001220703</ele>
        <time>2012-07-15T08:56:08.000Z</time>
      </trkpt>
      <trkpt lat="48.10178" lon="7.15705">
        <ele>757.20001220703</ele>
        <time>2012-07-15T08:56:13.000Z</time>
      </trkpt>
      <trkpt lat="48.10162" lon="7.15705">
        <ele>756.59997558594</ele>
        <time>2012-07-15T08:56:17.000Z</time>
      </trkpt>
      <trkpt lat="48.10141" lon="7.157">
        <ele>757</ele>
        <time>2012-07-15T08:56:23.000Z</time>
      </trkpt>
      <trkpt lat="48.10118" lon="7.15689">
        <ele>759</ele>
        <time>2012-07-15T08:56:31.000Z</time>
      </trkpt>
      <trkpt lat="48.10101" lon="7.15679">
        <ele>761.20001220703</ele>
        <time>2012-07-15T08:56:39.000Z</time>
      </trkpt>
      <trkpt lat="48.10085" lon="7.1567">
        <ele>763</ele>
        <time>2012-07-15T08:56:47.000Z</time>
      </trkpt>
      <trkpt lat="48.10071" lon="7.15663">
        <ele>764.79998779297</ele>
        <time>2012-07-15T08:56:55.000Z</time>
      </trkpt>
      <trkpt lat="48.10052" lon="7.15657">
        <ele>766.20001220703</ele>
        <time>2012-07-15T08:57:04.000Z</time>
      </trkpt>
      <trkpt lat="48.10035" lon="7.1565">
        <ele>768</ele>
        <time>2012-07-15T08:57:13.000Z</time>
      </trkpt>
      <trkpt lat="48.10019" lon="7.15644">
        <ele>770.20001220703</ele>
        <time>2012-07-15T08:57:22.000Z</time>
      </trkpt>
      <trkpt lat="48.10004" lon="7.15639">
        <ele>772.40002441406</ele>
        <time>2012-07-15T08:57:31.000Z</time>
      </trkpt>
      <trkpt lat="48.09984" lon="7.15631">
        <ele>775</ele>
        <time>2012-07-15T08:57:42.000Z</time>
      </trkpt>
      <trkpt lat="48.09968" lon="7.1562">
        <ele>777</ele>
        <time>2012-07-15T08:57:51.000Z</time>
      </trkpt>
      <trkpt lat="48.09951" lon="7.15613">
        <ele>778.40002441406</ele>
        <time>2012-07-15T08:57:59.000Z</time>
      </trkpt>
      <trkpt lat="48.09935" lon="7.15606">
        <ele>778.79998779297</ele>
        <time>2012-07-15T08:58:05.000Z</time>
      </trkpt>
      <trkpt lat="48.09909" lon="7.15598">
        <ele>778.20001220703</ele>
        <time>2012-07-15T08:58:12.000Z</time>
      </trkpt>
      <trkpt lat="48.09879" lon="7.1559">
        <ele>778.20001220703</ele>
        <time>2012-07-15T08:58:21.000Z</time>
      </trkpt>
      <trkpt lat="48.09859" lon="7.15583">
        <ele>778.79998779297</ele>
        <time>2012-07-15T08:58:28.000Z</time>
      </trkpt>
      <trkpt lat="48.09841" lon="7.15579">
        <ele>780.20001220703</ele>
        <time>2012-07-15T08:58:35.000Z</time>
      </trkpt>
      <trkpt lat="48.09823" lon="7.15576">
        <ele>781</ele>
        <time>2012-07-15T08:58:42.000Z</time>
      </trkpt>
      <trkpt lat="48.09805" lon="7.15569">
        <ele>781.40002441406</ele>
        <time>2012-07-15T08:58:48.000Z</time>
      </trkpt>
      <trkpt lat="48.09784" lon="7.15559">
        <ele>782</ele>
        <time>2012-07-15T08:58:56.000Z</time>
      </trkpt>
      <trkpt lat="48.09768" lon="7.15549">
        <ele>782.59997558594</ele>
        <time>2012-07-15T08:59:02.000Z</time>
      </trkpt>
      <trkpt lat="48.0975" lon="7.15538">
        <ele>784</ele>
        <time>2012-07-15T08:59:10.000Z</time>
      </trkpt>
      <trkpt lat="48.09738" lon="7.15528">
        <ele>785.20001220703</ele>
        <time>2012-07-15T08:59:16.000Z</time>
      </trkpt>
      <trkpt lat="48.09719" lon="7.15513">
        <ele>787.59997558594</ele>
        <time>2012-07-15T08:59:25.000Z</time>
      </trkpt>
      <trkpt lat="48.09697" lon="7.15503">
        <ele>789.20001220703</ele>
        <time>2012-07-15T08:59:34.000Z</time>
      </trkpt>
      <trkpt lat="48.09677" lon="7.15493">
        <ele>790.59997558594</ele>
        <time>2012-07-15T08:59:42.000Z</time>
      </trkpt>
      <trkpt lat="48.09662" lon="7.15485">
        <ele>791</ele>
        <time>2012-07-15T08:59:47.000Z</time>
      </trkpt>
      <trkpt lat="48.09628" lon="7.15466">
        <ele>790</ele>
        <time>2012-07-15T08:59:56.000Z</time>
      </trkpt>
      <trkpt lat="48.09603" lon="7.15455">
        <ele>789.40002441406</ele>
        <time>2012-07-15T09:00:02.000Z</time>
      </trkpt>
      <trkpt lat="48.09568" lon="7.15443">
        <ele>788.40002441406</ele>
        <time>2012-07-15T09:00:09.000Z</time>
      </trkpt>
      <trkpt lat="48.09538" lon="7.15434">
        <ele>787.40002441406</ele>
        <time>2012-07-15T09:00:14.000Z</time>
      </trkpt>
      <trkpt lat="48.09511" lon="7.15427">
        <ele>786.20001220703</ele>
        <time>2012-07-15T09:00:19.000Z</time>
      </trkpt>
      <trkpt lat="48.09501" lon="7.15424">
        <ele>786</ele>
        <time>2012-07-15T09:00:21.000Z</time>
      </trkpt>
      <trkpt lat="48.09483" lon="7.15425">
        <ele>786</ele>
        <time>2012-07-15T09:00:25.000Z</time>
      </trkpt>
      <trkpt lat="48.09462" lon="7.15434">
        <ele>786</ele>
        <time>2012-07-15T09:00:30.000Z</time>
      </trkpt>
      <trkpt lat="48.09435" lon="7.15439">
        <ele>786.40002441406</ele>
        <time>2012-07-15T09:00:37.000Z</time>
      </trkpt>
      <trkpt lat="48.09427" lon="7.15437">
        <ele>786.40002441406</ele>
        <time>2012-07-15T09:00:39.000Z</time>
      </trkpt>
      <trkpt lat="48.09408" lon="7.15442">
        <ele>786.40002441406</ele>
        <time>2012-07-15T09:00:43.000Z</time>
      </trkpt>
      <trkpt lat="48.09382" lon="7.15454">
        <ele>786.40002441406</ele>
        <time>2012-07-15T09:00:50.000Z</time>
      </trkpt>
      <trkpt lat="48.09365" lon="7.15457">
        <ele>786.79998779297</ele>
        <time>2012-07-15T09:00:55.000Z</time>
      </trkpt>
      <trkpt lat="48.09341" lon="7.15467">
        <ele>787.40002441406</ele>
        <time>2012-07-15T09:01:02.000Z</time>
      </trkpt>
      <trkpt lat="48.09325" lon="7.15472">
        <ele>789.20001220703</ele>
        <time>2012-07-15T09:01:09.000Z</time>
      </trkpt>
      <trkpt lat="48.09309" lon="7.15477">
        <ele>791.20001220703</ele>
        <time>2012-07-15T09:01:17.000Z</time>
      </trkpt>
      <trkpt lat="48.09292" lon="7.15479">
        <ele>793</ele>
        <time>2012-07-15T09:01:25.000Z</time>
      </trkpt>
      <trkpt lat="48.09278" lon="7.1548">
        <ele>794.79998779297</ele>
        <time>2012-07-15T09:01:33.000Z</time>
      </trkpt>
      <trkpt lat="48.09261" lon="7.1548">
        <ele>796.79998779297</ele>
        <time>2012-07-15T09:01:42.000Z</time>
      </trkpt>
      <trkpt lat="48.0924" lon="7.15482">
        <ele>798.59997558594</ele>
        <time>2012-07-15T09:01:52.000Z</time>
      </trkpt>
      <trkpt lat="48.09221" lon="7.15491">
        <ele>799.79998779297</ele>
        <time>2012-07-15T09:02:00.000Z</time>
      </trkpt>
      <trkpt lat="48.09195" lon="7.15503">
        <ele>800.59997558594</ele>
        <time>2012-07-15T09:02:09.000Z</time>
      </trkpt>
      <trkpt lat="48.09173" lon="7.15508">
        <ele>800.40002441406</ele>
        <time>2012-07-15T09:02:16.000Z</time>
      </trkpt>
      <trkpt lat="48.09165" lon="7.1551">
        <ele>800</ele>
        <time>2012-07-15T09:02:18.000Z</time>
      </trkpt>
      <trkpt lat="48.09142" lon="7.15526">
        <ele>799.59997558594</ele>
        <time>2012-07-15T09:02:24.000Z</time>
      </trkpt>
      <trkpt lat="48.09138" lon="7.15529">
        <ele>799.59997558594</ele>
        <time>2012-07-15T09:02:25.000Z</time>
      </trkpt>
      <trkpt lat="48.0913" lon="7.15535">
        <ele>799.59997558594</ele>
        <time>2012-07-15T09:02:27.000Z</time>
      </trkpt>
      <trkpt lat="48.09107" lon="7.1555">
        <ele>799.59997558594</ele>
        <time>2012-07-15T09:02:33.000Z</time>
      </trkpt>
      <trkpt lat="48.09103" lon="7.15552">
        <ele>799.79998779297</ele>
        <time>2012-07-15T09:02:34.000Z</time>
      </trkpt>
      <trkpt lat="48.09075" lon="7.15581">
        <ele>799.79998779297</ele>
        <time>2012-07-15T09:02:41.000Z</time>
      </trkpt>
      <trkpt lat="48.09067" lon="7.15589">
        <ele>799.59997558594</ele>
        <time>2012-07-15T09:02:43.000Z</time>
      </trkpt>
      <trkpt lat="48.09043" lon="7.15626">
        <ele>799.59997558594</ele>
        <time>2012-07-15T09:02:50.000Z</time>
      </trkpt>
      <trkpt lat="48.09028" lon="7.15647">
        <ele>799.59997558594</ele>
        <time>2012-07-15T09:02:54.000Z</time>
      </trkpt>
      <trkpt lat="48.0902" lon="7.15656">
        <ele>799.40002441406</ele>
        <time>2012-07-15T09:02:56.000Z</time>
      </trkpt>
      <trkpt lat="48.09011" lon="7.15663">
        <ele>799.40002441406</ele>
        <time>2012-07-15T09:02:58.000Z</time>
      </trkpt>
      <trkpt lat="48.08981" lon="7.15688">
        <ele>799.40002441406</ele>
        <time>2012-07-15T09:03:05.000Z</time>
      </trkpt>
      <trkpt lat="48.08966" lon="7.15704">
        <ele>799.40002441406</ele>
        <time>2012-07-15T09:03:09.000Z</time>
      </trkpt>
      <trkpt lat="48.08951" lon="7.15719">
        <ele>799.40002441406</ele>
        <time>2012-07-15T09:03:13.000Z</time>
      </trkpt>
      <trkpt lat="48.0894" lon="7.15729">
        <ele>799.59997558594</ele>
        <time>2012-07-15T09:03:16.000Z</time>
      </trkpt>
      <trkpt lat="48.08916" lon="7.15742">
        <ele>799.59997558594</ele>
        <time>2012-07-15T09:03:22.000Z</time>
      </trkpt>
      <trkpt lat="48.08922" lon="7.15761">
        <ele>799.59997558594</ele>
        <time>2012-07-15T09:03:26.000Z</time>
      </trkpt>
      <trkpt lat="48.08941" lon="7.15764">
        <ele>798.79998779297</ele>
        <time>2012-07-15T09:03:30.000Z</time>
      </trkpt>
      <trkpt lat="48.08954" lon="7.15748">
        <ele>797.40002441406</ele>
        <time>2012-07-15T09:03:33.000Z</time>
      </trkpt>
      <trkpt lat="48.08974" lon="7.15746">
        <ele>795.40002441406</ele>
        <time>2012-07-15T09:03:36.000Z</time>
      </trkpt>
      <trkpt lat="48.08988" lon="7.15754">
        <ele>794.20001220703</ele>
        <time>2012-07-15T09:03:38.000Z</time>
      </trkpt>
      <trkpt lat="48.09027" lon="7.15776">
        <ele>789.59997558594</ele>
        <time>2012-07-15T09:03:43.000Z</time>
      </trkpt>
      <trkpt lat="48.09057" lon="7.15799">
        <ele>786</ele>
        <time>2012-07-15T09:03:47.000Z</time>
      </trkpt>
      <trkpt lat="48.09074" lon="7.15817">
        <ele>784.40002441406</ele>
        <time>2012-07-15T09:03:50.000Z</time>
      </trkpt>
      <trkpt lat="48.09082" lon="7.15824">
        <ele>784.40002441406</ele>
        <time>2012-07-15T09:03:53.000Z</time>
      </trkpt>
      <trkpt lat="48.09089" lon="7.15832">
        <ele>785.40002441406</ele>
        <time>2012-07-15T09:03:58.000Z</time>
      </trkpt>
      <trkpt lat="48.09104" lon="7.15845">
        <ele>786.79998779297</ele>
        <time>2012-07-15T09:04:05.000Z</time>
      </trkpt>
      <trkpt lat="48.09119" lon="7.15855">
        <ele>788.20001220703</ele>
        <time>2012-07-15T09:04:11.000Z</time>
      </trkpt>
      <trkpt lat="48.09136" lon="7.15867">
        <ele>789.59997558594</ele>
        <time>2012-07-15T09:04:18.000Z</time>
      </trkpt>
      <trkpt lat="48.09151" lon="7.15877">
        <ele>790.79998779297</ele>
        <time>2012-07-15T09:04:24.000Z</time>
      </trkpt>
      <trkpt lat="48.09167" lon="7.1589">
        <ele>792.20001220703</ele>
        <time>2012-07-15T09:04:31.000Z</time>
      </trkpt>
      <trkpt lat="48.09187" lon="7.15902">
        <ele>792.79998779297</ele>
        <time>2012-07-15T09:04:38.000Z</time>
      </trkpt>
      <trkpt lat="48.09207" lon="7.15917">
        <ele>793.40002441406</ele>
        <time>2012-07-15T09:04:45.000Z</time>
      </trkpt>
      <trkpt lat="48.09226" lon="7.15932">
        <ele>794.59997558594</ele>
        <time>2012-07-15T09:04:53.000Z</time>
      </trkpt>
      <trkpt lat="48.09242" lon="7.15945">
        <ele>795.20001220703</ele>
        <time>2012-07-15T09:04:59.000Z</time>
      </trkpt>
      <trkpt lat="48.09267" lon="7.15968">
        <ele>795.79998779297</ele>
        <time>2012-07-15T09:05:08.000Z</time>
      </trkpt>
      <trkpt lat="48.0929" lon="7.15988">
        <ele>795.79998779297</ele>
        <time>2012-07-15T09:05:15.000Z</time>
      </trkpt>
      <trkpt lat="48.09306" lon="7.16003">
        <ele>796</ele>
        <time>2012-07-15T09:05:19.000Z</time>
      </trkpt>
      <trkpt lat="48.09317" lon="7.16016">
        <ele>796</ele>
        <time>2012-07-15T09:05:22.000Z</time>
      </trkpt>
      <trkpt lat="48.09345" lon="7.16049">
        <ele>795.79998779297</ele>
        <time>2012-07-15T09:05:29.000Z</time>
      </trkpt>
      <trkpt lat="48.09353" lon="7.1606">
        <ele>795.59997558594</ele>
        <time>2012-07-15T09:05:31.000Z</time>
      </trkpt>
      <trkpt lat="48.09388" lon="7.1611">
        <ele>795.20001220703</ele>
        <time>2012-07-15T09:05:40.000Z</time>
      </trkpt>
      <trkpt lat="48.09408" lon="7.16146">
        <ele>794.79998779297</ele>
        <time>2012-07-15T09:05:46.000Z</time>
      </trkpt>
      <trkpt lat="48.09442" lon="7.16203">
        <ele>794.59997558594</ele>
        <time>2012-07-15T09:05:56.000Z</time>
      </trkpt>
      <trkpt lat="48.09455" lon="7.16227">
        <ele>794.59997558594</ele>
        <time>2012-07-15T09:06:00.000Z</time>
      </trkpt>
      <trkpt lat="48.09479" lon="7.1627">
        <ele>794</ele>
        <time>2012-07-15T09:06:07.000Z</time>
      </trkpt>
      <trkpt lat="48.0949" lon="7.16288">
        <ele>793.79998779297</ele>
        <time>2012-07-15T09:06:10.000Z</time>
      </trkpt>
      <trkpt lat="48.09515" lon="7.16338">
        <ele>793.59997558594</ele>
        <time>2012-07-15T09:06:18.000Z</time>
      </trkpt>
      <trkpt lat="48.09549" lon="7.16386">
        <ele>793.59997558594</ele>
        <time>2012-07-15T09:06:27.000Z</time>
      </trkpt>
      <trkpt lat="48.09555" lon="7.16397">
        <ele>793.59997558594</ele>
        <time>2012-07-15T09:06:29.000Z</time>
      </trkpt>
      <trkpt lat="48.0957" lon="7.16436">
        <ele>794.40002441406</ele>
        <time>2012-07-15T09:06:37.000Z</time>
      </trkpt>
      <trkpt lat="48.09578" lon="7.16461">
        <ele>795.40002441406</ele>
        <time>2012-07-15T09:06:43.000Z</time>
      </trkpt>
      <trkpt lat="48.0958" lon="7.16485">
        <ele>796.20001220703</ele>
        <time>2012-07-15T09:06:49.000Z</time>
      </trkpt>
      <trkpt lat="48.09587" lon="7.1651">
        <ele>797.20001220703</ele>
        <time>2012-07-15T09:06:55.000Z</time>
      </trkpt>
      <trkpt lat="48.0959" lon="7.16535">
        <ele>798.40002441406</ele>
        <time>2012-07-15T09:07:01.000Z</time>
      </trkpt>
      <trkpt lat="48.09582" lon="7.1655">
        <ele>799</ele>
        <time>2012-07-15T09:07:05.000Z</time>
      </trkpt>
      <trkpt lat="48.09564" lon="7.16567">
        <ele>799.79998779297</ele>
        <time>2012-07-15T09:07:12.000Z</time>
      </trkpt>
      <trkpt lat="48.09549" lon="7.16582">
        <ele>800.40002441406</ele>
        <time>2012-07-15T09:07:18.000Z</time>
      </trkpt>
      <trkpt lat="48.09535" lon="7.16602">
        <ele>801.79998779297</ele>
        <time>2012-07-15T09:07:25.000Z</time>
      </trkpt>
      <trkpt lat="48.0952" lon="7.16618">
        <ele>803.20001220703</ele>
        <time>2012-07-15T09:07:32.000Z</time>
      </trkpt>
      <trkpt lat="48.095" lon="7.16623">
        <ele>804.59997558594</ele>
        <time>2012-07-15T09:07:40.000Z</time>
      </trkpt>
      <trkpt lat="48.09482" lon="7.16628">
        <ele>805.79998779297</ele>
        <time>2012-07-15T09:07:47.000Z</time>
      </trkpt>
      <trkpt lat="48.09465" lon="7.16633">
        <ele>807.40002441406</ele>
        <time>2012-07-15T09:07:54.000Z</time>
      </trkpt>
      <trkpt lat="48.09445" lon="7.16636">
        <ele>808.40002441406</ele>
        <time>2012-07-15T09:08:02.000Z</time>
      </trkpt>
      <trkpt lat="48.09428" lon="7.16639">
        <ele>809.40002441406</ele>
        <time>2012-07-15T09:08:09.000Z</time>
      </trkpt>
      <trkpt lat="48.09407" lon="7.16642">
        <ele>811.20001220703</ele>
        <time>2012-07-15T09:08:18.000Z</time>
      </trkpt>
      <trkpt lat="48.09384" lon="7.16643">
        <ele>813</ele>
        <time>2012-07-15T09:08:28.000Z</time>
      </trkpt>
      <trkpt lat="48.09374" lon="7.16645">
        <ele>813.79998779297</ele>
        <time>2012-07-15T09:08:33.000Z</time>
      </trkpt>
      <trkpt lat="48.0936" lon="7.16644">
        <ele>815.20001220703</ele>
        <time>2012-07-15T09:08:40.000Z</time>
      </trkpt>
      <trkpt lat="48.09344" lon="7.16645">
        <ele>816.40002441406</ele>
        <time>2012-07-15T09:08:48.000Z</time>
      </trkpt>
      <trkpt lat="48.09331" lon="7.16646">
        <ele>817.59997558594</ele>
        <time>2012-07-15T09:08:54.000Z</time>
      </trkpt>
      <trkpt lat="48.09319" lon="7.1665">
        <ele>818.79998779297</ele>
        <time>2012-07-15T09:09:01.000Z</time>
      </trkpt>
      <trkpt lat="48.09306" lon="7.16652">
        <ele>819.79998779297</ele>
        <time>2012-07-15T09:09:07.000Z</time>
      </trkpt>
      <trkpt lat="48.09289" lon="7.16652">
        <ele>821.20001220703</ele>
        <time>2012-07-15T09:09:15.000Z</time>
      </trkpt>
      <trkpt lat="48.09273" lon="7.16657">
        <ele>822.40002441406</ele>
        <time>2012-07-15T09:09:23.000Z</time>
      </trkpt>
      <trkpt lat="48.09261" lon="7.1666">
        <ele>823.20001220703</ele>
        <time>2012-07-15T09:09:29.000Z</time>
      </trkpt>
      <trkpt lat="48.09243" lon="7.16659">
        <ele>824</ele>
        <time>2012-07-15T09:09:36.000Z</time>
      </trkpt>
      <trkpt lat="48.09224" lon="7.16656">
        <ele>824.40002441406</ele>
        <time>2012-07-15T09:09:44.000Z</time>
      </trkpt>
      <trkpt lat="48.09203" lon="7.16653">
        <ele>825.40002441406</ele>
        <time>2012-07-15T09:09:53.000Z</time>
      </trkpt>
      <trkpt lat="48.09179" lon="7.16653">
        <ele>827</ele>
        <time>2012-07-15T09:10:03.000Z</time>
      </trkpt>
      <trkpt lat="48.0916" lon="7.16649">
        <ele>827.79998779297</ele>
        <time>2012-07-15T09:10:11.000Z</time>
      </trkpt>
      <trkpt lat="48.09137" lon="7.16641">
        <ele>828.59997558594</ele>
        <time>2012-07-15T09:10:19.000Z</time>
      </trkpt>
      <trkpt lat="48.09115" lon="7.16637">
        <ele>829.79998779297</ele>
        <time>2012-07-15T09:10:27.000Z</time>
      </trkpt>
      <trkpt lat="48.09097" lon="7.16637">
        <ele>830.59997558594</ele>
        <time>2012-07-15T09:10:34.000Z</time>
      </trkpt>
      <trkpt lat="48.09079" lon="7.16636">
        <ele>831.20001220703</ele>
        <time>2012-07-15T09:10:41.000Z</time>
      </trkpt>
      <trkpt lat="48.09058" lon="7.16636">
        <ele>832.20001220703</ele>
        <time>2012-07-15T09:10:49.000Z</time>
      </trkpt>
      <trkpt lat="48.09035" lon="7.16638">
        <ele>832.79998779297</ele>
        <time>2012-07-15T09:10:57.000Z</time>
      </trkpt>
      <trkpt lat="48.09018" lon="7.16639">
        <ele>833.20001220703</ele>
        <time>2012-07-15T09:11:03.000Z</time>
      </trkpt>
      <trkpt lat="48.08997" lon="7.16646">
        <ele>833.79998779297</ele>
        <time>2012-07-15T09:11:11.000Z</time>
      </trkpt>
      <trkpt lat="48.08981" lon="7.16651">
        <ele>834.79998779297</ele>
        <time>2012-07-15T09:11:18.000Z</time>
      </trkpt>
      <trkpt lat="48.08967" lon="7.16656">
        <ele>835.59997558594</ele>
        <time>2012-07-15T09:11:24.000Z</time>
      </trkpt>
      <trkpt lat="48.08949" lon="7.16661">
        <ele>836.40002441406</ele>
        <time>2012-07-15T09:11:32.000Z</time>
      </trkpt>
      <trkpt lat="48.08934" lon="7.16664">
        <ele>837.40002441406</ele>
        <time>2012-07-15T09:11:39.000Z</time>
      </trkpt>
      <trkpt lat="48.08918" lon="7.16668">
        <ele>838.20001220703</ele>
        <time>2012-07-15T09:11:46.000Z</time>
      </trkpt>
      <trkpt lat="48.08901" lon="7.16676">
        <ele>839</ele>
        <time>2012-07-15T09:11:54.000Z</time>
      </trkpt>
      <trkpt lat="48.08898" lon="7.16677">
        <ele>839.20001220703</ele>
        <time>2012-07-15T09:11:58.000Z</time>
      </trkpt>
      <trkpt lat="48.08898" lon="7.16682">
        <ele>839</ele>
        <time>2012-07-15T09:12:54.000Z</time>
      </trkpt>
      <trkpt lat="48.08888" lon="7.16686">
        <ele>839</ele>
        <time>2012-07-15T09:13:00.000Z</time>
      </trkpt>
      <trkpt lat="48.08869" lon="7.16694">
        <ele>839.59997558594</ele>
        <time>2012-07-15T09:13:07.000Z</time>
      </trkpt>
      <trkpt lat="48.0885" lon="7.16707">
        <ele>840.40002441406</ele>
        <time>2012-07-15T09:13:15.000Z</time>
      </trkpt>
      <trkpt lat="48.08832" lon="7.16727">
        <ele>841.59997558594</ele>
        <time>2012-07-15T09:13:23.000Z</time>
      </trkpt>
      <trkpt lat="48.08818" lon="7.16748">
        <ele>842.79998779297</ele>
        <time>2012-07-15T09:13:30.000Z</time>
      </trkpt>
      <trkpt lat="48.08806" lon="7.16763">
        <ele>843.59997558594</ele>
        <time>2012-07-15T09:13:36.000Z</time>
      </trkpt>
      <trkpt lat="48.08794" lon="7.16783">
        <ele>844.59997558594</ele>
        <time>2012-07-15T09:13:43.000Z</time>
      </trkpt>
      <trkpt lat="48.08784" lon="7.16801">
        <ele>845.40002441406</ele>
        <time>2012-07-15T09:13:49.000Z</time>
      </trkpt>
      <trkpt lat="48.08769" lon="7.16819">
        <ele>846</ele>
        <time>2012-07-15T09:13:56.000Z</time>
      </trkpt>
      <trkpt lat="48.08761" lon="7.16832">
        <ele>846.40002441406</ele>
        <time>2012-07-15T09:14:01.000Z</time>
      </trkpt>
      <trkpt lat="48.08746" lon="7.16852">
        <ele>847.20001220703</ele>
        <time>2012-07-15T09:14:08.000Z</time>
      </trkpt>
      <trkpt lat="48.08734" lon="7.16871">
        <ele>847.79998779297</ele>
        <time>2012-07-15T09:14:14.000Z</time>
      </trkpt>
      <trkpt lat="48.08716" lon="7.16895">
        <ele>848.40002441406</ele>
        <time>2012-07-15T09:14:22.000Z</time>
      </trkpt>
      <trkpt lat="48.08698" lon="7.16918">
        <ele>849.20001220703</ele>
        <time>2012-07-15T09:14:30.000Z</time>
      </trkpt>
      <trkpt lat="48.0868" lon="7.16925">
        <ele>849.79998779297</ele>
        <time>2012-07-15T09:14:36.000Z</time>
      </trkpt>
      <trkpt lat="48.08658" lon="7.16929">
        <ele>850.40002441406</ele>
        <time>2012-07-15T09:14:43.000Z</time>
      </trkpt>
      <trkpt lat="48.08634" lon="7.16932">
        <ele>851.20001220703</ele>
        <time>2012-07-15T09:14:51.000Z</time>
      </trkpt>
      <trkpt lat="48.0861" lon="7.16925">
        <ele>851.79998779297</ele>
        <time>2012-07-15T09:14:59.000Z</time>
      </trkpt>
      <trkpt lat="48.08592" lon="7.16918">
        <ele>852.59997558594</ele>
        <time>2012-07-15T09:15:06.000Z</time>
      </trkpt>
      <trkpt lat="48.08576" lon="7.16911">
        <ele>853.40002441406</ele>
        <time>2012-07-15T09:15:12.000Z</time>
      </trkpt>
      <trkpt lat="48.08559" lon="7.16908">
        <ele>854</ele>
        <time>2012-07-15T09:15:18.000Z</time>
      </trkpt>
      <trkpt lat="48.08541" lon="7.16908">
        <ele>854.59997558594</ele>
        <time>2012-07-15T09:15:24.000Z</time>
      </trkpt>
      <trkpt lat="48.08523" lon="7.16909">
        <ele>855</ele>
        <time>2012-07-15T09:15:30.000Z</time>
      </trkpt>
      <trkpt lat="48.08505" lon="7.16901">
        <ele>855.59997558594</ele>
        <time>2012-07-15T09:15:36.000Z</time>
      </trkpt>
      <trkpt lat="48.08488" lon="7.16894">
        <ele>856</ele>
        <time>2012-07-15T09:15:42.000Z</time>
      </trkpt>
      <trkpt lat="48.08473" lon="7.16884">
        <ele>856.59997558594</ele>
        <time>2012-07-15T09:15:47.000Z</time>
      </trkpt>
      <trkpt lat="48.08456" lon="7.16875">
        <ele>857.20001220703</ele>
        <time>2012-07-15T09:15:53.000Z</time>
      </trkpt>
      <trkpt lat="48.08441" lon="7.16864">
        <ele>858</ele>
        <time>2012-07-15T09:15:59.000Z</time>
      </trkpt>
      <trkpt lat="48.08424" lon="7.1685">
        <ele>858.40002441406</ele>
        <time>2012-07-15T09:16:05.000Z</time>
      </trkpt>
      <trkpt lat="48.0841" lon="7.16839">
        <ele>859</ele>
        <time>2012-07-15T09:16:11.000Z</time>
      </trkpt>
      <trkpt lat="48.08393" lon="7.1683">
        <ele>859.59997558594</ele>
        <time>2012-07-15T09:16:17.000Z</time>
      </trkpt>
      <trkpt lat="48.0838" lon="7.16829">
        <ele>860.40002441406</ele>
        <time>2012-07-15T09:16:22.000Z</time>
      </trkpt>
      <trkpt lat="48.0836" lon="7.16833">
        <ele>861.20001220703</ele>
        <time>2012-07-15T09:16:29.000Z</time>
      </trkpt>
      <trkpt lat="48.0834" lon="7.16833">
        <ele>861.59997558594</ele>
        <time>2012-07-15T09:16:35.000Z</time>
      </trkpt>
      <trkpt lat="48.08326" lon="7.1684">
        <ele>862</ele>
        <time>2012-07-15T09:16:40.000Z</time>
      </trkpt>
      <trkpt lat="48.08311" lon="7.16853">
        <ele>862.40002441406</ele>
        <time>2012-07-15T09:16:46.000Z</time>
      </trkpt>
      <trkpt lat="48.08293" lon="7.16869">
        <ele>862.79998779297</ele>
        <time>2012-07-15T09:16:53.000Z</time>
      </trkpt>
      <trkpt lat="48.08277" lon="7.16875">
        <ele>863.20001220703</ele>
        <time>2012-07-15T09:16:58.000Z</time>
      </trkpt>
      <trkpt lat="48.08255" lon="7.16876">
        <ele>864</ele>
        <time>2012-07-15T09:17:05.000Z</time>
      </trkpt>
      <trkpt lat="48.08231" lon="7.16871">
        <ele>864.79998779297</ele>
        <time>2012-07-15T09:17:13.000Z</time>
      </trkpt>
      <trkpt lat="48.08204" lon="7.16868">
        <ele>864.79998779297</ele>
        <time>2012-07-15T09:17:20.000Z</time>
      </trkpt>
      <trkpt lat="48.0819" lon="7.16882">
        <ele>864.20001220703</ele>
        <time>2012-07-15T09:17:24.000Z</time>
      </trkpt>
      <trkpt lat="48.0819" lon="7.16902">
        <ele>863.79998779297</ele>
        <time>2012-07-15T09:17:27.000Z</time>
      </trkpt>
      <trkpt lat="48.08204" lon="7.16955">
        <ele>862.20001220703</ele>
        <time>2012-07-15T09:17:34.000Z</time>
      </trkpt>
      <trkpt lat="48.08226" lon="7.17018">
        <ele>859.40002441406</ele>
        <time>2012-07-15T09:17:40.000Z</time>
      </trkpt>
      <trkpt lat="48.08252" lon="7.17087">
        <ele>856.40002441406</ele>
        <time>2012-07-15T09:17:46.000Z</time>
      </trkpt>
      <trkpt lat="48.08284" lon="7.17161">
        <ele>852.20001220703</ele>
        <time>2012-07-15T09:17:53.000Z</time>
      </trkpt>
      <trkpt lat="48.08288" lon="7.1717">
        <ele>851.79998779297</ele>
        <time>2012-07-15T09:17:54.000Z</time>
      </trkpt>
      <trkpt lat="48.08304" lon="7.17228">
        <ele>851</ele>
        <time>2012-07-15T09:18:01.000Z</time>
      </trkpt>
      <trkpt lat="48.08307" lon="7.17269">
        <ele>852</ele>
        <time>2012-07-15T09:18:07.000Z</time>
      </trkpt>
      <trkpt lat="48.08307" lon="7.17318">
        <ele>853.20001220703</ele>
        <time>2012-07-15T09:18:15.000Z</time>
      </trkpt>
      <trkpt lat="48.08307" lon="7.17362">
        <ele>853</ele>
        <time>2012-07-15T09:18:21.000Z</time>
      </trkpt>
      <trkpt lat="48.08311" lon="7.17419">
        <ele>852</ele>
        <time>2012-07-15T09:18:27.000Z</time>
      </trkpt>
      <trkpt lat="48.08313" lon="7.1744">
        <ele>851.59997558594</ele>
        <time>2012-07-15T09:18:29.000Z</time>
      </trkpt>
      <trkpt lat="48.08323" lon="7.17507">
        <ele>849.79998779297</ele>
        <time>2012-07-15T09:18:35.000Z</time>
      </trkpt>
      <trkpt lat="48.08338" lon="7.17562">
        <ele>847.59997558594</ele>
        <time>2012-07-15T09:18:39.000Z</time>
      </trkpt>
      <trkpt lat="48.08368" lon="7.17622">
        <ele>842.59997558594</ele>
        <time>2012-07-15T09:18:44.000Z</time>
      </trkpt>
      <trkpt lat="48.08393" lon="7.17665">
        <ele>840.20001220703</ele>
        <time>2012-07-15T09:18:49.000Z</time>
      </trkpt>
      <trkpt lat="48.08407" lon="7.17694">
        <ele>839.59997558594</ele>
        <time>2012-07-15T09:18:53.000Z</time>
      </trkpt>
      <trkpt lat="48.08417" lon="7.17715">
        <ele>839.59997558594</ele>
        <time>2012-07-15T09:18:56.000Z</time>
      </trkpt>
      <trkpt lat="48.08443" lon="7.17771">
        <ele>840</ele>
        <time>2012-07-15T09:19:04.000Z</time>
      </trkpt>
      <trkpt lat="48.08462" lon="7.17816">
        <ele>839.79998779297</ele>
        <time>2012-07-15T09:19:10.000Z</time>
      </trkpt>
      <trkpt lat="48.08483" lon="7.17872">
        <ele>839.20001220703</ele>
        <time>2012-07-15T09:19:17.000Z</time>
      </trkpt>
      <trkpt lat="48.0849" lon="7.17909">
        <ele>839.40002441406</ele>
        <time>2012-07-15T09:19:22.000Z</time>
      </trkpt>
      <trkpt lat="48.08493" lon="7.1794">
        <ele>840.20001220703</ele>
        <time>2012-07-15T09:19:28.000Z</time>
      </trkpt>
      <trkpt lat="48.08495" lon="7.17974">
        <ele>841.59997558594</ele>
        <time>2012-07-15T09:19:35.000Z</time>
      </trkpt>
      <trkpt lat="48.08498" lon="7.18012">
        <ele>843.20001220703</ele>
        <time>2012-07-15T09:19:43.000Z</time>
      </trkpt>
      <trkpt lat="48.08503" lon="7.18047">
        <ele>844.59997558594</ele>
        <time>2012-07-15T09:19:51.000Z</time>
      </trkpt>
      <trkpt lat="48.08506" lon="7.18072">
        <ele>846</ele>
        <time>2012-07-15T09:19:58.000Z</time>
      </trkpt>
      <trkpt lat="48.08507" lon="7.18095">
        <ele>847.40002441406</ele>
        <time>2012-07-15T09:20:04.000Z</time>
      </trkpt>
      <trkpt lat="48.08509" lon="7.18111">
        <ele>848.59997558594</ele>
        <time>2012-07-15T09:20:09.000Z</time>
      </trkpt>
      <trkpt lat="48.0851" lon="7.18134">
        <ele>849.79998779297</ele>
        <time>2012-07-15T09:20:15.000Z</time>
      </trkpt>
      <trkpt lat="48.08511" lon="7.18161">
        <ele>850.40002441406</ele>
        <time>2012-07-15T09:20:22.000Z</time>
      </trkpt>
      <trkpt lat="48.08509" lon="7.18188">
        <ele>851.40002441406</ele>
        <time>2012-07-15T09:20:29.000Z</time>
      </trkpt>
      <trkpt lat="48.08509" lon="7.18209">
        <ele>852.59997558594</ele>
        <time>2012-07-15T09:20:35.000Z</time>
      </trkpt>
      <trkpt lat="48.08512" lon="7.18237">
        <ele>854</ele>
        <time>2012-07-15T09:20:42.000Z</time>
      </trkpt>
      <trkpt lat="48.08518" lon="7.18259">
        <ele>854.79998779297</ele>
        <time>2012-07-15T09:20:48.000Z</time>
      </trkpt>
      <trkpt lat="48.08524" lon="7.18283">
        <ele>855.79998779297</ele>
        <time>2012-07-15T09:20:54.000Z</time>
      </trkpt>
      <trkpt lat="48.08529" lon="7.18311">
        <ele>855.59997558594</ele>
        <time>2012-07-15T09:20:59.000Z</time>
      </trkpt>
      <trkpt lat="48.0853" lon="7.18317">
        <ele>855.59997558594</ele>
        <time>2012-07-15T09:21:00.000Z</time>
      </trkpt>
      <trkpt lat="48.08533" lon="7.18345">
        <ele>855.20001220703</ele>
        <time>2012-07-15T09:21:04.000Z</time>
      </trkpt>
      <trkpt lat="48.08537" lon="7.18375">
        <ele>855.79998779297</ele>
        <time>2012-07-15T09:21:10.000Z</time>
      </trkpt>
      <trkpt lat="48.0854" lon="7.18398">
        <ele>857.20001220703</ele>
        <time>2012-07-15T09:21:15.000Z</time>
      </trkpt>
      <trkpt lat="48.08543" lon="7.18421">
        <ele>858.40002441406</ele>
        <time>2012-07-15T09:21:20.000Z</time>
      </trkpt>
      <trkpt lat="48.08547" lon="7.18447">
        <ele>859.20001220703</ele>
        <time>2012-07-15T09:21:26.000Z</time>
      </trkpt>
      <trkpt lat="48.08559" lon="7.1847">
        <ele>859.20001220703</ele>
        <time>2012-07-15T09:21:31.000Z</time>
      </trkpt>
      <trkpt lat="48.0858" lon="7.18497">
        <ele>859.20001220703</ele>
        <time>2012-07-15T09:21:38.000Z</time>
      </trkpt>
      <trkpt lat="48.08597" lon="7.18513">
        <ele>859.59997558594</ele>
        <time>2012-07-15T09:21:43.000Z</time>
      </trkpt>
      <trkpt lat="48.08612" lon="7.18522">
        <ele>859.59997558594</ele>
        <time>2012-07-15T09:21:47.000Z</time>
      </trkpt>
      <trkpt lat="48.08642" lon="7.18524">
        <ele>859</ele>
        <time>2012-07-15T09:21:52.000Z</time>
      </trkpt>
      <trkpt lat="48.08657" lon="7.18525">
        <ele>858.59997558594</ele>
        <time>2012-07-15T09:21:54.000Z</time>
      </trkpt>
      <trkpt lat="48.08705" lon="7.18543">
        <ele>856.59997558594</ele>
        <time>2012-07-15T09:22:00.000Z</time>
      </trkpt>
      <trkpt lat="48.08743" lon="7.18546">
        <ele>854.40002441406</ele>
        <time>2012-07-15T09:22:05.000Z</time>
      </trkpt>
      <trkpt lat="48.08755" lon="7.18545">
        <ele>854</ele>
        <time>2012-07-15T09:22:07.000Z</time>
      </trkpt>
      <trkpt lat="48.08794" lon="7.18548">
        <ele>852.79998779297</ele>
        <time>2012-07-15T09:22:13.000Z</time>
      </trkpt>
      <trkpt lat="48.08825" lon="7.1855">
        <ele>852.20001220703</ele>
        <time>2012-07-15T09:22:18.000Z</time>
      </trkpt>
      <trkpt lat="48.08864" lon="7.18546">
        <ele>851.79998779297</ele>
        <time>2012-07-15T09:22:24.000Z</time>
      </trkpt>
      <trkpt lat="48.08908" lon="7.18538">
        <ele>850.79998779297</ele>
        <time>2012-07-15T09:22:30.000Z</time>
      </trkpt>
      <trkpt lat="48.08932" lon="7.18532">
        <ele>850</ele>
        <time>2012-07-15T09:22:33.000Z</time>
      </trkpt>
      <trkpt lat="48.08948" lon="7.18531">
        <ele>849.20001220703</ele>
        <time>2012-07-15T09:22:35.000Z</time>
      </trkpt>
      <trkpt lat="48.08996" lon="7.18541">
        <ele>846.79998779297</ele>
        <time>2012-07-15T09:22:41.000Z</time>
      </trkpt>
      <trkpt lat="48.09035" lon="7.18559">
        <ele>845.40002441406</ele>
        <time>2012-07-15T09:22:46.000Z</time>
      </trkpt>
      <trkpt lat="48.09055" lon="7.18573">
        <ele>844</ele>
        <time>2012-07-15T09:22:50.000Z</time>
      </trkpt>
      <trkpt lat="48.09058" lon="7.18573">
        <ele>843.40002441406</ele>
        <time>2012-07-15T09:22:51.000Z</time>
      </trkpt>
      <trkpt lat="48.09073" lon="7.18567">
        <ele>841.40002441406</ele>
        <time>2012-07-15T09:22:55.000Z</time>
      </trkpt>
      <trkpt lat="48.09094" lon="7.18568">
        <ele>840</ele>
        <time>2012-07-15T09:22:59.000Z</time>
      </trkpt>
      <trkpt lat="48.09128" lon="7.18577">
        <ele>838.20001220703</ele>
        <time>2012-07-15T09:23:04.000Z</time>
      </trkpt>
      <trkpt lat="48.09155" lon="7.18566">
        <ele>836.40002441406</ele>
        <time>2012-07-15T09:23:08.000Z</time>
      </trkpt>
      <trkpt lat="48.09167" lon="7.18543">
        <ele>836</ele>
        <time>2012-07-15T09:23:11.000Z</time>
      </trkpt>
      <trkpt lat="48.09179" lon="7.18519">
        <ele>836.40002441406</ele>
        <time>2012-07-15T09:23:15.000Z</time>
      </trkpt>
      <trkpt lat="48.09192" lon="7.1849">
        <ele>837</ele>
        <time>2012-07-15T09:23:21.000Z</time>
      </trkpt>
      <trkpt lat="48.09197" lon="7.18468">
        <ele>837.20001220703</ele>
        <time>2012-07-15T09:23:25.000Z</time>
      </trkpt>
      <trkpt lat="48.09204" lon="7.1843">
        <ele>836.40002441406</ele>
        <time>2012-07-15T09:23:30.000Z</time>
      </trkpt>
      <trkpt lat="48.09208" lon="7.18394">
        <ele>835</ele>
        <time>2012-07-15T09:23:34.000Z</time>
      </trkpt>
      <trkpt lat="48.09204" lon="7.1834">
        <ele>832.79998779297</ele>
        <time>2012-07-15T09:23:39.000Z</time>
      </trkpt>
      <trkpt lat="48.09206" lon="7.18292">
        <ele>831.40002441406</ele>
        <time>2012-07-15T09:23:43.000Z</time>
      </trkpt>
      <trkpt lat="48.09212" lon="7.18265">
        <ele>830</ele>
        <time>2012-07-15T09:23:46.000Z</time>
      </trkpt>
      <trkpt lat="48.09221" lon="7.18237">
        <ele>829</ele>
        <time>2012-07-15T09:23:50.000Z</time>
      </trkpt>
      <trkpt lat="48.09228" lon="7.18223">
        <ele>828.59997558594</ele>
        <time>2012-07-15T09:23:52.000Z</time>
      </trkpt>
      <trkpt lat="48.09242" lon="7.18197">
        <ele>828.59997558594</ele>
        <time>2012-07-15T09:23:57.000Z</time>
      </trkpt>
      <trkpt lat="48.09258" lon="7.18171">
        <ele>829</ele>
        <time>2012-07-15T09:24:02.000Z</time>
      </trkpt>
      <trkpt lat="48.0927" lon="7.18144">
        <ele>829.40002441406</ele>
        <time>2012-07-15T09:24:07.000Z</time>
      </trkpt>
      <trkpt lat="48.0929" lon="7.18118">
        <ele>830.20001220703</ele>
        <time>2012-07-15T09:24:13.000Z</time>
      </trkpt>
      <trkpt lat="48.09298" lon="7.18107">
        <ele>830.20001220703</ele>
        <time>2012-07-15T09:24:15.000Z</time>
      </trkpt>
      <trkpt lat="48.09317" lon="7.18068">
        <ele>830</ele>
        <time>2012-07-15T09:24:21.000Z</time>
      </trkpt>
      <trkpt lat="48.09341" lon="7.18034">
        <ele>829.20001220703</ele>
        <time>2012-07-15T09:24:27.000Z</time>
      </trkpt>
      <trkpt lat="48.09354" lon="7.18018">
        <ele>829</ele>
        <time>2012-07-15T09:24:30.000Z</time>
      </trkpt>
      <trkpt lat="48.09366" lon="7.18004">
        <ele>829</ele>
        <time>2012-07-15T09:24:33.000Z</time>
      </trkpt>
      <trkpt lat="48.09397" lon="7.17977">
        <ele>828.40002441406</ele>
        <time>2012-07-15T09:24:39.000Z</time>
      </trkpt>
      <trkpt lat="48.0941" lon="7.17957">
        <ele>827.79998779297</ele>
        <time>2012-07-15T09:24:42.000Z</time>
      </trkpt>
      <trkpt lat="48.09431" lon="7.17921">
        <ele>826.40002441406</ele>
        <time>2012-07-15T09:24:47.000Z</time>
      </trkpt>
      <trkpt lat="48.0944" lon="7.17908">
        <ele>825.79998779297</ele>
        <time>2012-07-15T09:24:49.000Z</time>
      </trkpt>
      <trkpt lat="48.09463" lon="7.17891">
        <ele>824</ele>
        <time>2012-07-15T09:24:53.000Z</time>
      </trkpt>
      <trkpt lat="48.09477" lon="7.17887">
        <ele>823</ele>
        <time>2012-07-15T09:24:55.000Z</time>
      </trkpt>
      <trkpt lat="48.09526" lon="7.17878">
        <ele>820</ele>
        <time>2012-07-15T09:25:01.000Z</time>
      </trkpt>
      <trkpt lat="48.09576" lon="7.17876">
        <ele>816</ele>
        <time>2012-07-15T09:25:06.000Z</time>
      </trkpt>
      <trkpt lat="48.09601" lon="7.17868">
        <ele>813.20001220703</ele>
        <time>2012-07-15T09:25:09.000Z</time>
      </trkpt>
      <trkpt lat="48.09615" lon="7.17858">
        <ele>811</ele>
        <time>2012-07-15T09:25:11.000Z</time>
      </trkpt>
      <trkpt lat="48.09639" lon="7.17829">
        <ele>807.20001220703</ele>
        <time>2012-07-15T09:25:15.000Z</time>
      </trkpt>
      <trkpt lat="48.09673" lon="7.17813">
        <ele>803.59997558594</ele>
        <time>2012-07-15T09:25:20.000Z</time>
      </trkpt>
      <trkpt lat="48.09687" lon="7.17819">
        <ele>802.79998779297</ele>
        <time>2012-07-15T09:25:22.000Z</time>
      </trkpt>
      <trkpt lat="48.09694" lon="7.17824">
        <ele>802</ele>
        <time>2012-07-15T09:25:23.000Z</time>
      </trkpt>
      <trkpt lat="48.09712" lon="7.17839">
        <ele>800.20001220703</ele>
        <time>2012-07-15T09:25:26.000Z</time>
      </trkpt>
      <trkpt lat="48.09729" lon="7.1786">
        <ele>799</ele>
        <time>2012-07-15T09:25:30.000Z</time>
      </trkpt>
      <trkpt lat="48.09736" lon="7.17872">
        <ele>799.20001220703</ele>
        <time>2012-07-15T09:25:32.000Z</time>
      </trkpt>
      <trkpt lat="48.09754" lon="7.17917">
        <ele>800.20001220703</ele>
        <time>2012-07-15T09:25:39.000Z</time>
      </trkpt>
      <trkpt lat="48.09766" lon="7.1795">
        <ele>800.20001220703</ele>
        <time>2012-07-15T09:25:45.000Z</time>
      </trkpt>
      <trkpt lat="48.09772" lon="7.17978">
        <ele>800</ele>
        <time>2012-07-15T09:25:50.000Z</time>
      </trkpt>
      <trkpt lat="48.09775" lon="7.1799">
        <ele>800</ele>
        <time>2012-07-15T09:25:52.000Z</time>
      </trkpt>
      <trkpt lat="48.09779" lon="7.18002">
        <ele>799.79998779297</ele>
        <time>2012-07-15T09:25:54.000Z</time>
      </trkpt>
      <trkpt lat="48.09784" lon="7.18017">
        <ele>799.59997558594</ele>
        <time>2012-07-15T09:25:56.000Z</time>
      </trkpt>
      <trkpt lat="48.09789" lon="7.18033">
        <ele>799.20001220703</ele>
        <time>2012-07-15T09:25:58.000Z</time>
      </trkpt>
      <trkpt lat="48.09792" lon="7.18074">
        <ele>798</ele>
        <time>2012-07-15T09:26:02.000Z</time>
      </trkpt>
      <trkpt lat="48.09787" lon="7.18148">
        <ele>794.79998779297</ele>
        <time>2012-07-15T09:26:08.000Z</time>
      </trkpt>
      <trkpt lat="48.0979" lon="7.1819">
        <ele>792.40002441406</ele>
        <time>2012-07-15T09:26:11.000Z</time>
      </trkpt>
      <trkpt lat="48.09795" lon="7.18215">
        <ele>791.59997558594</ele>
        <time>2012-07-15T09:26:13.000Z</time>
      </trkpt>
      <trkpt lat="48.09798" lon="7.18227">
        <ele>790.59997558594</ele>
        <time>2012-07-15T09:26:14.000Z</time>
      </trkpt>
      <trkpt lat="48.09801" lon="7.18279">
        <ele>786.40002441406</ele>
        <time>2012-07-15T09:26:18.000Z</time>
      </trkpt>
      <trkpt lat="48.098" lon="7.18293">
        <ele>785.59997558594</ele>
        <time>2012-07-15T09:26:19.000Z</time>
      </trkpt>
      <trkpt lat="48.09808" lon="7.18347">
        <ele>782.40002441406</ele>
        <time>2012-07-15T09:26:23.000Z</time>
      </trkpt>
      <trkpt lat="48.09828" lon="7.18429">
        <ele>778.59997558594</ele>
        <time>2012-07-15T09:26:29.000Z</time>
      </trkpt>
      <trkpt lat="48.09846" lon="7.18489">
        <ele>775</ele>
        <time>2012-07-15T09:26:34.000Z</time>
      </trkpt>
      <trkpt lat="48.09857" lon="7.18537">
        <ele>772.20001220703</ele>
        <time>2012-07-15T09:26:38.000Z</time>
      </trkpt>
      <trkpt lat="48.09868" lon="7.18609">
        <ele>767.79998779297</ele>
        <time>2012-07-15T09:26:44.000Z</time>
      </trkpt>
      <trkpt lat="48.0987" lon="7.1862">
        <ele>767.40002441406</ele>
        <time>2012-07-15T09:26:45.000Z</time>
      </trkpt>
      <trkpt lat="48.09877" lon="7.18664">
        <ele>767.79998779297</ele>
        <time>2012-07-15T09:26:50.000Z</time>
      </trkpt>
      <trkpt lat="48.09882" lon="7.18691">
        <ele>768.59997558594</ele>
        <time>2012-07-15T09:26:55.000Z</time>
      </trkpt>
      <trkpt lat="48.09882" lon="7.18697">
        <ele>769</ele>
        <time>2012-07-15T09:26:57.000Z</time>
      </trkpt>
      <trkpt lat="48.09892" lon="7.18704">
        <ele>769.79998779297</ele>
        <time>2012-07-15T09:27:01.000Z</time>
      </trkpt>
      <trkpt lat="48.0991" lon="7.18707">
        <ele>770.20001220703</ele>
        <time>2012-07-15T09:27:05.000Z</time>
      </trkpt>
      <trkpt lat="48.0992" lon="7.18706">
        <ele>770.20001220703</ele>
        <time>2012-07-15T09:27:07.000Z</time>
      </trkpt>
      <trkpt lat="48.09939" lon="7.18698">
        <ele>770</ele>
        <time>2012-07-15T09:27:11.000Z</time>
      </trkpt>
      <trkpt lat="48.09968" lon="7.18667">
        <ele>769.59997558594</ele>
        <time>2012-07-15T09:27:19.000Z</time>
      </trkpt>
      <trkpt lat="48.09984" lon="7.18654">
        <ele>769.59997558594</ele>
        <time>2012-07-15T09:27:23.000Z</time>
      </trkpt>
      <trkpt lat="48.10034" lon="7.18636">
        <ele>770.20001220703</ele>
        <time>2012-07-15T09:27:33.000Z</time>
      </trkpt>
      <trkpt lat="48.10074" lon="7.18639">
        <ele>769.79998779297</ele>
        <time>2012-07-15T09:27:40.000Z</time>
      </trkpt>
      <trkpt lat="48.1013" lon="7.18638">
        <ele>769.59997558594</ele>
        <time>2012-07-15T09:27:50.000Z</time>
      </trkpt>
      <trkpt lat="48.10175" lon="7.18648">
        <ele>769.20001220703</ele>
        <time>2012-07-15T09:27:57.000Z</time>
      </trkpt>
      <trkpt lat="48.10195" lon="7.18656">
        <ele>769</ele>
        <time>2012-07-15T09:28:00.000Z</time>
      </trkpt>
      <trkpt lat="48.10251" lon="7.18662">
        <ele>767</ele>
        <time>2012-07-15T09:28:07.000Z</time>
      </trkpt>
      <trkpt lat="48.10305" lon="7.18671">
        <ele>763.79998779297</ele>
        <time>2012-07-15T09:28:14.000Z</time>
      </trkpt>
      <trkpt lat="48.1032" lon="7.18681">
        <ele>762</ele>
        <time>2012-07-15T09:28:18.000Z</time>
      </trkpt>
      <trkpt lat="48.10336" lon="7.18692">
        <ele>760.59997558594</ele>
        <time>2012-07-15T09:28:23.000Z</time>
      </trkpt>
      <trkpt lat="48.10339" lon="7.18696">
        <ele>760.40002441406</ele>
        <time>2012-07-15T09:28:24.000Z</time>
      </trkpt>
      <trkpt lat="48.10347" lon="7.18715">
        <ele>759.59997558594</ele>
        <time>2012-07-15T09:28:28.000Z</time>
      </trkpt>
      <trkpt lat="48.1035" lon="7.18728">
        <ele>759</ele>
        <time>2012-07-15T09:28:30.000Z</time>
      </trkpt>
      <trkpt lat="48.10357" lon="7.18782">
        <ele>755.79998779297</ele>
        <time>2012-07-15T09:28:36.000Z</time>
      </trkpt>
      <trkpt lat="48.10361" lon="7.18823">
        <ele>753</ele>
        <time>2012-07-15T09:28:40.000Z</time>
      </trkpt>
      <trkpt lat="48.10371" lon="7.18857">
        <ele>750</ele>
        <time>2012-07-15T09:28:44.000Z</time>
      </trkpt>
      <trkpt lat="48.10376" lon="7.18865">
        <ele>750</ele>
        <time>2012-07-15T09:28:45.000Z</time>
      </trkpt>
      <trkpt lat="48.10381" lon="7.18873">
        <ele>749.40002441406</ele>
        <time>2012-07-15T09:28:46.000Z</time>
      </trkpt>
      <trkpt lat="48.10424" lon="7.18932">
        <ele>744.59997558594</ele>
        <time>2012-07-15T09:28:54.000Z</time>
      </trkpt>
      <trkpt lat="48.10444" lon="7.18957">
        <ele>741.79998779297</ele>
        <time>2012-07-15T09:28:58.000Z</time>
      </trkpt>
      <trkpt lat="48.10452" lon="7.18983">
        <ele>739.59997558594</ele>
        <time>2012-07-15T09:29:02.000Z</time>
      </trkpt>
      <trkpt lat="48.10456" lon="7.19007">
        <ele>738.40002441406</ele>
        <time>2012-07-15T09:29:05.000Z</time>
      </trkpt>
      <trkpt lat="48.10481" lon="7.19081">
        <ele>735.59997558594</ele>
        <time>2012-07-15T09:29:13.000Z</time>
      </trkpt>
      <trkpt lat="48.10502" lon="7.1913">
        <ele>733.79998779297</ele>
        <time>2012-07-15T09:29:19.000Z</time>
      </trkpt>
      <trkpt lat="48.10511" lon="7.19158">
        <ele>733.20001220703</ele>
        <time>2012-07-15T09:29:23.000Z</time>
      </trkpt>
      <trkpt lat="48.10514" lon="7.1918">
        <ele>733</ele>
        <time>2012-07-15T09:29:26.000Z</time>
      </trkpt>
      <trkpt lat="48.10511" lon="7.19234">
        <ele>733</ele>
        <time>2012-07-15T09:29:33.000Z</time>
      </trkpt>
      <trkpt lat="48.10511" lon="7.19253">
        <ele>733.20001220703</ele>
        <time>2012-07-15T09:29:37.000Z</time>
      </trkpt>
      <trkpt lat="48.10524" lon="7.19256">
        <ele>734</ele>
        <time>2012-07-15T09:29:42.000Z</time>
      </trkpt>
      <trkpt lat="48.10527" lon="7.19256">
        <ele>734.20001220703</ele>
        <time>2012-07-15T09:29:43.000Z</time>
      </trkpt>
      <trkpt lat="48.10557" lon="7.19245">
        <ele>736.20001220703</ele>
        <time>2012-07-15T09:29:53.000Z</time>
      </trkpt>
      <trkpt lat="48.10586" lon="7.19229">
        <ele>737.79998779297</ele>
        <time>2012-07-15T09:30:02.000Z</time>
      </trkpt>
      <trkpt lat="48.10614" lon="7.19209">
        <ele>738.79998779297</ele>
        <time>2012-07-15T09:30:11.000Z</time>
      </trkpt>
      <trkpt lat="48.1065" lon="7.19183">
        <ele>739.59997558594</ele>
        <time>2012-07-15T09:30:22.000Z</time>
      </trkpt>
      <trkpt lat="48.10679" lon="7.19169">
        <ele>739.59997558594</ele>
        <time>2012-07-15T09:30:30.000Z</time>
      </trkpt>
      <trkpt lat="48.10705" lon="7.19153">
        <ele>740.40002441406</ele>
        <time>2012-07-15T09:30:37.000Z</time>
      </trkpt>
      <trkpt lat="48.10739" lon="7.19123">
        <ele>740</ele>
        <time>2012-07-15T09:30:46.000Z</time>
      </trkpt>
      <trkpt lat="48.10764" lon="7.1911">
        <ele>740.20001220703</ele>
        <time>2012-07-15T09:30:52.000Z</time>
      </trkpt>
      <trkpt lat="48.10782" lon="7.19106">
        <ele>740.20001220703</ele>
        <time>2012-07-15T09:30:56.000Z</time>
      </trkpt>
      <trkpt lat="48.10829" lon="7.19112">
        <ele>739.79998779297</ele>
        <time>2012-07-15T09:31:06.000Z</time>
      </trkpt>
      <trkpt lat="48.10863" lon="7.1913">
        <ele>740.20001220703</ele>
        <time>2012-07-15T09:31:14.000Z</time>
      </trkpt>
      <trkpt lat="48.10877" lon="7.19145">
        <ele>740.40002441406</ele>
        <time>2012-07-15T09:31:18.000Z</time>
      </trkpt>
      <trkpt lat="48.10908" lon="7.192">
        <ele>740.40002441406</ele>
        <time>2012-07-15T09:31:28.000Z</time>
      </trkpt>
      <trkpt lat="48.10933" lon="7.19229">
        <ele>740.59997558594</ele>
        <time>2012-07-15T09:31:35.000Z</time>
      </trkpt>
      <trkpt lat="48.10962" lon="7.19246">
        <ele>741.79998779297</ele>
        <time>2012-07-15T09:31:43.000Z</time>
      </trkpt>
      <trkpt lat="48.10993" lon="7.19249">
        <ele>743.40002441406</ele>
        <time>2012-07-15T09:31:51.000Z</time>
      </trkpt>
      <trkpt lat="48.11024" lon="7.1925">
        <ele>744</ele>
        <time>2012-07-15T09:31:59.000Z</time>
      </trkpt>
      <trkpt lat="48.11056" lon="7.19255">
        <ele>744</ele>
        <time>2012-07-15T09:32:07.000Z</time>
      </trkpt>
      <trkpt lat="48.11093" lon="7.19269">
        <ele>744.59997558594</ele>
        <time>2012-07-15T09:32:16.000Z</time>
      </trkpt>
      <trkpt lat="48.11127" lon="7.19281">
        <ele>744.79998779297</ele>
        <time>2012-07-15T09:32:25.000Z</time>
      </trkpt>
      <trkpt lat="48.11151" lon="7.19288">
        <ele>745.20001220703</ele>
        <time>2012-07-15T09:32:32.000Z</time>
      </trkpt>
      <trkpt lat="48.11166" lon="7.19295">
        <ele>745.40002441406</ele>
        <time>2012-07-15T09:32:36.000Z</time>
      </trkpt>
      <trkpt lat="48.11188" lon="7.19321">
        <ele>745</ele>
        <time>2012-07-15T09:32:42.000Z</time>
      </trkpt>
      <trkpt lat="48.11192" lon="7.19327">
        <ele>744.79998779297</ele>
        <time>2012-07-15T09:32:43.000Z</time>
      </trkpt>
      <trkpt lat="48.11213" lon="7.19345">
        <ele>743.40002441406</ele>
        <time>2012-07-15T09:32:47.000Z</time>
      </trkpt>
      <trkpt lat="48.11226" lon="7.19344">
        <ele>742.40002441406</ele>
        <time>2012-07-15T09:32:49.000Z</time>
      </trkpt>
      <trkpt lat="48.1124" lon="7.19339">
        <ele>741.59997558594</ele>
        <time>2012-07-15T09:32:51.000Z</time>
      </trkpt>
      <trkpt lat="48.11277" lon="7.19341">
        <ele>739.40002441406</ele>
        <time>2012-07-15T09:32:56.000Z</time>
      </trkpt>
      <trkpt lat="48.11339" lon="7.19356">
        <ele>735.59997558594</ele>
        <time>2012-07-15T09:33:04.000Z</time>
      </trkpt>
      <trkpt lat="48.11367" lon="7.19379">
        <ele>733</ele>
        <time>2012-07-15T09:33:08.000Z</time>
      </trkpt>
      <trkpt lat="48.11379" lon="7.19395">
        <ele>731.79998779297</ele>
        <time>2012-07-15T09:33:10.000Z</time>
      </trkpt>
      <trkpt lat="48.11413" lon="7.19422">
        <ele>729.59997558594</ele>
        <time>2012-07-15T09:33:15.000Z</time>
      </trkpt>
      <trkpt lat="48.11433" lon="7.19431">
        <ele>728.79998779297</ele>
        <time>2012-07-15T09:33:18.000Z</time>
      </trkpt>
      <trkpt lat="48.11453" lon="7.19433">
        <ele>728.20001220703</ele>
        <time>2012-07-15T09:33:22.000Z</time>
      </trkpt>
      <trkpt lat="48.11458" lon="7.19421">
        <ele>728</ele>
        <time>2012-07-15T09:33:24.000Z</time>
      </trkpt>
      <trkpt lat="48.11477" lon="7.19364">
        <ele>727</ele>
        <time>2012-07-15T09:33:32.000Z</time>
      </trkpt>
      <trkpt lat="48.11502" lon="7.19312">
        <ele>725</ele>
        <time>2012-07-15T09:33:39.000Z</time>
      </trkpt>
      <trkpt lat="48.11524" lon="7.19277">
        <ele>723.59997558594</ele>
        <time>2012-07-15T09:33:44.000Z</time>
      </trkpt>
      <trkpt lat="48.11536" lon="7.19243">
        <ele>722.40002441406</ele>
        <time>2012-07-15T09:33:48.000Z</time>
      </trkpt>
      <trkpt lat="48.11532" lon="7.19214">
        <ele>721.79998779297</ele>
        <time>2012-07-15T09:33:51.000Z</time>
      </trkpt>
      <trkpt lat="48.11513" lon="7.19186">
        <ele>720.40002441406</ele>
        <time>2012-07-15T09:33:55.000Z</time>
      </trkpt>
      <trkpt lat="48.11506" lon="7.19181">
        <ele>720.20001220703</ele>
        <time>2012-07-15T09:33:56.000Z</time>
      </trkpt>
      <trkpt lat="48.11471" lon="7.19154">
        <ele>718.59997558594</ele>
        <time>2012-07-15T09:34:01.000Z</time>
      </trkpt>
      <trkpt lat="48.11449" lon="7.19121">
        <ele>717.59997558594</ele>
        <time>2012-07-15T09:34:05.000Z</time>
      </trkpt>
      <trkpt lat="48.11424" lon="7.19046">
        <ele>715.40002441406</ele>
        <time>2012-07-15T09:34:12.000Z</time>
      </trkpt>
      <trkpt lat="48.1141" lon="7.18989">
        <ele>713.59997558594</ele>
        <time>2012-07-15T09:34:17.000Z</time>
      </trkpt>
      <trkpt lat="48.11409" lon="7.18939">
        <ele>711.79998779297</ele>
        <time>2012-07-15T09:34:21.000Z</time>
      </trkpt>
      <trkpt lat="48.11425" lon="7.18898">
        <ele>708.40002441406</ele>
        <time>2012-07-15T09:34:25.000Z</time>
      </trkpt>
      <trkpt lat="48.11452" lon="7.18893">
        <ele>704.79998779297</ele>
        <time>2012-07-15T09:34:28.000Z</time>
      </trkpt>
      <trkpt lat="48.1147" lon="7.18904">
        <ele>703.59997558594</ele>
        <time>2012-07-15T09:34:30.000Z</time>
      </trkpt>
      <trkpt lat="48.11478" lon="7.18913">
        <ele>702.40002441406</ele>
        <time>2012-07-15T09:34:31.000Z</time>
      </trkpt>
      <trkpt lat="48.11519" lon="7.18958">
        <ele>697.59997558594</ele>
        <time>2012-07-15T09:34:36.000Z</time>
      </trkpt>
      <trkpt lat="48.11578" lon="7.19003">
        <ele>691.59997558594</ele>
        <time>2012-07-15T09:34:42.000Z</time>
      </trkpt>
      <trkpt lat="48.11633" lon="7.19026">
        <ele>687.20001220703</ele>
        <time>2012-07-15T09:34:47.000Z</time>
      </trkpt>
      <trkpt lat="48.11691" lon="7.19027">
        <ele>682.20001220703</ele>
        <time>2012-07-15T09:34:52.000Z</time>
      </trkpt>
      <trkpt lat="48.11714" lon="7.19024">
        <ele>680</ele>
        <time>2012-07-15T09:34:54.000Z</time>
      </trkpt>
      <trkpt lat="48.11768" lon="7.18996">
        <ele>676</ele>
        <time>2012-07-15T09:34:59.000Z</time>
      </trkpt>
      <trkpt lat="48.11826" lon="7.18947">
        <ele>670</ele>
        <time>2012-07-15T09:35:05.000Z</time>
      </trkpt>
      <trkpt lat="48.11902" lon="7.18881">
        <ele>662</ele>
        <time>2012-07-15T09:35:13.000Z</time>
      </trkpt>
      <trkpt lat="48.11954" lon="7.18855">
        <ele>657</ele>
        <time>2012-07-15T09:35:18.000Z</time>
      </trkpt>
      <trkpt lat="48.11981" lon="7.18845">
        <ele>655</ele>
        <time>2012-07-15T09:35:21.000Z</time>
      </trkpt>
      <trkpt lat="48.12004" lon="7.18836">
        <ele>652</ele>
        <time>2012-07-15T09:35:24.000Z</time>
      </trkpt>
      <trkpt lat="48.1203" lon="7.1881">
        <ele>647.79998779297</ele>
        <time>2012-07-15T09:35:29.000Z</time>
      </trkpt>
      <trkpt lat="48.1204" lon="7.18799">
        <ele>647</ele>
        <time>2012-07-15T09:35:31.000Z</time>
      </trkpt>
      <trkpt lat="48.12072" lon="7.1878">
        <ele>644.79998779297</ele>
        <time>2012-07-15T09:35:36.000Z</time>
      </trkpt>
      <trkpt lat="48.12108" lon="7.1877">
        <ele>642.40002441406</ele>
        <time>2012-07-15T09:35:41.000Z</time>
      </trkpt>
      <trkpt lat="48.12115" lon="7.18768">
        <ele>641.79998779297</ele>
        <time>2012-07-15T09:35:42.000Z</time>
      </trkpt>
      <trkpt lat="48.12153" lon="7.18754">
        <ele>639.59997558594</ele>
        <time>2012-07-15T09:35:47.000Z</time>
      </trkpt>
      <trkpt lat="48.12202" lon="7.18731">
        <ele>635.79998779297</ele>
        <time>2012-07-15T09:35:53.000Z</time>
      </trkpt>
      <trkpt lat="48.12229" lon="7.18721">
        <ele>632.79998779297</ele>
        <time>2012-07-15T09:35:56.000Z</time>
      </trkpt>
      <trkpt lat="48.12241" lon="7.18711">
        <ele>630.40002441406</ele>
        <time>2012-07-15T09:35:58.000Z</time>
      </trkpt>
      <trkpt lat="48.12255" lon="7.18691">
        <ele>625.59997558594</ele>
        <time>2012-07-15T09:36:02.000Z</time>
      </trkpt>
      <trkpt lat="48.12258" lon="7.18686">
        <ele>624.59997558594</ele>
        <time>2012-07-15T09:36:03.000Z</time>
      </trkpt>
      <trkpt lat="48.12267" lon="7.18659">
        <ele>622</ele>
        <time>2012-07-15T09:36:07.000Z</time>
      </trkpt>
      <trkpt lat="48.12271" lon="7.18613">
        <ele>620.59997558594</ele>
        <time>2012-07-15T09:36:12.000Z</time>
      </trkpt>
      <trkpt lat="48.1226" lon="7.18583">
        <ele>619</ele>
        <time>2012-07-15T09:36:15.000Z</time>
      </trkpt>
      <trkpt lat="48.12244" lon="7.18549">
        <ele>616.40002441406</ele>
        <time>2012-07-15T09:36:19.000Z</time>
      </trkpt>
      <trkpt lat="48.12243" lon="7.18521">
        <ele>613.79998779297</ele>
        <time>2012-07-15T09:36:23.000Z</time>
      </trkpt>
      <trkpt lat="48.12255" lon="7.18514">
        <ele>612.79998779297</ele>
        <time>2012-07-15T09:36:26.000Z</time>
      </trkpt>
      <trkpt lat="48.1226" lon="7.18514">
        <ele>612.59997558594</ele>
        <time>2012-07-15T09:36:27.000Z</time>
      </trkpt>
      <trkpt lat="48.12295" lon="7.18515">
        <ele>611.20001220703</ele>
        <time>2012-07-15T09:36:35.000Z</time>
      </trkpt>
      <trkpt lat="48.1233" lon="7.18511">
        <ele>609.20001220703</ele>
        <time>2012-07-15T09:36:42.000Z</time>
      </trkpt>
      <trkpt lat="48.12344" lon="7.1851">
        <ele>608.59997558594</ele>
        <time>2012-07-15T09:36:44.000Z</time>
      </trkpt>
      <trkpt lat="48.12368" lon="7.18521">
        <ele>607.40002441406</ele>
        <time>2012-07-15T09:36:48.000Z</time>
      </trkpt>
      <trkpt lat="48.12379" lon="7.18531">
        <ele>606.79998779297</ele>
        <time>2012-07-15T09:36:50.000Z</time>
      </trkpt>
      <trkpt lat="48.12398" lon="7.18553">
        <ele>605.59997558594</ele>
        <time>2012-07-15T09:36:54.000Z</time>
      </trkpt>
      <trkpt lat="48.12428" lon="7.18566">
        <ele>604</ele>
        <time>2012-07-15T09:36:59.000Z</time>
      </trkpt>
      <trkpt lat="48.12447" lon="7.18562">
        <ele>602.59997558594</ele>
        <time>2012-07-15T09:37:02.000Z</time>
      </trkpt>
      <trkpt lat="48.12465" lon="7.18546">
        <ele>601.59997558594</ele>
        <time>2012-07-15T09:37:05.000Z</time>
      </trkpt>
      <trkpt lat="48.12505" lon="7.18503">
        <ele>598.20001220703</ele>
        <time>2012-07-15T09:37:11.000Z</time>
      </trkpt>
      <trkpt lat="48.12516" lon="7.18489">
        <ele>596.59997558594</ele>
        <time>2012-07-15T09:37:13.000Z</time>
      </trkpt>
      <trkpt lat="48.12532" lon="7.18445">
        <ele>593.40002441406</ele>
        <time>2012-07-15T09:37:17.000Z</time>
      </trkpt>
      <trkpt lat="48.12563" lon="7.18393">
        <ele>588</ele>
        <time>2012-07-15T09:37:22.000Z</time>
      </trkpt>
      <trkpt lat="48.1258" lon="7.18342">
        <ele>583.20001220703</ele>
        <time>2012-07-15T09:37:26.000Z</time>
      </trkpt>
      <trkpt lat="48.12594" lon="7.18319">
        <ele>582.40002441406</ele>
        <time>2012-07-15T09:37:28.000Z</time>
      </trkpt>
      <trkpt lat="48.12628" lon="7.18289">
        <ele>579</ele>
        <time>2012-07-15T09:37:32.000Z</time>
      </trkpt>
      <trkpt lat="48.1268" lon="7.18267">
        <ele>575.20001220703</ele>
        <time>2012-07-15T09:37:38.000Z</time>
      </trkpt>
      <trkpt lat="48.12699" lon="7.18258">
        <ele>574.20001220703</ele>
        <time>2012-07-15T09:37:41.000Z</time>
      </trkpt>
      <trkpt lat="48.12719" lon="7.18244">
        <ele>574.40002441406</ele>
        <time>2012-07-15T09:37:46.000Z</time>
      </trkpt>
      <trkpt lat="48.1273" lon="7.18233">
        <ele>575.79998779297</ele>
        <time>2012-07-15T09:37:51.000Z</time>
      </trkpt>
      <trkpt lat="48.1274" lon="7.18221">
        <ele>577</ele>
        <time>2012-07-15T09:37:56.000Z</time>
      </trkpt>
      <trkpt lat="48.12754" lon="7.18204">
        <ele>578.79998779297</ele>
        <time>2012-07-15T09:38:03.000Z</time>
      </trkpt>
      <trkpt lat="48.12762" lon="7.1818">
        <ele>580.20001220703</ele>
        <time>2012-07-15T09:38:09.000Z</time>
      </trkpt>
      <trkpt lat="48.12755" lon="7.18155">
        <ele>579.79998779297</ele>
        <time>2012-07-15T09:38:13.000Z</time>
      </trkpt>
      <trkpt lat="48.12749" lon="7.18141">
        <ele>579.20001220703</ele>
        <time>2012-07-15T09:38:15.000Z</time>
      </trkpt>
      <trkpt lat="48.12727" lon="7.18104">
        <ele>577.79998779297</ele>
        <time>2012-07-15T09:38:20.000Z</time>
      </trkpt>
      <trkpt lat="48.12716" lon="7.18089">
        <ele>577</ele>
        <time>2012-07-15T09:38:22.000Z</time>
      </trkpt>
      <trkpt lat="48.12673" lon="7.18021">
        <ele>573</ele>
        <time>2012-07-15T09:38:30.000Z</time>
      </trkpt>
      <trkpt lat="48.12625" lon="7.17938">
        <ele>570.20001220703</ele>
        <time>2012-07-15T09:38:40.000Z</time>
      </trkpt>
      <trkpt lat="48.12587" lon="7.17867">
        <ele>567.79998779297</ele>
        <time>2012-07-15T09:38:48.000Z</time>
      </trkpt>
      <trkpt lat="48.12573" lon="7.17825">
        <ele>565.59997558594</ele>
        <time>2012-07-15T09:38:52.000Z</time>
      </trkpt>
      <trkpt lat="48.12567" lon="7.17789">
        <ele>564</ele>
        <time>2012-07-15T09:38:55.000Z</time>
      </trkpt>
      <trkpt lat="48.12568" lon="7.17738">
        <ele>561.79998779297</ele>
        <time>2012-07-15T09:38:59.000Z</time>
      </trkpt>
      <trkpt lat="48.12583" lon="7.17705">
        <ele>559.20001220703</ele>
        <time>2012-07-15T09:39:02.000Z</time>
      </trkpt>
      <trkpt lat="48.12613" lon="7.17646">
        <ele>551.79998779297</ele>
        <time>2012-07-15T09:39:08.000Z</time>
      </trkpt>
      <trkpt lat="48.12619" lon="7.17631">
        <ele>550.79998779297</ele>
        <time>2012-07-15T09:39:10.000Z</time>
      </trkpt>
      <trkpt lat="48.12623" lon="7.17606">
        <ele>548.40002441406</ele>
        <time>2012-07-15T09:39:13.000Z</time>
      </trkpt>
      <trkpt lat="48.12633" lon="7.17566">
        <ele>546.20001220703</ele>
        <time>2012-07-15T09:39:17.000Z</time>
      </trkpt>
      <trkpt lat="48.12645" lon="7.1754">
        <ele>544.40002441406</ele>
        <time>2012-07-15T09:39:20.000Z</time>
      </trkpt>
      <trkpt lat="48.12653" lon="7.17498">
        <ele>541.79998779297</ele>
        <time>2012-07-15T09:39:24.000Z</time>
      </trkpt>
      <trkpt lat="48.12658" lon="7.17433">
        <ele>537.79998779297</ele>
        <time>2012-07-15T09:39:29.000Z</time>
      </trkpt>
      <trkpt lat="48.12669" lon="7.17402">
        <ele>533.59997558594</ele>
        <time>2012-07-15T09:39:32.000Z</time>
      </trkpt>
      <trkpt lat="48.12685" lon="7.17394">
        <ele>530.40002441406</ele>
        <time>2012-07-15T09:39:34.000Z</time>
      </trkpt>
      <trkpt lat="48.12713" lon="7.17385">
        <ele>527</ele>
        <time>2012-07-15T09:39:37.000Z</time>
      </trkpt>
      <trkpt lat="48.12737" lon="7.17361">
        <ele>521.59997558594</ele>
        <time>2012-07-15T09:39:41.000Z</time>
      </trkpt>
      <trkpt lat="48.1274" lon="7.1735">
        <ele>520.40002441406</ele>
        <time>2012-07-15T09:39:42.000Z</time>
      </trkpt>
      <trkpt lat="48.12745" lon="7.17315">
        <ele>517.20001220703</ele>
        <time>2012-07-15T09:39:45.000Z</time>
      </trkpt>
      <trkpt lat="48.12747" lon="7.1726">
        <ele>512.79998779297</ele>
        <time>2012-07-15T09:39:49.000Z</time>
      </trkpt>
      <trkpt lat="48.1276" lon="7.17203">
        <ele>506.39999389648</ele>
        <time>2012-07-15T09:39:53.000Z</time>
      </trkpt>
      <trkpt lat="48.12779" lon="7.17154">
        <ele>499.60000610352</ele>
        <time>2012-07-15T09:39:57.000Z</time>
      </trkpt>
      <trkpt lat="48.12779" lon="7.17128">
        <ele>496.79998779297</ele>
        <time>2012-07-15T09:39:59.000Z</time>
      </trkpt>
      <trkpt lat="48.12776" lon="7.171">
        <ele>495.60000610352</ele>
        <time>2012-07-15T09:40:01.000Z</time>
      </trkpt>
      <trkpt lat="48.12774" lon="7.17086">
        <ele>494.20001220703</ele>
        <time>2012-07-15T09:40:02.000Z</time>
      </trkpt>
      <trkpt lat="48.12755" lon="7.17036">
        <ele>489</ele>
        <time>2012-07-15T09:40:06.000Z</time>
      </trkpt>
      <trkpt lat="48.12732" lon="7.17019">
        <ele>485</ele>
        <time>2012-07-15T09:40:09.000Z</time>
      </trkpt>
      <trkpt lat="48.12715" lon="7.17017">
        <ele>482.39999389648</ele>
        <time>2012-07-15T09:40:11.000Z</time>
      </trkpt>
      <trkpt lat="48.12685" lon="7.17001">
        <ele>476.20001220703</ele>
        <time>2012-07-15T09:40:16.000Z</time>
      </trkpt>
      <trkpt lat="48.12684" lon="7.1699">
        <ele>475</ele>
        <time>2012-07-15T09:40:17.000Z</time>
      </trkpt>
      <trkpt lat="48.12666" lon="7.16931">
        <ele>467.79998779297</ele>
        <time>2012-07-15T09:40:22.000Z</time>
      </trkpt>
      <trkpt lat="48.1265" lon="7.16901">
        <ele>462.79998779297</ele>
        <time>2012-07-15T09:40:25.000Z</time>
      </trkpt>
      <trkpt lat="48.12642" lon="7.16879">
        <ele>461</ele>
        <time>2012-07-15T09:40:27.000Z</time>
      </trkpt>
      <trkpt lat="48.12639" lon="7.16845">
        <ele>455.60000610352</ele>
        <time>2012-07-15T09:40:30.000Z</time>
      </trkpt>
      <trkpt lat="48.12646" lon="7.16816">
        <ele>451.20001220703</ele>
        <time>2012-07-15T09:40:33.000Z</time>
      </trkpt>
      <trkpt lat="48.12654" lon="7.16799">
        <ele>449</ele>
        <time>2012-07-15T09:40:35.000Z</time>
      </trkpt>
      <trkpt lat="48.12665" lon="7.16775">
        <ele>447.39999389648</ele>
        <time>2012-07-15T09:40:38.000Z</time>
      </trkpt>
      <trkpt lat="48.1267" lon="7.16743">
        <ele>447.79998779297</ele>
        <time>2012-07-15T09:40:42.000Z</time>
      </trkpt>
      <trkpt lat="48.1267" lon="7.16735">
        <ele>448</ele>
        <time>2012-07-15T09:40:43.000Z</time>
      </trkpt>
      <trkpt lat="48.12669" lon="7.16665">
        <ele>449.79998779297</ele>
        <time>2012-07-15T09:40:52.000Z</time>
      </trkpt>
      <trkpt lat="48.12666" lon="7.16636">
        <ele>450.39999389648</ele>
        <time>2012-07-15T09:40:56.000Z</time>
      </trkpt>
      <trkpt lat="48.12663" lon="7.16592">
        <ele>450.79998779297</ele>
        <time>2012-07-15T09:41:02.000Z</time>
      </trkpt>
      <trkpt lat="48.12667" lon="7.16571">
        <ele>450.39999389648</ele>
        <time>2012-07-15T09:41:06.000Z</time>
      </trkpt>
      <trkpt lat="48.12671" lon="7.16572">
        <ele>450</ele>
        <time>2012-07-15T09:41:10.000Z</time>
      </trkpt>
      <trkpt lat="48.12673" lon="7.16573">
        <ele>449.79998779297</ele>
        <time>2012-07-15T09:41:18.000Z</time>
      </trkpt>
      <trkpt lat="48.12679" lon="7.16575">
        <ele>449.79998779297</ele>
        <time>2012-07-15T09:41:30.000Z</time>
      </trkpt>
      <trkpt lat="48.12688" lon="7.16581">
        <ele>449.79998779297</ele>
        <time>2012-07-15T09:41:33.000Z</time>
      </trkpt>
      <trkpt lat="48.12703" lon="7.16594">
        <ele>449.60000610352</ele>
        <time>2012-07-15T09:41:37.000Z</time>
      </trkpt>
      <trkpt lat="48.12718" lon="7.16587">
        <ele>449.39999389648</ele>
        <time>2012-07-15T09:41:41.000Z</time>
      </trkpt>
      <trkpt lat="48.1272" lon="7.1658">
        <ele>449.39999389648</ele>
        <time>2012-07-15T09:41:42.000Z</time>
      </trkpt>
      <trkpt lat="48.12728" lon="7.1653">
        <ele>450.39999389648</ele>
        <time>2012-07-15T09:41:50.000Z</time>
      </trkpt>
      <trkpt lat="48.12738" lon="7.16478">
        <ele>453</ele>
        <time>2012-07-15T09:41:59.000Z</time>
      </trkpt>
      <trkpt lat="48.1275" lon="7.16433">
        <ele>455.39999389648</ele>
        <time>2012-07-15T09:42:08.000Z</time>
      </trkpt>
      <trkpt lat="48.12759" lon="7.16401">
        <ele>457.60000610352</ele>
        <time>2012-07-15T09:42:15.000Z</time>
      </trkpt>
      <trkpt lat="48.12761" lon="7.16371">
        <ele>459.20001220703</ele>
        <time>2012-07-15T09:42:21.000Z</time>
      </trkpt>
      <trkpt lat="48.12763" lon="7.16322">
        <ele>461.60000610352</ele>
        <time>2012-07-15T09:42:31.000Z</time>
      </trkpt>
      <trkpt lat="48.12769" lon="7.16278">
        <ele>463.79998779297</ele>
        <time>2012-07-15T09:42:41.000Z</time>
      </trkpt>
      <trkpt lat="48.12773" lon="7.16233">
        <ele>466.79998779297</ele>
        <time>2012-07-15T09:42:51.000Z</time>
      </trkpt>
      <trkpt lat="48.12782" lon="7.16176">
        <ele>469</ele>
        <time>2012-07-15T09:43:03.000Z</time>
      </trkpt>
      <trkpt lat="48.12793" lon="7.16123">
        <ele>470</ele>
        <time>2012-07-15T09:43:13.000Z</time>
      </trkpt>
      <trkpt lat="48.12803" lon="7.16073">
        <ele>469.60000610352</ele>
        <time>2012-07-15T09:43:21.000Z</time>
      </trkpt>
      <trkpt lat="48.12799" lon="7.16023">
        <ele>470</ele>
        <time>2012-07-15T09:43:29.000Z</time>
      </trkpt>
      <trkpt lat="48.12791" lon="7.15981">
        <ele>471.39999389648</ele>
        <time>2012-07-15T09:43:36.000Z</time>
      </trkpt>
      <trkpt lat="48.12786" lon="7.15971">
        <ele>471.79998779297</ele>
        <time>2012-07-15T09:43:38.000Z</time>
      </trkpt>
      <trkpt lat="48.12762" lon="7.15945">
        <ele>472.79998779297</ele>
        <time>2012-07-15T09:43:45.000Z</time>
      </trkpt>
      <trkpt lat="48.12729" lon="7.15919">
        <ele>472.60000610352</ele>
        <time>2012-07-15T09:43:53.000Z</time>
      </trkpt>
      <trkpt lat="48.12692" lon="7.15895">
        <ele>472.60000610352</ele>
        <time>2012-07-15T09:44:01.000Z</time>
      </trkpt>
      <trkpt lat="48.12674" lon="7.15867">
        <ele>472</ele>
        <time>2012-07-15T09:44:06.000Z</time>
      </trkpt>
      <trkpt lat="48.12672" lon="7.15859">
        <ele>472</ele>
        <time>2012-07-15T09:44:07.000Z</time>
      </trkpt>
      <trkpt lat="48.1266" lon="7.15805">
        <ele>472.60000610352</ele>
        <time>2012-07-15T09:44:15.000Z</time>
      </trkpt>
      <trkpt lat="48.12649" lon="7.15771">
        <ele>474</ele>
        <time>2012-07-15T09:44:21.000Z</time>
      </trkpt>
      <trkpt lat="48.12641" lon="7.15722">
        <ele>475.20001220703</ele>
        <time>2012-07-15T09:44:29.000Z</time>
      </trkpt>
      <trkpt lat="48.12635" lon="7.15674">
        <ele>476</ele>
        <time>2012-07-15T09:44:37.000Z</time>
      </trkpt>
      <trkpt lat="48.12628" lon="7.15644">
        <ele>477</ele>
        <time>2012-07-15T09:44:43.000Z</time>
      </trkpt>
      <trkpt lat="48.12615" lon="7.15621">
        <ele>477.79998779297</ele>
        <time>2012-07-15T09:44:49.000Z</time>
      </trkpt>
      <trkpt lat="48.1261" lon="7.15614">
        <ele>478.20001220703</ele>
        <time>2012-07-15T09:44:51.000Z</time>
      </trkpt>
      <trkpt lat="48.1261" lon="7.15589">
        <ele>478.79998779297</ele>
        <time>2012-07-15T09:44:56.000Z</time>
      </trkpt>
      <trkpt lat="48.12614" lon="7.15556">
        <ele>479.79998779297</ele>
        <time>2012-07-15T09:45:03.000Z</time>
      </trkpt>
      <trkpt lat="48.12614" lon="7.15518">
        <ele>481.79998779297</ele>
        <time>2012-07-15T09:45:12.000Z</time>
      </trkpt>
      <trkpt lat="48.12612" lon="7.15495">
        <ele>483.60000610352</ele>
        <time>2012-07-15T09:45:19.000Z</time>
      </trkpt>
      <trkpt lat="48.12611" lon="7.15466">
        <ele>485.79998779297</ele>
        <time>2012-07-15T09:45:28.000Z</time>
      </trkpt>
      <trkpt lat="48.12614" lon="7.1544">
        <ele>487.79998779297</ele>
        <time>2012-07-15T09:45:35.000Z</time>
      </trkpt>
      <trkpt lat="48.12626" lon="7.15419">
        <ele>489</ele>
        <time>2012-07-15T09:45:43.000Z</time>
      </trkpt>
      <trkpt lat="48.12644" lon="7.15393">
        <ele>490.60000610352</ele>
        <time>2012-07-15T09:45:53.000Z</time>
      </trkpt>
      <trkpt lat="48.12665" lon="7.15361">
        <ele>492.79998779297</ele>
        <time>2012-07-15T09:46:04.000Z</time>
      </trkpt>
      <trkpt lat="48.12682" lon="7.15333">
        <ele>493.60000610352</ele>
        <time>2012-07-15T09:46:13.000Z</time>
      </trkpt>
      <trkpt lat="48.12692" lon="7.15313">
        <ele>494.20001220703</ele>
        <time>2012-07-15T09:46:19.000Z</time>
      </trkpt>
      <trkpt lat="48.12707" lon="7.15275">
        <ele>495.60000610352</ele>
        <time>2012-07-15T09:46:29.000Z</time>
      </trkpt>
      <trkpt lat="48.12712" lon="7.15235">
        <ele>496.39999389648</ele>
        <time>2012-07-15T09:46:38.000Z</time>
      </trkpt>
      <trkpt lat="48.12715" lon="7.15193">
        <ele>497.79998779297</ele>
        <time>2012-07-15T09:46:48.000Z</time>
      </trkpt>
      <trkpt lat="48.1272" lon="7.15152">
        <ele>500</ele>
        <time>2012-07-15T09:46:58.000Z</time>
      </trkpt>
      <trkpt lat="48.12733" lon="7.15124">
        <ele>500.79998779297</ele>
        <time>2012-07-15T09:47:06.000Z</time>
      </trkpt>
      <trkpt lat="48.1275" lon="7.15103">
        <ele>502.39999389648</ele>
        <time>2012-07-15T09:47:15.000Z</time>
      </trkpt>
      <trkpt lat="48.12764" lon="7.1508">
        <ele>505</ele>
        <time>2012-07-15T09:47:24.000Z</time>
      </trkpt>
      <trkpt lat="48.12774" lon="7.15047">
        <ele>507.60000610352</ele>
        <time>2012-07-15T09:47:35.000Z</time>
      </trkpt>
      <trkpt lat="48.12779" lon="7.15029">
        <ele>509</ele>
        <time>2012-07-15T09:47:41.000Z</time>
      </trkpt>
      <trkpt lat="48.12798" lon="7.15009">
        <ele>510.39999389648</ele>
        <time>2012-07-15T09:47:50.000Z</time>
      </trkpt>
      <trkpt lat="48.12818" lon="7.14983">
        <ele>511.60000610352</ele>
        <time>2012-07-15T09:48:00.000Z</time>
      </trkpt>
      <trkpt lat="48.12833" lon="7.14955">
        <ele>513.40002441406</ele>
        <time>2012-07-15T09:48:09.000Z</time>
      </trkpt>
      <trkpt lat="48.12852" lon="7.14918">
        <ele>516.40002441406</ele>
        <time>2012-07-15T09:48:21.000Z</time>
      </trkpt>
      <trkpt lat="48.12872" lon="7.14887">
        <ele>518.79998779297</ele>
        <time>2012-07-15T09:48:32.000Z</time>
      </trkpt>
      <trkpt lat="48.12892" lon="7.14864">
        <ele>520.40002441406</ele>
        <time>2012-07-15T09:48:41.000Z</time>
      </trkpt>
      <trkpt lat="48.1292" lon="7.14837">
        <ele>522.40002441406</ele>
        <time>2012-07-15T09:48:53.000Z</time>
      </trkpt>
      <trkpt lat="48.12944" lon="7.14816">
        <ele>524.79998779297</ele>
        <time>2012-07-15T09:49:03.000Z</time>
      </trkpt>
      <trkpt lat="48.12969" lon="7.14793">
        <ele>527.20001220703</ele>
        <time>2012-07-15T09:49:14.000Z</time>
      </trkpt>
      <trkpt lat="48.1298" lon="7.14782">
        <ele>528.40002441406</ele>
        <time>2012-07-15T09:49:19.000Z</time>
      </trkpt>
      <trkpt lat="48.12996" lon="7.14767">
        <ele>530.20001220703</ele>
        <time>2012-07-15T09:49:26.000Z</time>
      </trkpt>
      <trkpt lat="48.13012" lon="7.14752">
        <ele>531.20001220703</ele>
        <time>2012-07-15T09:49:33.000Z</time>
      </trkpt>
      <trkpt lat="48.13031" lon="7.14733">
        <ele>532.20001220703</ele>
        <time>2012-07-15T09:49:41.000Z</time>
      </trkpt>
      <trkpt lat="48.13054" lon="7.14716">
        <ele>533.40002441406</ele>
        <time>2012-07-15T09:49:50.000Z</time>
      </trkpt>
      <trkpt lat="48.13078" lon="7.14701">
        <ele>534.79998779297</ele>
        <time>2012-07-15T09:49:59.000Z</time>
      </trkpt>
      <trkpt lat="48.13104" lon="7.14684">
        <ele>536.40002441406</ele>
        <time>2012-07-15T09:50:09.000Z</time>
      </trkpt>
      <trkpt lat="48.1313" lon="7.1467">
        <ele>538.40002441406</ele>
        <time>2012-07-15T09:50:19.000Z</time>
      </trkpt>
      <trkpt lat="48.13153" lon="7.14655">
        <ele>540.40002441406</ele>
        <time>2012-07-15T09:50:29.000Z</time>
      </trkpt>
      <trkpt lat="48.13179" lon="7.14641">
        <ele>543</ele>
        <time>2012-07-15T09:50:40.000Z</time>
      </trkpt>
      <trkpt lat="48.13197" lon="7.14632">
        <ele>544.79998779297</ele>
        <time>2012-07-15T09:50:48.000Z</time>
      </trkpt>
      <trkpt lat="48.13224" lon="7.14619">
        <ele>546.79998779297</ele>
        <time>2012-07-15T09:51:00.000Z</time>
      </trkpt>
      <trkpt lat="48.13248" lon="7.14605">
        <ele>549.40002441406</ele>
        <time>2012-07-15T09:51:11.000Z</time>
      </trkpt>
      <trkpt lat="48.13275" lon="7.14584">
        <ele>552</ele>
        <time>2012-07-15T09:51:24.000Z</time>
      </trkpt>
      <trkpt lat="48.13299" lon="7.14564">
        <ele>554.59997558594</ele>
        <time>2012-07-15T09:51:36.000Z</time>
      </trkpt>
      <trkpt lat="48.13322" lon="7.14547">
        <ele>556.79998779297</ele>
        <time>2012-07-15T09:51:47.000Z</time>
      </trkpt>
      <trkpt lat="48.13342" lon="7.14534">
        <ele>558.20001220703</ele>
        <time>2012-07-15T09:51:56.000Z</time>
      </trkpt>
      <trkpt lat="48.13359" lon="7.14521">
        <ele>560</ele>
        <time>2012-07-15T09:52:04.000Z</time>
      </trkpt>
      <trkpt lat="48.13378" lon="7.14504">
        <ele>561.40002441406</ele>
        <time>2012-07-15T09:52:13.000Z</time>
      </trkpt>
      <trkpt lat="48.13388" lon="7.14488">
        <ele>563</ele>
        <time>2012-07-15T09:52:20.000Z</time>
      </trkpt>
      <trkpt lat="48.13384" lon="7.14475">
        <ele>563.59997558594</ele>
        <time>2012-07-15T09:52:24.000Z</time>
      </trkpt>
      <trkpt lat="48.13371" lon="7.14462">
        <ele>564.59997558594</ele>
        <time>2012-07-15T09:52:31.000Z</time>
      </trkpt>
      <trkpt lat="48.13354" lon="7.14449">
        <ele>566.40002441406</ele>
        <time>2012-07-15T09:52:40.000Z</time>
      </trkpt>
      <trkpt lat="48.13331" lon="7.14429">
        <ele>570</ele>
        <time>2012-07-15T09:52:53.000Z</time>
      </trkpt>
      <trkpt lat="48.13313" lon="7.1441">
        <ele>572.79998779297</ele>
        <time>2012-07-15T09:53:04.000Z</time>
      </trkpt>
      <trkpt lat="48.133" lon="7.14393">
        <ele>575</ele>
        <time>2012-07-15T09:53:12.000Z</time>
      </trkpt>
      <trkpt lat="48.13281" lon="7.1438">
        <ele>575.79998779297</ele>
        <time>2012-07-15T09:53:18.000Z</time>
      </trkpt>
      <trkpt lat="48.13255" lon="7.14368">
        <ele>575</ele>
        <time>2012-07-15T09:53:23.000Z</time>
      </trkpt>
      <trkpt lat="48.13212" lon="7.14347">
        <ele>572.59997558594</ele>
        <time>2012-07-15T09:53:29.000Z</time>
      </trkpt>
      <trkpt lat="48.13172" lon="7.14328">
        <ele>571.20001220703</ele>
        <time>2012-07-15T09:53:34.000Z</time>
      </trkpt>
      <trkpt lat="48.13129" lon="7.14311">
        <ele>569.40002441406</ele>
        <time>2012-07-15T09:53:40.000Z</time>
      </trkpt>
      <trkpt lat="48.131" lon="7.14296">
        <ele>568.59997558594</ele>
        <time>2012-07-15T09:53:45.000Z</time>
      </trkpt>
      <trkpt lat="48.13076" lon="7.14284">
        <ele>569.40002441406</ele>
        <time>2012-07-15T09:53:51.000Z</time>
      </trkpt>
      <trkpt lat="48.13055" lon="7.14274">
        <ele>571</ele>
        <time>2012-07-15T09:53:58.000Z</time>
      </trkpt>
      <trkpt lat="48.13035" lon="7.14266">
        <ele>573</ele>
        <time>2012-07-15T09:54:06.000Z</time>
      </trkpt>
      <trkpt lat="48.13013" lon="7.14255">
        <ele>576</ele>
        <time>2012-07-15T09:54:17.000Z</time>
      </trkpt>
      <trkpt lat="48.12996" lon="7.14244">
        <ele>578</ele>
        <time>2012-07-15T09:54:26.000Z</time>
      </trkpt>
      <trkpt lat="48.12978" lon="7.14229">
        <ele>580.79998779297</ele>
        <time>2012-07-15T09:54:37.000Z</time>
      </trkpt>
      <trkpt lat="48.12962" lon="7.14217">
        <ele>582.59997558594</ele>
        <time>2012-07-15T09:54:46.000Z</time>
      </trkpt>
      <trkpt lat="48.1296" lon="7.14216">
        <ele>583.59997558594</ele>
        <time>2012-07-15T09:54:51.000Z</time>
      </trkpt>
      <trkpt lat="48.1296" lon="7.14218">
        <ele>583.79998779297</ele>
        <time>2012-07-15T09:56:26.000Z</time>
      </trkpt>
      <trkpt lat="48.12955" lon="7.14206">
        <ele>584.20001220703</ele>
        <time>2012-07-15T09:56:32.000Z</time>
      </trkpt>
      <trkpt lat="48.12938" lon="7.14187">
        <ele>586.20001220703</ele>
        <time>2012-07-15T09:56:41.000Z</time>
      </trkpt>
      <trkpt lat="48.12919" lon="7.14172">
        <ele>588.59997558594</ele>
        <time>2012-07-15T09:56:50.000Z</time>
      </trkpt>
      <trkpt lat="48.12894" lon="7.14153">
        <ele>591.59997558594</ele>
        <time>2012-07-15T09:57:02.000Z</time>
      </trkpt>
      <trkpt lat="48.12867" lon="7.14134">
        <ele>594.79998779297</ele>
        <time>2012-07-15T09:57:15.000Z</time>
      </trkpt>
      <trkpt lat="48.12842" lon="7.14118">
        <ele>597.40002441406</ele>
        <time>2012-07-15T09:57:27.000Z</time>
      </trkpt>
      <trkpt lat="48.12822" lon="7.14113">
        <ele>599.59997558594</ele>
        <time>2012-07-15T09:57:36.000Z</time>
      </trkpt>
      <trkpt lat="48.12798" lon="7.14111">
        <ele>602.20001220703</ele>
        <time>2012-07-15T09:57:47.000Z</time>
      </trkpt>
      <trkpt lat="48.12777" lon="7.14101">
        <ele>604.40002441406</ele>
        <time>2012-07-15T09:57:56.000Z</time>
      </trkpt>
      <trkpt lat="48.12766" lon="7.1408">
        <ele>605.59997558594</ele>
        <time>2012-07-15T09:58:03.000Z</time>
      </trkpt>
      <trkpt lat="48.12764" lon="7.14058">
        <ele>606.40002441406</ele>
        <time>2012-07-15T09:58:09.000Z</time>
      </trkpt>
      <trkpt lat="48.12774" lon="7.14038">
        <ele>608</ele>
        <time>2012-07-15T09:58:16.000Z</time>
      </trkpt>
      <trkpt lat="48.12791" lon="7.14029">
        <ele>610.20001220703</ele>
        <time>2012-07-15T09:58:24.000Z</time>
      </trkpt>
      <trkpt lat="48.12816" lon="7.14016">
        <ele>613.59997558594</ele>
        <time>2012-07-15T09:58:36.000Z</time>
      </trkpt>
      <trkpt lat="48.12831" lon="7.14004">
        <ele>615.79998779297</ele>
        <time>2012-07-15T09:58:44.000Z</time>
      </trkpt>
      <trkpt lat="48.12843" lon="7.13977">
        <ele>618.40002441406</ele>
        <time>2012-07-15T09:58:54.000Z</time>
      </trkpt>
      <trkpt lat="48.12855" lon="7.1394">
        <ele>621</ele>
        <time>2012-07-15T09:59:06.000Z</time>
      </trkpt>
      <trkpt lat="48.12862" lon="7.13909">
        <ele>622.40002441406</ele>
        <time>2012-07-15T09:59:15.000Z</time>
      </trkpt>
      <trkpt lat="48.1287" lon="7.13868">
        <ele>623.59997558594</ele>
        <time>2012-07-15T09:59:25.000Z</time>
      </trkpt>
      <trkpt lat="48.12882" lon="7.13819">
        <ele>625</ele>
        <time>2012-07-15T09:59:36.000Z</time>
      </trkpt>
      <trkpt lat="48.12901" lon="7.13767">
        <ele>626.79998779297</ele>
        <time>2012-07-15T09:59:49.000Z</time>
      </trkpt>
      <trkpt lat="48.12917" lon="7.13725">
        <ele>628</ele>
        <time>2012-07-15T10:00:00.000Z</time>
      </trkpt>
      <trkpt lat="48.12918" lon="7.13699">
        <ele>629.59997558594</ele>
        <time>2012-07-15T10:00:07.000Z</time>
      </trkpt>
      <trkpt lat="48.12926" lon="7.1369">
        <ele>631</ele>
        <time>2012-07-15T10:00:12.000Z</time>
      </trkpt>
      <trkpt lat="48.12941" lon="7.1369">
        <ele>632.79998779297</ele>
        <time>2012-07-15T10:00:19.000Z</time>
      </trkpt>
      <trkpt lat="48.12959" lon="7.13683">
        <ele>635.40002441406</ele>
        <time>2012-07-15T10:00:28.000Z</time>
      </trkpt>
      <trkpt lat="48.12973" lon="7.13679">
        <ele>637.40002441406</ele>
        <time>2012-07-15T10:00:35.000Z</time>
      </trkpt>
      <trkpt lat="48.12991" lon="7.13679">
        <ele>639.59997558594</ele>
        <time>2012-07-15T10:00:44.000Z</time>
      </trkpt>
      <trkpt lat="48.12995" lon="7.13676">
        <ele>640</ele>
        <time>2012-07-15T10:00:46.000Z</time>
      </trkpt>
      <trkpt lat="48.12993" lon="7.13664">
        <ele>641.40002441406</ele>
        <time>2012-07-15T10:00:51.000Z</time>
      </trkpt>
      <trkpt lat="48.12988" lon="7.13662">
        <ele>641.79998779297</ele>
        <time>2012-07-15T10:00:53.000Z</time>
      </trkpt>
      <trkpt lat="48.12967" lon="7.13658">
        <ele>643.20001220703</ele>
        <time>2012-07-15T10:01:02.000Z</time>
      </trkpt>
      <trkpt lat="48.12946" lon="7.13636">
        <ele>644.40002441406</ele>
        <time>2012-07-15T10:01:12.000Z</time>
      </trkpt>
      <trkpt lat="48.12934" lon="7.13614">
        <ele>646.20001220703</ele>
        <time>2012-07-15T10:01:20.000Z</time>
      </trkpt>
      <trkpt lat="48.12921" lon="7.13589">
        <ele>648.20001220703</ele>
        <time>2012-07-15T10:01:29.000Z</time>
      </trkpt>
      <trkpt lat="48.1291" lon="7.13566">
        <ele>649.79998779297</ele>
        <time>2012-07-15T10:01:37.000Z</time>
      </trkpt>
      <trkpt lat="48.12897" lon="7.1353">
        <ele>652.79998779297</ele>
        <time>2012-07-15T10:01:49.000Z</time>
      </trkpt>
      <trkpt lat="48.12889" lon="7.13499">
        <ele>655</ele>
        <time>2012-07-15T10:01:59.000Z</time>
      </trkpt>
      <trkpt lat="48.12886" lon="7.13464">
        <ele>657.59997558594</ele>
        <time>2012-07-15T10:02:09.000Z</time>
      </trkpt>
      <trkpt lat="48.12886" lon="7.13424">
        <ele>660.20001220703</ele>
        <time>2012-07-15T10:02:20.000Z</time>
      </trkpt>
      <trkpt lat="48.12893" lon="7.13388">
        <ele>661.40002441406</ele>
        <time>2012-07-15T10:02:30.000Z</time>
      </trkpt>
      <trkpt lat="48.1291" lon="7.1335">
        <ele>663.20001220703</ele>
        <time>2012-07-15T10:02:42.000Z</time>
      </trkpt>
      <trkpt lat="48.12925" lon="7.13321">
        <ele>665.40002441406</ele>
        <time>2012-07-15T10:02:52.000Z</time>
      </trkpt>
      <trkpt lat="48.12946" lon="7.13296">
        <ele>667.40002441406</ele>
        <time>2012-07-15T10:03:03.000Z</time>
      </trkpt>
      <trkpt lat="48.12963" lon="7.13265">
        <ele>669</ele>
        <time>2012-07-15T10:03:13.000Z</time>
      </trkpt>
      <trkpt lat="48.12979" lon="7.13229">
        <ele>669.79998779297</ele>
        <time>2012-07-15T10:03:23.000Z</time>
      </trkpt>
      <trkpt lat="48.12996" lon="7.13206">
        <ele>671</ele>
        <time>2012-07-15T10:03:31.000Z</time>
      </trkpt>
      <trkpt lat="48.13012" lon="7.1319">
        <ele>672.59997558594</ele>
        <time>2012-07-15T10:03:39.000Z</time>
      </trkpt>
      <trkpt lat="48.13033" lon="7.13174">
        <ele>675.20001220703</ele>
        <time>2012-07-15T10:03:50.000Z</time>
      </trkpt>
      <trkpt lat="48.13052" lon="7.13151">
        <ele>678.40002441406</ele>
        <time>2012-07-15T10:04:02.000Z</time>
      </trkpt>
      <trkpt lat="48.13071" lon="7.13124">
        <ele>681.79998779297</ele>
        <time>2012-07-15T10:04:15.000Z</time>
      </trkpt>
      <trkpt lat="48.13086" lon="7.131">
        <ele>684.59997558594</ele>
        <time>2012-07-15T10:04:26.000Z</time>
      </trkpt>
      <trkpt lat="48.13097" lon="7.13081">
        <ele>686.79998779297</ele>
        <time>2012-07-15T10:04:35.000Z</time>
      </trkpt>
      <trkpt lat="48.13105" lon="7.1306">
        <ele>689.59997558594</ele>
        <time>2012-07-15T10:04:44.000Z</time>
      </trkpt>
      <trkpt lat="48.13106" lon="7.13029">
        <ele>692.20001220703</ele>
        <time>2012-07-15T10:04:55.000Z</time>
      </trkpt>
      <trkpt lat="48.13107" lon="7.12999">
        <ele>695</ele>
        <time>2012-07-15T10:05:06.000Z</time>
      </trkpt>
      <trkpt lat="48.13109" lon="7.12965">
        <ele>697.79998779297</ele>
        <time>2012-07-15T10:05:18.000Z</time>
      </trkpt>
      <trkpt lat="48.13111" lon="7.12939">
        <ele>700</ele>
        <time>2012-07-15T10:05:27.000Z</time>
      </trkpt>
      <trkpt lat="48.13108" lon="7.12912">
        <ele>702</ele>
        <time>2012-07-15T10:05:37.000Z</time>
      </trkpt>
      <trkpt lat="48.13103" lon="7.12886">
        <ele>703.79998779297</ele>
        <time>2012-07-15T10:05:46.000Z</time>
      </trkpt>
      <trkpt lat="48.13101" lon="7.12853">
        <ele>705.59997558594</ele>
        <time>2012-07-15T10:05:57.000Z</time>
      </trkpt>
      <trkpt lat="48.13102" lon="7.12824">
        <ele>707.40002441406</ele>
        <time>2012-07-15T10:06:06.000Z</time>
      </trkpt>
      <trkpt lat="48.13102" lon="7.12794">
        <ele>709</ele>
        <time>2012-07-15T10:06:16.000Z</time>
      </trkpt>
      <trkpt lat="48.13108" lon="7.12758">
        <ele>711.20001220703</ele>
        <time>2012-07-15T10:06:27.000Z</time>
      </trkpt>
      <trkpt lat="48.13113" lon="7.12728">
        <ele>713</ele>
        <time>2012-07-15T10:06:37.000Z</time>
      </trkpt>
      <trkpt lat="48.13117" lon="7.12702">
        <ele>715</ele>
        <time>2012-07-15T10:06:46.000Z</time>
      </trkpt>
      <trkpt lat="48.13122" lon="7.12684">
        <ele>716.59997558594</ele>
        <time>2012-07-15T10:06:53.000Z</time>
      </trkpt>
      <trkpt lat="48.13125" lon="7.1267">
        <ele>718</ele>
        <time>2012-07-15T10:06:59.000Z</time>
      </trkpt>
      <trkpt lat="48.13134" lon="7.12653">
        <ele>720</ele>
        <time>2012-07-15T10:07:07.000Z</time>
      </trkpt>
      <trkpt lat="48.1314" lon="7.12662">
        <ele>721</ele>
        <time>2012-07-15T10:07:12.000Z</time>
      </trkpt>
      <trkpt lat="48.13142" lon="7.12676">
        <ele>721.79998779297</ele>
        <time>2012-07-15T10:07:17.000Z</time>
      </trkpt>
      <trkpt lat="48.13147" lon="7.12705">
        <ele>723.59997558594</ele>
        <time>2012-07-15T10:07:27.000Z</time>
      </trkpt>
      <trkpt lat="48.13154" lon="7.12725">
        <ele>725.20001220703</ele>
        <time>2012-07-15T10:07:35.000Z</time>
      </trkpt>
      <trkpt lat="48.13163" lon="7.12748">
        <ele>727.59997558594</ele>
        <time>2012-07-15T10:07:45.000Z</time>
      </trkpt>
      <trkpt lat="48.13172" lon="7.12769">
        <ele>729.59997558594</ele>
        <time>2012-07-15T10:07:53.000Z</time>
      </trkpt>
      <trkpt lat="48.13182" lon="7.12792">
        <ele>732</ele>
        <time>2012-07-15T10:08:03.000Z</time>
      </trkpt>
      <trkpt lat="48.13191" lon="7.12818">
        <ele>734.59997558594</ele>
        <time>2012-07-15T10:08:13.000Z</time>
      </trkpt>
      <trkpt lat="48.13195" lon="7.12834">
        <ele>736</ele>
        <time>2012-07-15T10:08:20.000Z</time>
      </trkpt>
      <trkpt lat="48.132" lon="7.12849">
        <ele>737.20001220703</ele>
        <time>2012-07-15T10:08:26.000Z</time>
      </trkpt>
      <trkpt lat="48.13203" lon="7.12858">
        <ele>738.40002441406</ele>
        <time>2012-07-15T10:08:30.000Z</time>
      </trkpt>
      <trkpt lat="48.1321" lon="7.12864">
        <ele>740</ele>
        <time>2012-07-15T10:08:36.000Z</time>
      </trkpt>
      <trkpt lat="48.13215" lon="7.12859">
        <ele>740.79998779297</ele>
        <time>2012-07-15T10:08:39.000Z</time>
      </trkpt>
      <trkpt lat="48.13225" lon="7.12836">
        <ele>743</ele>
        <time>2012-07-15T10:08:49.000Z</time>
      </trkpt>
      <trkpt lat="48.13234" lon="7.12807">
        <ele>747</ele>
        <time>2012-07-15T10:09:01.000Z</time>
      </trkpt>
      <trkpt lat="48.13237" lon="7.12779">
        <ele>749.79998779297</ele>
        <time>2012-07-15T10:09:12.000Z</time>
      </trkpt>
      <trkpt lat="48.13241" lon="7.12755">
        <ele>751.79998779297</ele>
        <time>2012-07-15T10:09:21.000Z</time>
      </trkpt>
      <trkpt lat="48.13248" lon="7.12747">
        <ele>753.40002441406</ele>
        <time>2012-07-15T10:09:28.000Z</time>
      </trkpt>
      <trkpt lat="48.13258" lon="7.12754">
        <ele>756.20001220703</ele>
        <time>2012-07-15T10:09:36.000Z</time>
      </trkpt>
      <trkpt lat="48.13266" lon="7.12773">
        <ele>759</ele>
        <time>2012-07-15T10:09:46.000Z</time>
      </trkpt>
      <trkpt lat="48.13275" lon="7.12796">
        <ele>761.20001220703</ele>
        <time>2012-07-15T10:09:57.000Z</time>
      </trkpt>
      <trkpt lat="48.13281" lon="7.12812">
        <ele>762.40002441406</ele>
        <time>2012-07-15T10:10:05.000Z</time>
      </trkpt>
      <trkpt lat="48.13292" lon="7.12833">
        <ele>765.40002441406</ele>
        <time>2012-07-15T10:10:17.000Z</time>
      </trkpt>
      <trkpt lat="48.13293" lon="7.12834">
        <ele>765.59997558594</ele>
        <time>2012-07-15T10:10:18.000Z</time>
      </trkpt>
      <trkpt lat="48.13296" lon="7.12829">
        <ele>766.40002441406</ele>
        <time>2012-07-15T10:10:22.000Z</time>
      </trkpt>
      <trkpt lat="48.13294" lon="7.12813">
        <ele>767</ele>
        <time>2012-07-15T10:10:29.000Z</time>
      </trkpt>
      <trkpt lat="48.13294" lon="7.12811">
        <ele>767</ele>
        <time>2012-07-15T10:10:30.000Z</time>
      </trkpt>
      <trkpt lat="48.13296" lon="7.12795">
        <ele>769.40002441406</ele>
        <time>2012-07-15T10:10:40.000Z</time>
      </trkpt>
      <trkpt lat="48.13298" lon="7.1278">
        <ele>771.20001220703</ele>
        <time>2012-07-15T10:10:48.000Z</time>
      </trkpt>
      <trkpt lat="48.13299" lon="7.12774">
        <ele>771.59997558594</ele>
        <time>2012-07-15T10:10:51.000Z</time>
      </trkpt>
      <trkpt lat="48.133" lon="7.12763">
        <ele>772.59997558594</ele>
        <time>2012-07-15T10:10:57.000Z</time>
      </trkpt>
      <trkpt lat="48.133" lon="7.1276">
        <ele>772.79998779297</ele>
        <time>2012-07-15T10:10:58.000Z</time>
      </trkpt>
      <trkpt lat="48.13299" lon="7.12736">
        <ele>773.79998779297</ele>
        <time>2012-07-15T10:11:07.000Z</time>
      </trkpt>
      <trkpt lat="48.13293" lon="7.12709">
        <ele>774.40002441406</ele>
        <time>2012-07-15T10:11:14.000Z</time>
      </trkpt>
      <trkpt lat="48.13291" lon="7.12694">
        <ele>774.59997558594</ele>
        <time>2012-07-15T10:11:19.000Z</time>
      </trkpt>
      <trkpt lat="48.13289" lon="7.1268">
        <ele>775</ele>
        <time>2012-07-15T10:11:23.000Z</time>
      </trkpt>
      <trkpt lat="48.13289" lon="7.12677">
        <ele>775.20001220703</ele>
        <time>2012-07-15T10:11:24.000Z</time>
      </trkpt>
      <trkpt lat="48.13289" lon="7.12673">
        <ele>775.59997558594</ele>
        <time>2012-07-15T10:11:27.000Z</time>
      </trkpt>
      <trkpt lat="48.13284" lon="7.12653">
        <ele>776.59997558594</ele>
        <time>2012-07-15T10:11:34.000Z</time>
      </trkpt>
      <trkpt lat="48.1328" lon="7.12629">
        <ele>777</ele>
        <time>2012-07-15T10:11:40.000Z</time>
      </trkpt>
      <trkpt lat="48.13276" lon="7.12609">
        <ele>777.20001220703</ele>
        <time>2012-07-15T10:11:46.000Z</time>
      </trkpt>
      <trkpt lat="48.13271" lon="7.12589">
        <ele>778.40002441406</ele>
        <time>2012-07-15T10:11:52.000Z</time>
      </trkpt>
      <trkpt lat="48.1327" lon="7.12585">
        <ele>778.59997558594</ele>
        <time>2012-07-15T10:11:53.000Z</time>
      </trkpt>
      <trkpt lat="48.13265" lon="7.12552">
        <ele>779.59997558594</ele>
        <time>2012-07-15T10:12:00.000Z</time>
      </trkpt>
      <trkpt lat="48.1326" lon="7.12529">
        <ele>780</ele>
        <time>2012-07-15T10:12:06.000Z</time>
      </trkpt>
      <trkpt lat="48.13255" lon="7.12512">
        <ele>780.40002441406</ele>
        <time>2012-07-15T10:12:11.000Z</time>
      </trkpt>
      <trkpt lat="48.13252" lon="7.12499">
        <ele>780.59997558594</ele>
        <time>2012-07-15T10:12:15.000Z</time>
      </trkpt>
      <trkpt lat="48.13249" lon="7.1248">
        <ele>781</ele>
        <time>2012-07-15T10:12:21.000Z</time>
      </trkpt>
      <trkpt lat="48.13242" lon="7.12453">
        <ele>781.79998779297</ele>
        <time>2012-07-15T10:12:27.000Z</time>
      </trkpt>
      <trkpt lat="48.13242" lon="7.1245">
        <ele>782</ele>
        <time>2012-07-15T10:12:28.000Z</time>
      </trkpt>
      <trkpt lat="48.13242" lon="7.12436">
        <ele>782.40002441406</ele>
        <time>2012-07-15T10:12:33.000Z</time>
      </trkpt>
      <trkpt lat="48.13241" lon="7.12433">
        <ele>782.40002441406</ele>
        <time>2012-07-15T10:12:34.000Z</time>
      </trkpt>
      <trkpt lat="48.13242" lon="7.12416">
        <ele>783</ele>
        <time>2012-07-15T10:12:39.000Z</time>
      </trkpt>
      <trkpt lat="48.13246" lon="7.12392">
        <ele>783.20001220703</ele>
        <time>2012-07-15T10:12:45.000Z</time>
      </trkpt>
      <trkpt lat="48.13246" lon="7.12372">
        <ele>783.20001220703</ele>
        <time>2012-07-15T10:12:50.000Z</time>
      </trkpt>
      <trkpt lat="48.13248" lon="7.12351">
        <ele>783.40002441406</ele>
        <time>2012-07-15T10:12:55.000Z</time>
      </trkpt>
      <trkpt lat="48.13245" lon="7.12324">
        <ele>783.79998779297</ele>
        <time>2012-07-15T10:13:02.000Z</time>
      </trkpt>
      <trkpt lat="48.13246" lon="7.123">
        <ele>783.79998779297</ele>
        <time>2012-07-15T10:13:07.000Z</time>
      </trkpt>
      <trkpt lat="48.13249" lon="7.12271">
        <ele>783.79998779297</ele>
        <time>2012-07-15T10:13:13.000Z</time>
      </trkpt>
      <trkpt lat="48.13251" lon="7.12242">
        <ele>783.79998779297</ele>
        <time>2012-07-15T10:13:18.000Z</time>
      </trkpt>
      <trkpt lat="48.13243" lon="7.12213">
        <ele>783.59997558594</ele>
        <time>2012-07-15T10:13:23.000Z</time>
      </trkpt>
      <trkpt lat="48.13238" lon="7.12202">
        <ele>782.59997558594</ele>
        <time>2012-07-15T10:13:26.000Z</time>
      </trkpt>
      <trkpt lat="48.13236" lon="7.12184">
        <ele>780.59997558594</ele>
        <time>2012-07-15T10:13:31.000Z</time>
      </trkpt>
      <trkpt lat="48.1324" lon="7.12169">
        <ele>781</ele>
        <time>2012-07-15T10:13:37.000Z</time>
      </trkpt>
      <trkpt lat="48.13241" lon="7.12154">
        <ele>781.59997558594</ele>
        <time>2012-07-15T10:13:41.000Z</time>
      </trkpt>
      <trkpt lat="48.13244" lon="7.12129">
        <ele>782</ele>
        <time>2012-07-15T10:13:47.000Z</time>
      </trkpt>
      <trkpt lat="48.13252" lon="7.12091">
        <ele>782.40002441406</ele>
        <time>2012-07-15T10:13:54.000Z</time>
      </trkpt>
      <trkpt lat="48.13254" lon="7.12073">
        <ele>782.40002441406</ele>
        <time>2012-07-15T10:13:58.000Z</time>
      </trkpt>
      <trkpt lat="48.13256" lon="7.12052">
        <ele>782.59997558594</ele>
        <time>2012-07-15T10:14:03.000Z</time>
      </trkpt>
      <trkpt lat="48.13256" lon="7.12024">
        <ele>782.59997558594</ele>
        <time>2012-07-15T10:14:09.000Z</time>
      </trkpt>
      <trkpt lat="48.13258" lon="7.12">
        <ele>783</ele>
        <time>2012-07-15T10:14:14.000Z</time>
      </trkpt>
      <trkpt lat="48.13266" lon="7.11972">
        <ele>783.20001220703</ele>
        <time>2012-07-15T10:14:19.000Z</time>
      </trkpt>
      <trkpt lat="48.13267" lon="7.1196">
        <ele>783.59997558594</ele>
        <time>2012-07-15T10:14:22.000Z</time>
      </trkpt>
      <trkpt lat="48.13268" lon="7.11938">
        <ele>784.20001220703</ele>
        <time>2012-07-15T10:14:27.000Z</time>
      </trkpt>
      <trkpt lat="48.13267" lon="7.11931">
        <ele>784.40002441406</ele>
        <time>2012-07-15T10:14:29.000Z</time>
      </trkpt>
      <trkpt lat="48.13261" lon="7.11921">
        <ele>785.40002441406</ele>
        <time>2012-07-15T10:14:36.000Z</time>
      </trkpt>
      <trkpt lat="48.13256" lon="7.11914">
        <ele>787.20001220703</ele>
        <time>2012-07-15T10:14:42.000Z</time>
      </trkpt>
      <trkpt lat="48.13251" lon="7.11903">
        <ele>788.59997558594</ele>
        <time>2012-07-15T10:14:47.000Z</time>
      </trkpt>
      <trkpt lat="48.13245" lon="7.11889">
        <ele>790</ele>
        <time>2012-07-15T10:14:53.000Z</time>
      </trkpt>
      <trkpt lat="48.13243" lon="7.11883">
        <ele>790.59997558594</ele>
        <time>2012-07-15T10:14:58.000Z</time>
      </trkpt>
      <trkpt lat="48.13241" lon="7.11876">
        <ele>791.40002441406</ele>
        <time>2012-07-15T10:15:24.000Z</time>
      </trkpt>
      <trkpt lat="48.13238" lon="7.11866">
        <ele>791.59997558594</ele>
        <time>2012-07-15T10:15:30.000Z</time>
      </trkpt>
      <trkpt lat="48.1323" lon="7.11851">
        <ele>793</ele>
        <time>2012-07-15T10:15:37.000Z</time>
      </trkpt>
      <trkpt lat="48.13223" lon="7.11842">
        <ele>794.20001220703</ele>
        <time>2012-07-15T10:15:43.000Z</time>
      </trkpt>
      <trkpt lat="48.13219" lon="7.11836">
        <ele>794.79998779297</ele>
        <time>2012-07-15T10:15:46.000Z</time>
      </trkpt>
      <trkpt lat="48.13213" lon="7.11822">
        <ele>795.79998779297</ele>
        <time>2012-07-15T10:15:52.000Z</time>
      </trkpt>
      <trkpt lat="48.13208" lon="7.11804">
        <ele>796.79998779297</ele>
        <time>2012-07-15T10:15:59.000Z</time>
      </trkpt>
      <trkpt lat="48.13201" lon="7.11786">
        <ele>798</ele>
        <time>2012-07-15T10:16:05.000Z</time>
      </trkpt>
      <trkpt lat="48.13197" lon="7.11775">
        <ele>798.79998779297</ele>
        <time>2012-07-15T10:16:10.000Z</time>
      </trkpt>
      <trkpt lat="48.13196" lon="7.11772">
        <ele>799.20001220703</ele>
        <time>2012-07-15T10:16:12.000Z</time>
      </trkpt>
      <trkpt lat="48.13195" lon="7.11769">
        <ele>800</ele>
        <time>2012-07-15T10:16:19.000Z</time>
      </trkpt>
      <trkpt lat="48.13192" lon="7.11763">
        <ele>800</ele>
        <time>2012-07-15T10:16:24.000Z</time>
      </trkpt>
      <trkpt lat="48.13189" lon="7.11754">
        <ele>801</ele>
        <time>2012-07-15T10:16:30.000Z</time>
      </trkpt>
      <trkpt lat="48.13186" lon="7.11736">
        <ele>802.59997558594</ele>
        <time>2012-07-15T10:16:38.000Z</time>
      </trkpt>
      <trkpt lat="48.13183" lon="7.11722">
        <ele>803.79998779297</ele>
        <time>2012-07-15T10:16:44.000Z</time>
      </trkpt>
      <trkpt lat="48.13179" lon="7.11706">
        <ele>804.79998779297</ele>
        <time>2012-07-15T10:16:51.000Z</time>
      </trkpt>
      <trkpt lat="48.13179" lon="7.11703">
        <ele>805</ele>
        <time>2012-07-15T10:16:52.000Z</time>
      </trkpt>
      <trkpt lat="48.1318" lon="7.11688">
        <ele>806.79998779297</ele>
        <time>2012-07-15T10:17:00.000Z</time>
      </trkpt>
      <trkpt lat="48.13181" lon="7.11683">
        <ele>807.59997558594</ele>
        <time>2012-07-15T10:17:03.000Z</time>
      </trkpt>
      <trkpt lat="48.13183" lon="7.11674">
        <ele>808.79998779297</ele>
        <time>2012-07-15T10:17:09.000Z</time>
      </trkpt>
      <trkpt lat="48.13183" lon="7.11671">
        <ele>809.40002441406</ele>
        <time>2012-07-15T10:17:16.000Z</time>
      </trkpt>
      <trkpt lat="48.13184" lon="7.11666">
        <ele>810</ele>
        <time>2012-07-15T10:17:26.000Z</time>
      </trkpt>
      <trkpt lat="48.13182" lon="7.1166">
        <ele>810.40002441406</ele>
        <time>2012-07-15T10:17:34.000Z</time>
      </trkpt>
      <trkpt lat="48.1318" lon="7.11651">
        <ele>811.59997558594</ele>
        <time>2012-07-15T10:17:41.000Z</time>
      </trkpt>
      <trkpt lat="48.1318" lon="7.11639">
        <ele>813.20001220703</ele>
        <time>2012-07-15T10:17:48.000Z</time>
      </trkpt>
      <trkpt lat="48.1318" lon="7.11632">
        <ele>814.40002441406</ele>
        <time>2012-07-15T10:17:53.000Z</time>
      </trkpt>
      <trkpt lat="48.13179" lon="7.11622">
        <ele>816</ele>
        <time>2012-07-15T10:17:59.000Z</time>
      </trkpt>
      <trkpt lat="48.13179" lon="7.116">
        <ele>817.79998779297</ele>
        <time>2012-07-15T10:18:09.000Z</time>
      </trkpt>
      <trkpt lat="48.1318" lon="7.11593">
        <ele>818.79998779297</ele>
        <time>2012-07-15T10:18:14.000Z</time>
      </trkpt>
      <trkpt lat="48.13181" lon="7.11579">
        <ele>820.20001220703</ele>
        <time>2012-07-15T10:18:21.000Z</time>
      </trkpt>
      <trkpt lat="48.13184" lon="7.1157">
        <ele>821.20001220703</ele>
        <time>2012-07-15T10:18:27.000Z</time>
      </trkpt>
      <trkpt lat="48.13186" lon="7.11565">
        <ele>822.20001220703</ele>
        <time>2012-07-15T10:18:32.000Z</time>
      </trkpt>
      <trkpt lat="48.13185" lon="7.11559">
        <ele>823.40002441406</ele>
        <time>2012-07-15T10:18:39.000Z</time>
      </trkpt>
      <trkpt lat="48.13186" lon="7.11556">
        <ele>823.59997558594</ele>
        <time>2012-07-15T10:18:43.000Z</time>
      </trkpt>
      <trkpt lat="48.13186" lon="7.11549">
        <ele>823.79998779297</ele>
        <time>2012-07-15T10:18:47.000Z</time>
      </trkpt>
      <trkpt lat="48.13186" lon="7.11533">
        <ele>825</ele>
        <time>2012-07-15T10:18:56.000Z</time>
      </trkpt>
      <trkpt lat="48.13186" lon="7.11512">
        <ele>827.40002441406</ele>
        <time>2012-07-15T10:19:06.000Z</time>
      </trkpt>
      <trkpt lat="48.13187" lon="7.11491">
        <ele>829.59997558594</ele>
        <time>2012-07-15T10:19:16.000Z</time>
      </trkpt>
      <trkpt lat="48.13187" lon="7.11467">
        <ele>831.79998779297</ele>
        <time>2012-07-15T10:19:27.000Z</time>
      </trkpt>
      <trkpt lat="48.13188" lon="7.11451">
        <ele>833.20001220703</ele>
        <time>2012-07-15T10:19:35.000Z</time>
      </trkpt>
      <trkpt lat="48.13187" lon="7.11437">
        <ele>834.20001220703</ele>
        <time>2012-07-15T10:19:41.000Z</time>
      </trkpt>
      <trkpt lat="48.13185" lon="7.11417">
        <ele>835.59997558594</ele>
        <time>2012-07-15T10:19:51.000Z</time>
      </trkpt>
      <trkpt lat="48.13186" lon="7.11401">
        <ele>836.79998779297</ele>
        <time>2012-07-15T10:19:58.000Z</time>
      </trkpt>
      <trkpt lat="48.13187" lon="7.11383">
        <ele>838.20001220703</ele>
        <time>2012-07-15T10:20:06.000Z</time>
      </trkpt>
      <trkpt lat="48.13185" lon="7.11365">
        <ele>839.40002441406</ele>
        <time>2012-07-15T10:20:14.000Z</time>
      </trkpt>
      <trkpt lat="48.13181" lon="7.11343">
        <ele>840.40002441406</ele>
        <time>2012-07-15T10:20:22.000Z</time>
      </trkpt>
      <trkpt lat="48.13176" lon="7.11312">
        <ele>840.20001220703</ele>
        <time>2012-07-15T10:20:29.000Z</time>
      </trkpt>
      <trkpt lat="48.13168" lon="7.11289">
        <ele>840</ele>
        <time>2012-07-15T10:20:33.000Z</time>
      </trkpt>
      <trkpt lat="48.13162" lon="7.11267">
        <ele>839.40002441406</ele>
        <time>2012-07-15T10:20:36.000Z</time>
      </trkpt>
      <trkpt lat="48.13159" lon="7.1122">
        <ele>837.59997558594</ele>
        <time>2012-07-15T10:20:42.000Z</time>
      </trkpt>
      <trkpt lat="48.1316" lon="7.11193">
        <ele>837.20001220703</ele>
        <time>2012-07-15T10:20:46.000Z</time>
      </trkpt>
      <trkpt lat="48.13163" lon="7.11173">
        <ele>837</ele>
        <time>2012-07-15T10:20:49.000Z</time>
      </trkpt>
      <trkpt lat="48.13162" lon="7.11138">
        <ele>836.79998779297</ele>
        <time>2012-07-15T10:20:54.000Z</time>
      </trkpt>
      <trkpt lat="48.13157" lon="7.11128">
        <ele>837</ele>
        <time>2012-07-15T10:20:56.000Z</time>
      </trkpt>
      <trkpt lat="48.13133" lon="7.111">
        <ele>837.59997558594</ele>
        <time>2012-07-15T10:21:03.000Z</time>
      </trkpt>
      <trkpt lat="48.13114" lon="7.11072">
        <ele>836.79998779297</ele>
        <time>2012-07-15T10:21:07.000Z</time>
      </trkpt>
      <trkpt lat="48.13089" lon="7.11029">
        <ele>835.59997558594</ele>
        <time>2012-07-15T10:21:13.000Z</time>
      </trkpt>
      <trkpt lat="48.13085" lon="7.11023">
        <ele>835.79998779297</ele>
        <time>2012-07-15T10:21:14.000Z</time>
      </trkpt>
      <trkpt lat="48.13079" lon="7.1101">
        <ele>835.79998779297</ele>
        <time>2012-07-15T10:21:16.000Z</time>
      </trkpt>
      <trkpt lat="48.13059" lon="7.10987">
        <ele>836.20001220703</ele>
        <time>2012-07-15T10:21:21.000Z</time>
      </trkpt>
      <trkpt lat="48.13054" lon="7.10983">
        <ele>836.20001220703</ele>
        <time>2012-07-15T10:21:22.000Z</time>
      </trkpt>
      <trkpt lat="48.13036" lon="7.10971">
        <ele>836.40002441406</ele>
        <time>2012-07-15T10:21:26.000Z</time>
      </trkpt>
      <trkpt lat="48.13003" lon="7.10961">
        <ele>837.59997558594</ele>
        <time>2012-07-15T10:21:34.000Z</time>
      </trkpt>
      <trkpt lat="48.1299" lon="7.10949">
        <ele>839.59997558594</ele>
        <time>2012-07-15T10:21:40.000Z</time>
      </trkpt>
      <trkpt lat="48.1298" lon="7.10926">
        <ele>842.59997558594</ele>
        <time>2012-07-15T10:21:49.000Z</time>
      </trkpt>
      <trkpt lat="48.12974" lon="7.10901">
        <ele>846.59997558594</ele>
        <time>2012-07-15T10:21:59.000Z</time>
      </trkpt>
      <trkpt lat="48.12966" lon="7.10878">
        <ele>849.59997558594</ele>
        <time>2012-07-15T10:22:09.000Z</time>
      </trkpt>
      <trkpt lat="48.1295" lon="7.10864">
        <ele>851.59997558594</ele>
        <time>2012-07-15T10:22:19.000Z</time>
      </trkpt>
      <trkpt lat="48.12935" lon="7.10855">
        <ele>853.40002441406</ele>
        <time>2012-07-15T10:22:28.000Z</time>
      </trkpt>
      <trkpt lat="48.12916" lon="7.1084">
        <ele>856</ele>
        <time>2012-07-15T10:22:39.000Z</time>
      </trkpt>
      <trkpt lat="48.12905" lon="7.1084">
        <ele>856.79998779297</ele>
        <time>2012-07-15T10:22:45.000Z</time>
      </trkpt>
      <trkpt lat="48.12894" lon="7.10842">
        <ele>856.40002441406</ele>
        <time>2012-07-15T10:22:50.000Z</time>
      </trkpt>
      <trkpt lat="48.12893" lon="7.10842">
        <ele>856.20001220703</ele>
        <time>2012-07-15T10:22:51.000Z</time>
      </trkpt>
      <trkpt lat="48.12891" lon="7.10844">
        <ele>855.79998779297</ele>
        <time>2012-07-15T10:22:56.000Z</time>
      </trkpt>
      <trkpt lat="48.12887" lon="7.10846">
        <ele>855.79998779297</ele>
        <time>2012-07-15T10:23:00.000Z</time>
      </trkpt>
      <trkpt lat="48.12879" lon="7.10842">
        <ele>856</ele>
        <time>2012-07-15T10:23:07.000Z</time>
      </trkpt>
      <trkpt lat="48.1288" lon="7.10841">
        <ele>856</ele>
        <time>2012-07-15T10:23:12.000Z</time>
      </trkpt>
      <trkpt lat="48.12876" lon="7.10844">
        <ele>856</ele>
        <time>2012-07-15T10:23:17.000Z</time>
      </trkpt>
      <trkpt lat="48.12868" lon="7.10847">
        <ele>856</ele>
        <time>2012-07-15T10:23:23.000Z</time>
      </trkpt>
      <trkpt lat="48.12862" lon="7.1085">
        <ele>856.40002441406</ele>
        <time>2012-07-15T10:23:28.000Z</time>
      </trkpt>
      <trkpt lat="48.12848" lon="7.1085">
        <ele>856.59997558594</ele>
        <time>2012-07-15T10:23:35.000Z</time>
      </trkpt>
      <trkpt lat="48.1283" lon="7.10849">
        <ele>856.40002441406</ele>
        <time>2012-07-15T10:23:42.000Z</time>
      </trkpt>
      <trkpt lat="48.12818" lon="7.10841">
        <ele>856.79998779297</ele>
        <time>2012-07-15T10:23:48.000Z</time>
      </trkpt>
      <trkpt lat="48.12816" lon="7.10835">
        <ele>857.40002441406</ele>
        <time>2012-07-15T10:23:50.000Z</time>
      </trkpt>
      <trkpt lat="48.12808" lon="7.10824">
        <ele>858.59997558594</ele>
        <time>2012-07-15T10:23:56.000Z</time>
      </trkpt>
      <trkpt lat="48.12806" lon="7.1082">
        <ele>859.20001220703</ele>
        <time>2012-07-15T10:23:58.000Z</time>
      </trkpt>
      <trkpt lat="48.12798" lon="7.10813">
        <ele>860.79998779297</ele>
        <time>2012-07-15T10:24:05.000Z</time>
      </trkpt>
      <trkpt lat="48.1279" lon="7.10806">
        <ele>861.59997558594</ele>
        <time>2012-07-15T10:24:11.000Z</time>
      </trkpt>
      <trkpt lat="48.1278" lon="7.10804">
        <ele>862.79998779297</ele>
        <time>2012-07-15T10:24:18.000Z</time>
      </trkpt>
      <trkpt lat="48.12776" lon="7.10805">
        <ele>863.59997558594</ele>
        <time>2012-07-15T10:24:22.000Z</time>
      </trkpt>
      <trkpt lat="48.12771" lon="7.10798">
        <ele>864.40002441406</ele>
        <time>2012-07-15T10:24:30.000Z</time>
      </trkpt>
      <trkpt lat="48.12768" lon="7.10799">
        <ele>865.40002441406</ele>
        <time>2012-07-15T10:24:35.000Z</time>
      </trkpt>
      <trkpt lat="48.12765" lon="7.10799">
        <ele>866.40002441406</ele>
        <time>2012-07-15T10:24:39.000Z</time>
      </trkpt>
      <trkpt lat="48.12763" lon="7.10792">
        <ele>866.79998779297</ele>
        <time>2012-07-15T10:24:51.000Z</time>
      </trkpt>
      <trkpt lat="48.12758" lon="7.10791">
        <ele>866.59997558594</ele>
        <time>2012-07-15T10:24:57.000Z</time>
      </trkpt>
      <trkpt lat="48.12753" lon="7.1079">
        <ele>866.79998779297</ele>
        <time>2012-07-15T10:25:04.000Z</time>
      </trkpt>
      <trkpt lat="48.12744" lon="7.10783">
        <ele>867</ele>
        <time>2012-07-15T10:25:12.000Z</time>
      </trkpt>
      <trkpt lat="48.12736" lon="7.10776">
        <ele>867</ele>
        <time>2012-07-15T10:25:18.000Z</time>
      </trkpt>
      <trkpt lat="48.12724" lon="7.10767">
        <ele>867</ele>
        <time>2012-07-15T10:25:25.000Z</time>
      </trkpt>
      <trkpt lat="48.12715" lon="7.10758">
        <ele>867.20001220703</ele>
        <time>2012-07-15T10:25:30.000Z</time>
      </trkpt>
      <trkpt lat="48.1271" lon="7.10744">
        <ele>867.59997558594</ele>
        <time>2012-07-15T10:25:36.000Z</time>
      </trkpt>
      <trkpt lat="48.12704" lon="7.10736">
        <ele>868</ele>
        <time>2012-07-15T10:25:42.000Z</time>
      </trkpt>
      <trkpt lat="48.12698" lon="7.10728">
        <ele>868.40002441406</ele>
        <time>2012-07-15T10:25:48.000Z</time>
      </trkpt>
      <trkpt lat="48.12694" lon="7.10719">
        <ele>868.79998779297</ele>
        <time>2012-07-15T10:25:54.000Z</time>
      </trkpt>
      <trkpt lat="48.12689" lon="7.10711">
        <ele>869.20001220703</ele>
        <time>2012-07-15T10:26:01.000Z</time>
      </trkpt>
      <trkpt lat="48.12689" lon="7.1071">
        <ele>869.20001220703</ele>
        <time>2012-07-15T10:26:02.000Z</time>
      </trkpt>
      <trkpt lat="48.12684" lon="7.10695">
        <ele>870</ele>
        <time>2012-07-15T10:26:10.000Z</time>
      </trkpt>
      <trkpt lat="48.12678" lon="7.10678">
        <ele>870.79998779297</ele>
        <time>2012-07-15T10:26:18.000Z</time>
      </trkpt>
      <trkpt lat="48.12678" lon="7.10671">
        <ele>871.40002441406</ele>
        <time>2012-07-15T10:26:23.000Z</time>
      </trkpt>
      <trkpt lat="48.12675" lon="7.10661">
        <ele>871.79998779297</ele>
        <time>2012-07-15T10:26:29.000Z</time>
      </trkpt>
      <trkpt lat="48.12671" lon="7.10646">
        <ele>872.20001220703</ele>
        <time>2012-07-15T10:26:37.000Z</time>
      </trkpt>
      <trkpt lat="48.12665" lon="7.1063">
        <ele>872.59997558594</ele>
        <time>2012-07-15T10:26:45.000Z</time>
      </trkpt>
      <trkpt lat="48.12663" lon="7.10622">
        <ele>873</ele>
        <time>2012-07-15T10:26:50.000Z</time>
      </trkpt>
      <trkpt lat="48.12661" lon="7.10619">
        <ele>873.20001220703</ele>
        <time>2012-07-15T10:26:52.000Z</time>
      </trkpt>
      <trkpt lat="48.1266" lon="7.10616">
        <ele>873.20001220703</ele>
        <time>2012-07-15T10:26:54.000Z</time>
      </trkpt>
      <trkpt lat="48.12656" lon="7.1061">
        <ele>873.79998779297</ele>
        <time>2012-07-15T10:26:58.000Z</time>
      </trkpt>
      <trkpt lat="48.12653" lon="7.106">
        <ele>874.20001220703</ele>
        <time>2012-07-15T10:27:03.000Z</time>
      </trkpt>
      <trkpt lat="48.12645" lon="7.10582">
        <ele>874.40002441406</ele>
        <time>2012-07-15T10:27:10.000Z</time>
      </trkpt>
      <trkpt lat="48.12639" lon="7.10567">
        <ele>874.79998779297</ele>
        <time>2012-07-15T10:27:17.000Z</time>
      </trkpt>
      <trkpt lat="48.12636" lon="7.10562">
        <ele>874.79998779297</ele>
        <time>2012-07-15T10:27:20.000Z</time>
      </trkpt>
      <trkpt lat="48.12631" lon="7.10557">
        <ele>874.79998779297</ele>
        <time>2012-07-15T10:27:27.000Z</time>
      </trkpt>
      <trkpt lat="48.1263" lon="7.10551">
        <ele>875</ele>
        <time>2012-07-15T10:27:33.000Z</time>
      </trkpt>
      <trkpt lat="48.12624" lon="7.10544">
        <ele>874.79998779297</ele>
        <time>2012-07-15T10:27:41.000Z</time>
      </trkpt>
      <trkpt lat="48.12622" lon="7.10541">
        <ele>875</ele>
        <time>2012-07-15T10:27:48.000Z</time>
      </trkpt>
      <trkpt lat="48.12617" lon="7.10531">
        <ele>876.20001220703</ele>
        <time>2012-07-15T10:27:55.000Z</time>
      </trkpt>
      <trkpt lat="48.12616" lon="7.10531">
        <ele>879</ele>
        <time>2012-07-15T10:27:56.000Z</time>
      </trkpt>
      <trkpt lat="48.12614" lon="7.10524">
        <ele>890.40002441406</ele>
        <time>2012-07-15T10:28:00.000Z</time>
      </trkpt>
      <trkpt lat="48.12613" lon="7.10521">
        <ele>896.20001220703</ele>
        <time>2012-07-15T10:28:02.000Z</time>
      </trkpt>
      <trkpt lat="48.12612" lon="7.10518">
        <ele>898.40002441406</ele>
        <time>2012-07-15T10:28:04.000Z</time>
      </trkpt>
      <trkpt lat="48.12613" lon="7.10511">
        <ele>899</ele>
        <time>2012-07-15T10:28:10.000Z</time>
      </trkpt>
      <trkpt lat="48.12612" lon="7.10499">
        <ele>899.59997558594</ele>
        <time>2012-07-15T10:28:18.000Z</time>
      </trkpt>
      <trkpt lat="48.12614" lon="7.10484">
        <ele>900.79998779297</ele>
        <time>2012-07-15T10:28:27.000Z</time>
      </trkpt>
      <trkpt lat="48.12613" lon="7.10475">
        <ele>902</ele>
        <time>2012-07-15T10:28:34.000Z</time>
      </trkpt>
      <trkpt lat="48.12614" lon="7.10469">
        <ele>903</ele>
        <time>2012-07-15T10:28:40.000Z</time>
      </trkpt>
      <trkpt lat="48.12615" lon="7.10464">
        <ele>904.20001220703</ele>
        <time>2012-07-15T10:28:45.000Z</time>
      </trkpt>
      <trkpt lat="48.12613" lon="7.10456">
        <ele>905.40002441406</ele>
        <time>2012-07-15T10:28:53.000Z</time>
      </trkpt>
      <trkpt lat="48.1261" lon="7.10447">
        <ele>905.79998779297</ele>
        <time>2012-07-15T10:28:59.000Z</time>
      </trkpt>
      <trkpt lat="48.12604" lon="7.10434">
        <ele>906.79998779297</ele>
        <time>2012-07-15T10:29:07.000Z</time>
      </trkpt>
      <trkpt lat="48.12599" lon="7.10423">
        <ele>907.40002441406</ele>
        <time>2012-07-15T10:29:13.000Z</time>
      </trkpt>
      <trkpt lat="48.1259" lon="7.10415">
        <ele>908.59997558594</ele>
        <time>2012-07-15T10:29:19.000Z</time>
      </trkpt>
      <trkpt lat="48.12579" lon="7.10405">
        <ele>910</ele>
        <time>2012-07-15T10:29:26.000Z</time>
      </trkpt>
      <trkpt lat="48.12562" lon="7.1039">
        <ele>911.79998779297</ele>
        <time>2012-07-15T10:29:37.000Z</time>
      </trkpt>
      <trkpt lat="48.12547" lon="7.10376">
        <ele>913</ele>
        <time>2012-07-15T10:29:46.000Z</time>
      </trkpt>
      <trkpt lat="48.12538" lon="7.10368">
        <ele>913.59997558594</ele>
        <time>2012-07-15T10:29:52.000Z</time>
      </trkpt>
      <trkpt lat="48.12539" lon="7.10362">
        <ele>914.20001220703</ele>
        <time>2012-07-15T10:29:57.000Z</time>
      </trkpt>
      <trkpt lat="48.12541" lon="7.10363">
        <ele>914.40002441406</ele>
        <time>2012-07-15T10:29:58.000Z</time>
      </trkpt>
      <trkpt lat="48.12556" lon="7.10373">
        <ele>916</ele>
        <time>2012-07-15T10:30:08.000Z</time>
      </trkpt>
      <trkpt lat="48.12568" lon="7.10374">
        <ele>916.79998779297</ele>
        <time>2012-07-15T10:30:15.000Z</time>
      </trkpt>
      <trkpt lat="48.12587" lon="7.10377">
        <ele>918.20001220703</ele>
        <time>2012-07-15T10:30:24.000Z</time>
      </trkpt>
      <trkpt lat="48.12605" lon="7.10383">
        <ele>919.79998779297</ele>
        <time>2012-07-15T10:30:33.000Z</time>
      </trkpt>
      <trkpt lat="48.12628" lon="7.10386">
        <ele>921.20001220703</ele>
        <time>2012-07-15T10:30:43.000Z</time>
      </trkpt>
      <trkpt lat="48.12646" lon="7.10395">
        <ele>921.79998779297</ele>
        <time>2012-07-15T10:30:51.000Z</time>
      </trkpt>
      <trkpt lat="48.12661" lon="7.10413">
        <ele>922.79998779297</ele>
        <time>2012-07-15T10:31:00.000Z</time>
      </trkpt>
      <trkpt lat="48.12674" lon="7.1044">
        <ele>924.40002441406</ele>
        <time>2012-07-15T10:31:11.000Z</time>
      </trkpt>
      <trkpt lat="48.12685" lon="7.10454">
        <ele>926</ele>
        <time>2012-07-15T10:31:18.000Z</time>
      </trkpt>
      <trkpt lat="48.12699" lon="7.10463">
        <ele>926.79998779297</ele>
        <time>2012-07-15T10:31:25.000Z</time>
      </trkpt>
      <trkpt lat="48.12718" lon="7.10478">
        <ele>928.40002441406</ele>
        <time>2012-07-15T10:31:35.000Z</time>
      </trkpt>
      <trkpt lat="48.12733" lon="7.10495">
        <ele>929.79998779297</ele>
        <time>2012-07-15T10:31:44.000Z</time>
      </trkpt>
      <trkpt lat="48.1275" lon="7.10501">
        <ele>930.79998779297</ele>
        <time>2012-07-15T10:31:52.000Z</time>
      </trkpt>
      <trkpt lat="48.12771" lon="7.10501">
        <ele>931.59997558594</ele>
        <time>2012-07-15T10:32:02.000Z</time>
      </trkpt>
      <trkpt lat="48.12789" lon="7.10502">
        <ele>932.59997558594</ele>
        <time>2012-07-15T10:32:11.000Z</time>
      </trkpt>
      <trkpt lat="48.12809" lon="7.10502">
        <ele>933.40002441406</ele>
        <time>2012-07-15T10:32:20.000Z</time>
      </trkpt>
      <trkpt lat="48.12823" lon="7.10502">
        <ele>934.40002441406</ele>
        <time>2012-07-15T10:32:29.000Z</time>
      </trkpt>
      <trkpt lat="48.12836" lon="7.105">
        <ele>935.79998779297</ele>
        <time>2012-07-15T10:32:37.000Z</time>
      </trkpt>
      <trkpt lat="48.12849" lon="7.10503">
        <ele>937.20001220703</ele>
        <time>2012-07-15T10:32:44.000Z</time>
      </trkpt>
      <trkpt lat="48.12864" lon="7.10504">
        <ele>937.59997558594</ele>
        <time>2012-07-15T10:32:52.000Z</time>
      </trkpt>
      <trkpt lat="48.12877" lon="7.105">
        <ele>938</ele>
        <time>2012-07-15T10:32:59.000Z</time>
      </trkpt>
      <trkpt lat="48.12887" lon="7.10497">
        <ele>939</ele>
        <time>2012-07-15T10:33:06.000Z</time>
      </trkpt>
      <trkpt lat="48.12897" lon="7.10493">
        <ele>940.59997558594</ele>
        <time>2012-07-15T10:33:14.000Z</time>
      </trkpt>
      <trkpt lat="48.1291" lon="7.10492">
        <ele>943.20001220703</ele>
        <time>2012-07-15T10:33:23.000Z</time>
      </trkpt>
      <trkpt lat="48.1292" lon="7.10488">
        <ele>945.40002441406</ele>
        <time>2012-07-15T10:33:32.000Z</time>
      </trkpt>
      <trkpt lat="48.1293" lon="7.1048">
        <ele>947.20001220703</ele>
        <time>2012-07-15T10:33:41.000Z</time>
      </trkpt>
      <trkpt lat="48.12932" lon="7.10478">
        <ele>947.59997558594</ele>
        <time>2012-07-15T10:33:43.000Z</time>
      </trkpt>
      <trkpt lat="48.12934" lon="7.10472">
        <ele>948.40002441406</ele>
        <time>2012-07-15T10:33:47.000Z</time>
      </trkpt>
      <trkpt lat="48.12935" lon="7.1047">
        <ele>949</ele>
        <time>2012-07-15T10:33:49.000Z</time>
      </trkpt>
      <trkpt lat="48.12936" lon="7.10459">
        <ele>950.79998779297</ele>
        <time>2012-07-15T10:33:57.000Z</time>
      </trkpt>
      <trkpt lat="48.12935" lon="7.10443">
        <ele>952.59997558594</ele>
        <time>2012-07-15T10:34:05.000Z</time>
      </trkpt>
      <trkpt lat="48.12931" lon="7.10428">
        <ele>954.20001220703</ele>
        <time>2012-07-15T10:34:14.000Z</time>
      </trkpt>
      <trkpt lat="48.12925" lon="7.10416">
        <ele>955.20001220703</ele>
        <time>2012-07-15T10:34:21.000Z</time>
      </trkpt>
      <trkpt lat="48.12917" lon="7.10403">
        <ele>956.20001220703</ele>
        <time>2012-07-15T10:34:29.000Z</time>
      </trkpt>
      <trkpt lat="48.12916" lon="7.1039">
        <ele>957.59997558594</ele>
        <time>2012-07-15T10:34:36.000Z</time>
      </trkpt>
      <trkpt lat="48.12916" lon="7.10377">
        <ele>959.59997558594</ele>
        <time>2012-07-15T10:34:44.000Z</time>
      </trkpt>
      <trkpt lat="48.1292" lon="7.10371">
        <ele>961.20001220703</ele>
        <time>2012-07-15T10:34:50.000Z</time>
      </trkpt>
      <trkpt lat="48.12929" lon="7.10364">
        <ele>962.40002441406</ele>
        <time>2012-07-15T10:34:58.000Z</time>
      </trkpt>
      <trkpt lat="48.12936" lon="7.10365">
        <ele>963</ele>
        <time>2012-07-15T10:35:04.000Z</time>
      </trkpt>
      <trkpt lat="48.12944" lon="7.10365">
        <ele>963.40002441406</ele>
        <time>2012-07-15T10:35:10.000Z</time>
      </trkpt>
      <trkpt lat="48.12952" lon="7.10363">
        <ele>963.79998779297</ele>
        <time>2012-07-15T10:35:15.000Z</time>
      </trkpt>
      <trkpt lat="48.12965" lon="7.10362">
        <ele>965</ele>
        <time>2012-07-15T10:35:24.000Z</time>
      </trkpt>
      <trkpt lat="48.1298" lon="7.10367">
        <ele>965.79998779297</ele>
        <time>2012-07-15T10:35:30.000Z</time>
      </trkpt>
      <trkpt lat="48.12998" lon="7.10368">
        <ele>965.79998779297</ele>
        <time>2012-07-15T10:35:37.000Z</time>
      </trkpt>
      <trkpt lat="48.13012" lon="7.10369">
        <ele>966.20001220703</ele>
        <time>2012-07-15T10:35:43.000Z</time>
      </trkpt>
      <trkpt lat="48.13024" lon="7.10361">
        <ele>967.20001220703</ele>
        <time>2012-07-15T10:35:50.000Z</time>
      </trkpt>
      <trkpt lat="48.13035" lon="7.10352">
        <ele>968.59997558594</ele>
        <time>2012-07-15T10:35:57.000Z</time>
      </trkpt>
      <trkpt lat="48.13045" lon="7.10343">
        <ele>970</ele>
        <time>2012-07-15T10:36:05.000Z</time>
      </trkpt>
      <trkpt lat="48.13052" lon="7.10332">
        <ele>971.20001220703</ele>
        <time>2012-07-15T10:36:13.000Z</time>
      </trkpt>
      <trkpt lat="48.13059" lon="7.10321">
        <ele>973.40002441406</ele>
        <time>2012-07-15T10:36:22.000Z</time>
      </trkpt>
      <trkpt lat="48.13067" lon="7.10311">
        <ele>975.40002441406</ele>
        <time>2012-07-15T10:36:31.000Z</time>
      </trkpt>
      <trkpt lat="48.13075" lon="7.10299">
        <ele>976.79998779297</ele>
        <time>2012-07-15T10:36:41.000Z</time>
      </trkpt>
      <trkpt lat="48.13079" lon="7.10292">
        <ele>978</ele>
        <time>2012-07-15T10:36:47.000Z</time>
      </trkpt>
      <trkpt lat="48.13084" lon="7.10283">
        <ele>979.40002441406</ele>
        <time>2012-07-15T10:36:54.000Z</time>
      </trkpt>
      <trkpt lat="48.13083" lon="7.10275">
        <ele>980.59997558594</ele>
        <time>2012-07-15T10:36:59.000Z</time>
      </trkpt>
      <trkpt lat="48.13081" lon="7.10269">
        <ele>981.40002441406</ele>
        <time>2012-07-15T10:37:03.000Z</time>
      </trkpt>
      <trkpt lat="48.13071" lon="7.10263">
        <ele>982.40002441406</ele>
        <time>2012-07-15T10:37:11.000Z</time>
      </trkpt>
      <trkpt lat="48.13057" lon="7.10257">
        <ele>982.59997558594</ele>
        <time>2012-07-15T10:37:18.000Z</time>
      </trkpt>
      <trkpt lat="48.13043" lon="7.10249">
        <ele>983</ele>
        <time>2012-07-15T10:37:24.000Z</time>
      </trkpt>
      <trkpt lat="48.13035" lon="7.10242">
        <ele>983.79998779297</ele>
        <time>2012-07-15T10:37:30.000Z</time>
      </trkpt>
      <trkpt lat="48.13022" lon="7.10231">
        <ele>984.59997558594</ele>
        <time>2012-07-15T10:37:37.000Z</time>
      </trkpt>
      <trkpt lat="48.13012" lon="7.10219">
        <ele>985.40002441406</ele>
        <time>2012-07-15T10:37:44.000Z</time>
      </trkpt>
      <trkpt lat="48.13003" lon="7.10213">
        <ele>986.40002441406</ele>
        <time>2012-07-15T10:37:50.000Z</time>
      </trkpt>
      <trkpt lat="48.12994" lon="7.10209">
        <ele>986.79998779297</ele>
        <time>2012-07-15T10:37:54.000Z</time>
      </trkpt>
      <trkpt lat="48.12981" lon="7.10203">
        <ele>987.79998779297</ele>
        <time>2012-07-15T10:38:01.000Z</time>
      </trkpt>
      <trkpt lat="48.12963" lon="7.10193">
        <ele>989.40002441406</ele>
        <time>2012-07-15T10:38:09.000Z</time>
      </trkpt>
      <trkpt lat="48.12945" lon="7.10188">
        <ele>990.59997558594</ele>
        <time>2012-07-15T10:38:17.000Z</time>
      </trkpt>
      <trkpt lat="48.12925" lon="7.10186">
        <ele>992</ele>
        <time>2012-07-15T10:38:25.000Z</time>
      </trkpt>
      <trkpt lat="48.12913" lon="7.10184">
        <ele>992.79998779297</ele>
        <time>2012-07-15T10:38:30.000Z</time>
      </trkpt>
      <trkpt lat="48.12892" lon="7.10179">
        <ele>993.79998779297</ele>
        <time>2012-07-15T10:38:39.000Z</time>
      </trkpt>
      <trkpt lat="48.12875" lon="7.10178">
        <ele>994.40002441406</ele>
        <time>2012-07-15T10:38:46.000Z</time>
      </trkpt>
      <trkpt lat="48.12862" lon="7.10175">
        <ele>995</ele>
        <time>2012-07-15T10:38:52.000Z</time>
      </trkpt>
      <trkpt lat="48.12847" lon="7.1017">
        <ele>995.79998779297</ele>
        <time>2012-07-15T10:38:59.000Z</time>
      </trkpt>
      <trkpt lat="48.12832" lon="7.10165">
        <ele>997</ele>
        <time>2012-07-15T10:39:07.000Z</time>
      </trkpt>
      <trkpt lat="48.12818" lon="7.10159">
        <ele>998.59997558594</ele>
        <time>2012-07-15T10:39:15.000Z</time>
      </trkpt>
      <trkpt lat="48.12801" lon="7.10154">
        <ele>1000</ele>
        <time>2012-07-15T10:39:24.000Z</time>
      </trkpt>
      <trkpt lat="48.12786" lon="7.1015">
        <ele>1000.5999755859</ele>
        <time>2012-07-15T10:39:32.000Z</time>
      </trkpt>
      <trkpt lat="48.12776" lon="7.10147">
        <ele>1001.5999755859</ele>
        <time>2012-07-15T10:39:38.000Z</time>
      </trkpt>
      <trkpt lat="48.1276" lon="7.10138">
        <ele>1002.799987793</ele>
        <time>2012-07-15T10:39:46.000Z</time>
      </trkpt>
      <trkpt lat="48.12749" lon="7.10117">
        <ele>1002.799987793</ele>
        <time>2012-07-15T10:39:51.000Z</time>
      </trkpt>
      <trkpt lat="48.12734" lon="7.10073">
        <ele>1002</ele>
        <time>2012-07-15T10:40:00.000Z</time>
      </trkpt>
      <trkpt lat="48.12731" lon="7.10055">
        <ele>1003</ele>
        <time>2012-07-15T10:40:06.000Z</time>
      </trkpt>
      <trkpt lat="48.12727" lon="7.10033">
        <ele>1005.4000244141</ele>
        <time>2012-07-15T10:40:15.000Z</time>
      </trkpt>
      <trkpt lat="48.1272" lon="7.10015">
        <ele>1007.4000244141</ele>
        <time>2012-07-15T10:40:23.000Z</time>
      </trkpt>
      <trkpt lat="48.12712" lon="7.10004">
        <ele>1008.200012207</ele>
        <time>2012-07-15T10:40:28.000Z</time>
      </trkpt>
      <trkpt lat="48.12701" lon="7.09989">
        <ele>1009</ele>
        <time>2012-07-15T10:40:37.000Z</time>
      </trkpt>
      <trkpt lat="48.12691" lon="7.09974">
        <ele>1011.4000244141</ele>
        <time>2012-07-15T10:40:46.000Z</time>
      </trkpt>
      <trkpt lat="48.1268" lon="7.09958">
        <ele>1014</ele>
        <time>2012-07-15T10:40:55.000Z</time>
      </trkpt>
      <trkpt lat="48.1267" lon="7.09942">
        <ele>1015.799987793</ele>
        <time>2012-07-15T10:41:04.000Z</time>
      </trkpt>
      <trkpt lat="48.12657" lon="7.09923">
        <ele>1017.4000244141</ele>
        <time>2012-07-15T10:41:14.000Z</time>
      </trkpt>
      <trkpt lat="48.12646" lon="7.09903">
        <ele>1019.200012207</ele>
        <time>2012-07-15T10:41:24.000Z</time>
      </trkpt>
      <trkpt lat="48.12634" lon="7.09886">
        <ele>1020.5999755859</ele>
        <time>2012-07-15T10:41:34.000Z</time>
      </trkpt>
      <trkpt lat="48.1262" lon="7.09872">
        <ele>1023.200012207</ele>
        <time>2012-07-15T10:41:44.000Z</time>
      </trkpt>
      <trkpt lat="48.12606" lon="7.09859">
        <ele>1024.8000488281</ele>
        <time>2012-07-15T10:41:53.000Z</time>
      </trkpt>
      <trkpt lat="48.12592" lon="7.09851">
        <ele>1026.4000244141</ele>
        <time>2012-07-15T10:42:02.000Z</time>
      </trkpt>
      <trkpt lat="48.12582" lon="7.09844">
        <ele>1027</ele>
        <time>2012-07-15T10:42:08.000Z</time>
      </trkpt>
      <trkpt lat="48.12565" lon="7.09831">
        <ele>1027</ele>
        <time>2012-07-15T10:42:18.000Z</time>
      </trkpt>
      <trkpt lat="48.12554" lon="7.09818">
        <ele>1027.8000488281</ele>
        <time>2012-07-15T10:42:26.000Z</time>
      </trkpt>
      <trkpt lat="48.12543" lon="7.09812">
        <ele>1029.8000488281</ele>
        <time>2012-07-15T10:42:35.000Z</time>
      </trkpt>
      <trkpt lat="48.12541" lon="7.09811">
        <ele>1030</ele>
        <time>2012-07-15T10:42:36.000Z</time>
      </trkpt>
      <trkpt lat="48.12541" lon="7.09801">
        <ele>1031.1999511719</ele>
        <time>2012-07-15T10:42:42.000Z</time>
      </trkpt>
      <trkpt lat="48.12548" lon="7.09794">
        <ele>1032.4000244141</ele>
        <time>2012-07-15T10:42:49.000Z</time>
      </trkpt>
      <trkpt lat="48.12559" lon="7.09794">
        <ele>1034.8000488281</ele>
        <time>2012-07-15T10:42:58.000Z</time>
      </trkpt>
      <trkpt lat="48.12565" lon="7.09796">
        <ele>1036.4000244141</ele>
        <time>2012-07-15T10:43:05.000Z</time>
      </trkpt>
      <trkpt lat="48.12567" lon="7.09796">
        <ele>1036.4000244141</ele>
        <time>2012-07-15T10:43:11.000Z</time>
      </trkpt>
      <trkpt lat="48.12568" lon="7.09796">
        <ele>1036.4000244141</ele>
        <time>2012-07-15T10:43:14.000Z</time>
      </trkpt>
      <trkpt lat="48.12576" lon="7.09799">
        <ele>1038</ele>
        <time>2012-07-15T10:43:23.000Z</time>
      </trkpt>
      <trkpt lat="48.12588" lon="7.09799">
        <ele>1040.1999511719</ele>
        <time>2012-07-15T10:43:34.000Z</time>
      </trkpt>
      <trkpt lat="48.12595" lon="7.09794">
        <ele>1041.4000244141</ele>
        <time>2012-07-15T10:43:41.000Z</time>
      </trkpt>
      <trkpt lat="48.12602" lon="7.09788">
        <ele>1041.8000488281</ele>
        <time>2012-07-15T10:43:47.000Z</time>
      </trkpt>
      <trkpt lat="48.12613" lon="7.09788">
        <ele>1041.8000488281</ele>
        <time>2012-07-15T10:43:54.000Z</time>
      </trkpt>
      <trkpt lat="48.12619" lon="7.09797">
        <ele>1042.5999755859</ele>
        <time>2012-07-15T10:44:00.000Z</time>
      </trkpt>
      <trkpt lat="48.12633" lon="7.09813">
        <ele>1043.4000244141</ele>
        <time>2012-07-15T10:44:08.000Z</time>
      </trkpt>
      <trkpt lat="48.1265" lon="7.09824">
        <ele>1044.1999511719</ele>
        <time>2012-07-15T10:44:16.000Z</time>
      </trkpt>
      <trkpt lat="48.12665" lon="7.09832">
        <ele>1045</ele>
        <time>2012-07-15T10:44:23.000Z</time>
      </trkpt>
      <trkpt lat="48.12683" lon="7.09847">
        <ele>1046</ele>
        <time>2012-07-15T10:44:32.000Z</time>
      </trkpt>
      <trkpt lat="48.12694" lon="7.09868">
        <ele>1047</ele>
        <time>2012-07-15T10:44:39.000Z</time>
      </trkpt>
      <trkpt lat="48.12709" lon="7.09891">
        <ele>1047</ele>
        <time>2012-07-15T10:44:47.000Z</time>
      </trkpt>
      <trkpt lat="48.12729" lon="7.09911">
        <ele>1047.5999755859</ele>
        <time>2012-07-15T10:44:57.000Z</time>
      </trkpt>
      <trkpt lat="48.12751" lon="7.09921">
        <ele>1048.5999755859</ele>
        <time>2012-07-15T10:45:07.000Z</time>
      </trkpt>
      <trkpt lat="48.12755" lon="7.09922">
        <ele>1048.5999755859</ele>
        <time>2012-07-15T10:45:09.000Z</time>
      </trkpt>
      <trkpt lat="48.1276" lon="7.09914">
        <ele>1048.8000488281</ele>
        <time>2012-07-15T10:45:14.000Z</time>
      </trkpt>
      <trkpt lat="48.12758" lon="7.09909">
        <ele>1049.5999755859</ele>
        <time>2012-07-15T10:45:17.000Z</time>
      </trkpt>
      <trkpt lat="48.12745" lon="7.09894">
        <ele>1052.4000244141</ele>
        <time>2012-07-15T10:45:26.000Z</time>
      </trkpt>
      <trkpt lat="48.12734" lon="7.09871">
        <ele>1054.1999511719</ele>
        <time>2012-07-15T10:45:36.000Z</time>
      </trkpt>
      <trkpt lat="48.12723" lon="7.09847">
        <ele>1055.8000488281</ele>
        <time>2012-07-15T10:45:46.000Z</time>
      </trkpt>
      <trkpt lat="48.12721" lon="7.09831">
        <ele>1057</ele>
        <time>2012-07-15T10:45:54.000Z</time>
      </trkpt>
      <trkpt lat="48.12721" lon="7.09816">
        <ele>1058.5999755859</ele>
        <time>2012-07-15T10:46:02.000Z</time>
      </trkpt>
      <trkpt lat="48.12725" lon="7.09804">
        <ele>1059.8000488281</ele>
        <time>2012-07-15T10:46:10.000Z</time>
      </trkpt>
      <trkpt lat="48.12731" lon="7.09797">
        <ele>1061.1999511719</ele>
        <time>2012-07-15T10:46:17.000Z</time>
      </trkpt>
      <trkpt lat="48.12739" lon="7.0979">
        <ele>1062.5999755859</ele>
        <time>2012-07-15T10:46:24.000Z</time>
      </trkpt>
      <trkpt lat="48.12752" lon="7.09787">
        <ele>1064.1999511719</ele>
        <time>2012-07-15T10:46:33.000Z</time>
      </trkpt>
      <trkpt lat="48.12761" lon="7.09787">
        <ele>1065</ele>
        <time>2012-07-15T10:46:39.000Z</time>
      </trkpt>
      <trkpt lat="48.12774" lon="7.09779">
        <ele>1066.5999755859</ele>
        <time>2012-07-15T10:46:48.000Z</time>
      </trkpt>
      <trkpt lat="48.12788" lon="7.09768">
        <ele>1068.8000488281</ele>
        <time>2012-07-15T10:46:57.000Z</time>
      </trkpt>
      <trkpt lat="48.12798" lon="7.09753">
        <ele>1069.5999755859</ele>
        <time>2012-07-15T10:47:06.000Z</time>
      </trkpt>
      <trkpt lat="48.12795" lon="7.0974">
        <ele>1070.4000244141</ele>
        <time>2012-07-15T10:47:12.000Z</time>
      </trkpt>
      <trkpt lat="48.12784" lon="7.09734">
        <ele>1071</ele>
        <time>2012-07-15T10:47:18.000Z</time>
      </trkpt>
      <trkpt lat="48.12764" lon="7.09738">
        <ele>1072.1999511719</ele>
        <time>2012-07-15T10:47:28.000Z</time>
      </trkpt>
      <trkpt lat="48.12746" lon="7.09743">
        <ele>1074.1999511719</ele>
        <time>2012-07-15T10:47:39.000Z</time>
      </trkpt>
      <trkpt lat="48.12736" lon="7.0974">
        <ele>1075.5999755859</ele>
        <time>2012-07-15T10:47:46.000Z</time>
      </trkpt>
      <trkpt lat="48.12727" lon="7.09729">
        <ele>1076.8000488281</ele>
        <time>2012-07-15T10:47:52.000Z</time>
      </trkpt>
      <trkpt lat="48.12712" lon="7.09707">
        <ele>1078</ele>
        <time>2012-07-15T10:47:59.000Z</time>
      </trkpt>
      <trkpt lat="48.12698" lon="7.09686">
        <ele>1077.5999755859</ele>
        <time>2012-07-15T10:48:04.000Z</time>
      </trkpt>
      <trkpt lat="48.12688" lon="7.09673">
        <ele>1077.4000244141</ele>
        <time>2012-07-15T10:48:09.000Z</time>
      </trkpt>
      <trkpt lat="48.12689" lon="7.09662">
        <ele>1078.4000244141</ele>
        <time>2012-07-15T10:48:13.000Z</time>
      </trkpt>
      <trkpt lat="48.12697" lon="7.09657">
        <ele>1079.5999755859</ele>
        <time>2012-07-15T10:48:18.000Z</time>
      </trkpt>
      <trkpt lat="48.12717" lon="7.09657">
        <ele>1080.1999511719</ele>
        <time>2012-07-15T10:48:26.000Z</time>
      </trkpt>
      <trkpt lat="48.12729" lon="7.09653">
        <ele>1081</ele>
        <time>2012-07-15T10:48:33.000Z</time>
      </trkpt>
      <trkpt lat="48.12737" lon="7.09644">
        <ele>1082.4000244141</ele>
        <time>2012-07-15T10:48:39.000Z</time>
      </trkpt>
      <trkpt lat="48.12737" lon="7.0963">
        <ele>1083.4000244141</ele>
        <time>2012-07-15T10:48:45.000Z</time>
      </trkpt>
      <trkpt lat="48.1273" lon="7.09614">
        <ele>1084.8000488281</ele>
        <time>2012-07-15T10:48:53.000Z</time>
      </trkpt>
      <trkpt lat="48.12719" lon="7.09606">
        <ele>1085.8000488281</ele>
        <time>2012-07-15T10:49:01.000Z</time>
      </trkpt>
      <trkpt lat="48.12707" lon="7.09602">
        <ele>1088.8000488281</ele>
        <time>2012-07-15T10:49:11.000Z</time>
      </trkpt>
      <trkpt lat="48.12691" lon="7.09598">
        <ele>1091.1999511719</ele>
        <time>2012-07-15T10:49:23.000Z</time>
      </trkpt>
      <trkpt lat="48.1268" lon="7.09595">
        <ele>1092.8000488281</ele>
        <time>2012-07-15T10:49:31.000Z</time>
      </trkpt>
      <trkpt lat="48.12673" lon="7.09586">
        <ele>1094.8000488281</ele>
        <time>2012-07-15T10:49:38.000Z</time>
      </trkpt>
      <trkpt lat="48.12672" lon="7.09578">
        <ele>1095.5999755859</ele>
        <time>2012-07-15T10:49:43.000Z</time>
      </trkpt>
      <trkpt lat="48.12681" lon="7.09572">
        <ele>1096.8000488281</ele>
        <time>2012-07-15T10:49:50.000Z</time>
      </trkpt>
      <trkpt lat="48.12694" lon="7.0957">
        <ele>1098.8000488281</ele>
        <time>2012-07-15T10:49:59.000Z</time>
      </trkpt>
      <trkpt lat="48.12706" lon="7.09563">
        <ele>1100.4000244141</ele>
        <time>2012-07-15T10:50:07.000Z</time>
      </trkpt>
      <trkpt lat="48.12715" lon="7.09554">
        <ele>1101.4000244141</ele>
        <time>2012-07-15T10:50:13.000Z</time>
      </trkpt>
      <trkpt lat="48.12731" lon="7.09539">
        <ele>1101</ele>
        <time>2012-07-15T10:50:18.000Z</time>
      </trkpt>
      <trkpt lat="48.1275" lon="7.09524">
        <ele>1099.8000488281</ele>
        <time>2012-07-15T10:50:24.000Z</time>
      </trkpt>
      <trkpt lat="48.12776" lon="7.09501">
        <ele>1101.1999511719</ele>
        <time>2012-07-15T10:50:34.000Z</time>
      </trkpt>
      <trkpt lat="48.12796" lon="7.09476">
        <ele>1100.8000488281</ele>
        <time>2012-07-15T10:50:43.000Z</time>
      </trkpt>
      <trkpt lat="48.12811" lon="7.09461">
        <ele>1102.5999755859</ele>
        <time>2012-07-15T10:50:50.000Z</time>
      </trkpt>
      <trkpt lat="48.12827" lon="7.09439">
        <ele>1104.4000244141</ele>
        <time>2012-07-15T10:50:58.000Z</time>
      </trkpt>
      <trkpt lat="48.12844" lon="7.09419">
        <ele>1104.1999511719</ele>
        <time>2012-07-15T10:51:05.000Z</time>
      </trkpt>
      <trkpt lat="48.12862" lon="7.09399">
        <ele>1104</ele>
        <time>2012-07-15T10:51:13.000Z</time>
      </trkpt>
      <trkpt lat="48.12876" lon="7.09384">
        <ele>1103.5999755859</ele>
        <time>2012-07-15T10:51:18.000Z</time>
      </trkpt>
      <trkpt lat="48.129" lon="7.09359">
        <ele>1104.5999755859</ele>
        <time>2012-07-15T10:51:26.000Z</time>
      </trkpt>
      <trkpt lat="48.12922" lon="7.09337">
        <ele>1105.1999511719</ele>
        <time>2012-07-15T10:51:34.000Z</time>
      </trkpt>
      <trkpt lat="48.12933" lon="7.0933">
        <ele>1105.8000488281</ele>
        <time>2012-07-15T10:51:39.000Z</time>
      </trkpt>
      <trkpt lat="48.12953" lon="7.09324">
        <ele>1107.8000488281</ele>
        <time>2012-07-15T10:51:48.000Z</time>
      </trkpt>
      <trkpt lat="48.1297" lon="7.09317">
        <ele>1108.4000244141</ele>
        <time>2012-07-15T10:51:53.000Z</time>
      </trkpt>
      <trkpt lat="48.12978" lon="7.09314">
        <ele>1108.1999511719</ele>
        <time>2012-07-15T10:51:55.000Z</time>
      </trkpt>
      <trkpt lat="48.13011" lon="7.09313">
        <ele>1107</ele>
        <time>2012-07-15T10:52:02.000Z</time>
      </trkpt>
      <trkpt lat="48.13031" lon="7.09312">
        <ele>1106.5999755859</ele>
        <time>2012-07-15T10:52:07.000Z</time>
      </trkpt>
      <trkpt lat="48.1305" lon="7.09311">
        <ele>1106.1999511719</ele>
        <time>2012-07-15T10:52:11.000Z</time>
      </trkpt>
      <trkpt lat="48.13067" lon="7.09306">
        <ele>1105.5999755859</ele>
        <time>2012-07-15T10:52:15.000Z</time>
      </trkpt>
      <trkpt lat="48.13103" lon="7.09303">
        <ele>1105</ele>
        <time>2012-07-15T10:52:20.000Z</time>
      </trkpt>
      <trkpt lat="48.13111" lon="7.09302">
        <ele>1104.5999755859</ele>
        <time>2012-07-15T10:52:21.000Z</time>
      </trkpt>
      <trkpt lat="48.13159" lon="7.09291">
        <ele>1101.1999511719</ele>
        <time>2012-07-15T10:52:27.000Z</time>
      </trkpt>
      <trkpt lat="48.13166" lon="7.0929">
        <ele>1100.4000244141</ele>
        <time>2012-07-15T10:52:28.000Z</time>
      </trkpt>
      <trkpt lat="48.13208" lon="7.09291">
        <ele>1097.4000244141</ele>
        <time>2012-07-15T10:52:33.000Z</time>
      </trkpt>
      <trkpt lat="48.13242" lon="7.09284">
        <ele>1095.5999755859</ele>
        <time>2012-07-15T10:52:37.000Z</time>
      </trkpt>
      <trkpt lat="48.1325" lon="7.09282">
        <ele>1095</ele>
        <time>2012-07-15T10:52:38.000Z</time>
      </trkpt>
      <trkpt lat="48.13283" lon="7.09283">
        <ele>1092.4000244141</ele>
        <time>2012-07-15T10:52:42.000Z</time>
      </trkpt>
      <trkpt lat="48.13315" lon="7.09298">
        <ele>1090.1999511719</ele>
        <time>2012-07-15T10:52:46.000Z</time>
      </trkpt>
      <trkpt lat="48.13328" lon="7.0931">
        <ele>1088.8000488281</ele>
        <time>2012-07-15T10:52:48.000Z</time>
      </trkpt>
      <trkpt lat="48.13343" lon="7.09327">
        <ele>1086.5999755859</ele>
        <time>2012-07-15T10:52:51.000Z</time>
      </trkpt>
      <trkpt lat="48.13347" lon="7.09351">
        <ele>1084.8000488281</ele>
        <time>2012-07-15T10:52:55.000Z</time>
      </trkpt>
      <trkpt lat="48.13348" lon="7.09362">
        <ele>1085</ele>
        <time>2012-07-15T10:52:57.000Z</time>
      </trkpt>
      <trkpt lat="48.13357" lon="7.0941">
        <ele>1086.4000244141</ele>
        <time>2012-07-15T10:53:07.000Z</time>
      </trkpt>
      <trkpt lat="48.13358" lon="7.09439">
        <ele>1086.4000244141</ele>
        <time>2012-07-15T10:53:13.000Z</time>
      </trkpt>
      <trkpt lat="48.13356" lon="7.09462">
        <ele>1086</ele>
        <time>2012-07-15T10:53:18.000Z</time>
      </trkpt>
      <trkpt lat="48.13356" lon="7.09462">
        <ele>1086.1999511719</ele>
        <time>2012-07-15T10:53:21.000Z</time>
      </trkpt>
    </trkseg>
  </trk>
</gpx>